[[{"header":{"parameterUnit":"m.s-1","parameterCategory":1,"la1":30.6,"la2":29.2853,"lo1":-89.7004,"lo2":-87.6739,"dy":0.0162,"dx":0.0183,"nx":112,"ny":82,"refTime":"2024-08-19T06:00:00:Z","depth":0,"parameterNumber":2,"parameterNumberName":"U-component_of_WINDS"},"data":[0.0,0.0,0.0,0.0,0.0,0.0,0.0,0.0,0.0,0.0,0.0,0.0,0.0,0.0,0.0,0.0,0.0,0.0,0.0,0.0,0.0,0.0,0.0,0.0,0.0,0.0,0.0,0.0,0.0,0.0,0.0,0.0,0.0,0.0,0.0,0.0,0.0,0.0,0.0,0.0,0.0,0.0,0.0,0.0,0.0,0.0,0.0,0.0,0.0,0.0,0.0,0.0,0.0,0.0,0.0,0.0,0.0,0.0,0.0,0.0,0.0,0.0,0.0,0.0,0.0,0.0,0.0,0.0,0.0,0.0,0.0,0.0,0.0,0.0,0.0,0.0,0.0,0.0,0.0,0.0,0.0,0.0,0.0,0.0,0.0,0.0,0.0,0.0,0.0,0.0,0.0,2.9486,3.3256,3.5199,3.4449,3.4128,3.1834,2.6867,0.0,0.0,0.0,0.0,0.0,0.0,0.0,0.0,0.0,0.0,0.0,0.0,0.0,0.0,0.0,0.0,0.0,0.0,0.0,0.0,0.0,0.0,0.0,0.0,0.0,0.0,0.0,0.0,0.0,0.0,0.0,0.0,0.0,0.0,0.0,0.0,0.0,0.0,0.0,0.0,0.0,0.0,0.0,0.0,0.0,0.0,0.0,0.0,0.0,0.0,0.0,0.0,0.0,0.0,0.0,0.0,0.0,0.0,0.0,0.0,0.0,0.0,0.0,0.0,0.0,0.0,0.0,0.0,0.0,0.0,0.0,0.0,0.0,0.0,0.0,0.0,0.0,0.0,0.0,0.0,0.0,0.0,0.0,0.0,0.0,0.0,0.0,0.0,0.0,0.0,0.0,0.0,0.0,0.0,0.0,0.0,0.0,0.0,0.0,0.0,0.0,0.0,0.0,0.0,2.6572,3.2763,3.468,3.5449,3.5315,3.3786,3.1245,2.749,0.0,0.0,0.0,0.0,0.0,0.0,0.0,0.0,0.0,0.0,0.0,0.0,0.0,0.0,0.0,0.0,0.0,0.0,0.0,0.0,0.0,0.0,0.0,0.0,0.0,0.0,0.0,0.0,0.0,0.0,0.0,0.0,0.0,0.0,0.0,0.0,0.0,0.0,0.0,0.0,0.0,0.0,0.0,0.0,0.0,0.0,0.0,0.0,0.0,0.0,0.0,0.0,0.0,0.0,0.0,0.0,0.0,0.0,0.0,0.0,0.0,0.0,0.0,0.0,0.0,0.0,0.0,0.0,0.0,0.0,0.0,0.0,0.0,0.0,0.0,0.0,0.0,0.0,0.0,0.0,0.0,0.0,0.0,0.0,0.0,0.0,0.0,0.0,0.0,0.0,0.0,0.0,0.0,0.0,0.0,0.0,0.0,0.0,0.0,0.0,0.0,0.0,0.0,2.5109,2.8744,3.368,3.4988,3.5446,3.5289,3.3639,3.1042,2.7398,2.422,0.0,0.0,0.0,0.0,0.0,0.0,0.0,0.0,0.0,0.0,0.0,0.0,0.0,0.0,0.0,0.0,0.0,0.0,0.0,0.0,0.0,0.0,0.0,0.0,0.0,0.0,0.0,0.0,0.0,0.0,0.0,0.0,0.0,0.0,0.0,0.0,0.0,0.0,0.0,0.0,0.0,0.0,0.0,0.0,0.0,0.0,0.0,0.0,0.0,0.0,0.0,0.0,0.0,0.0,0.0,0.0,0.0,0.0,0.0,0.0,0.0,0.0,0.0,0.0,0.0,0.0,0.0,0.0,0.0,0.0,0.0,0.0,0.0,0.0,0.0,0.0,0.0,0.0,0.0,0.0,0.0,0.0,0.0,0.0,0.0,0.0,0.0,0.0,0.0,0.0,0.0,0.0,0.0,0.0,0.0,0.0,0.0,0.0,0.0,0.0,0.0,0.0,2.8326,3.0717,3.4141,3.5042,3.532,3.5122,3.2923,3.0251,2.7193,2.2482,0.0,0.0,0.0,0.0,0.0,0.0,0.0,0.0,0.0,0.0,0.0,0.0,0.0,0.0,0.0,0.0,0.0,0.0,0.0,0.0,0.0,0.0,0.0,0.0,0.0,0.0,0.0,0.0,0.0,0.0,0.0,0.0,0.0,0.0,0.0,0.0,0.0,0.0,0.0,0.0,0.0,0.0,0.0,0.0,0.0,0.0,0.0,0.0,0.0,0.0,0.0,0.0,0.0,0.0,0.0,0.0,0.0,0.0,0.0,0.0,0.0,0.0,0.0,0.0,0.0,0.0,0.0,0.0,0.0,0.0,0.0,0.0,0.0,0.0,0.0,0.0,0.0,0.0,0.0,0.0,0.0,0.0,0.0,0.0,0.0,0.0,0.0,0.0,0.0,0.0,0.0,0.0,0.0,0.0,0.0,0.0,0.0,0.0,0.0,0.0,0.0,0.0,2.8814,3.1621,3.5045,3.5251,3.5122,3.5105,3.1052,2.8091,2.7063,2.0125,0.0,0.0,0.0,0.0,0.0,0.0,0.0,0.0,0.0,0.0,0.0,0.0,0.0,0.0,0.0,0.0,0.0,0.0,0.0,0.0,0.0,0.0,0.0,0.0,0.0,0.0,0.0,0.0,0.0,0.0,0.0,0.0,0.0,0.0,0.0,0.0,0.0,0.0,0.0,0.0,0.0,0.0,0.0,0.0,0.0,0.0,0.0,0.0,0.0,0.0,0.0,0.0,0.0,0.0,0.0,0.0,0.0,0.0,0.0,0.0,0.0,0.0,0.0,0.0,0.0,0.0,0.0,0.0,0.0,0.0,0.0,0.0,0.0,0.0,0.0,0.0,0.0,0.0,0.0,0.0,0.0,0.0,0.0,0.0,0.0,0.0,0.0,0.0,0.0,0.0,0.0,0.0,0.0,0.0,0.0,0.0,0.0,0.0,0.0,0.0,0.0,0.0,2.8871,3.1705,0.0,3.5273,3.4805,3.4092,3.1374,2.8444,2.5449,0.0,0.0,0.0,0.0,0.0,0.0,0.0,0.0,0.0,0.0,0.0,0.0,0.0,0.0,0.0,0.0,0.0,0.0,0.0,0.0,0.0,0.0,0.0,0.0,0.0,0.0,0.0,0.0,0.0,0.0,0.0,0.0,0.0,0.0,0.0,0.0,0.0,0.0,0.0,0.0,0.0,0.0,0.0,0.0,0.0,0.0,0.0,0.0,0.0,0.0,0.0,0.0,0.0,0.0,0.0,0.0,0.0,0.0,0.0,0.0,0.0,0.0,0.0,0.0,0.0,0.0,0.0,0.0,0.0,0.0,0.0,0.0,0.0,0.0,0.0,0.0,0.0,0.0,0.0,0.0,0.0,0.0,0.0,0.0,0.0,0.0,0.0,0.0,0.0,0.0,0.0,0.0,0.0,0.0,0.0,0.0,0.0,0.0,0.0,0.0,0.0,0.0,2.6312,2.9279,3.2025,0.0,3.519,3.4547,3.3507,3.0897,2.7875,2.4429,0.0,0.0,0.0,0.0,0.0,0.0,0.0,0.0,0.0,0.0,0.0,0.0,0.0,0.0,0.0,0.0,0.0,0.0,0.0,0.0,0.0,0.0,0.0,0.0,0.0,0.0,0.0,0.0,0.0,0.0,0.0,0.0,0.0,0.0,0.0,0.0,0.0,0.0,0.0,0.0,0.0,0.0,0.0,0.0,0.0,0.0,0.0,0.0,0.0,0.0,0.0,0.0,0.0,0.0,0.0,0.0,0.0,0.0,0.0,0.0,0.0,0.0,0.0,0.0,0.0,0.0,0.0,0.0,0.0,0.0,0.0,0.0,0.0,0.0,0.0,0.0,0.0,0.0,0.0,0.0,0.0,0.0,0.0,0.0,0.0,0.0,0.0,0.0,0.0,0.0,0.0,0.0,0.0,0.0,0.0,0.0,0.0,0.0,0.0,0.0,0.0,0.0,2.7149,3.0121,3.2679,3.5224,3.5016,3.4336,3.3469,2.9223,2.5933,0.0,0.0,0.0,0.0,0.0,0.0,0.0,0.0,0.0,0.0,0.0,0.0,0.0,0.0,0.0,0.0,0.0,0.0,0.0,0.0,0.0,0.0,0.0,0.0,0.0,0.0,0.0,0.0,0.0,0.0,0.0,0.0,0.0,0.0,0.0,0.0,0.0,0.0,0.0,0.0,0.0,0.0,0.0,0.0,0.0,0.0,0.0,0.0,0.0,0.0,0.0,0.0,0.0,0.0,0.0,0.0,0.0,0.0,0.0,0.0,0.0,0.0,0.0,0.0,0.0,0.0,0.0,0.0,0.0,0.0,0.0,0.0,0.0,0.0,0.0,0.0,0.0,0.0,0.0,0.0,0.0,0.0,0.0,0.0,0.0,0.0,0.0,0.0,0.0,0.0,0.0,0.0,0.0,0.0,0.0,0.0,0.0,0.0,0.0,0.0,0.0,0.0,0.0,0.0,3.0621,3.3223,3.5028,3.4908,3.4049,3.2418,2.9817,2.6888,2.3566,0.0,0.0,0.0,0.0,0.0,0.0,0.0,0.0,0.0,0.0,0.0,0.0,0.0,0.0,0.0,0.0,0.0,0.0,0.0,0.0,0.0,0.0,0.0,0.0,0.0,0.0,0.0,0.0,0.0,0.0,0.0,0.0,0.0,0.0,0.0,0.0,0.0,0.0,0.0,0.0,0.0,0.0,0.0,0.0,0.0,0.0,0.0,0.0,0.0,0.0,0.0,0.0,0.0,0.0,0.0,0.0,0.0,0.0,0.0,0.0,0.0,0.0,0.0,0.0,0.0,0.0,0.0,0.0,0.0,0.0,0.0,0.0,0.0,0.0,0.0,0.0,0.0,0.0,0.0,0.0,0.0,0.0,0.0,0.0,0.0,0.0,0.0,0.0,0.0,0.0,0.0,0.0,0.0,0.0,0.0,0.0,0.0,0.0,0.0,0.0,0.0,0.0,2.7283,3.0733,3.334,3.4931,3.4735,3.3899,3.2418,3.0563,2.7915,2.419,0.0,0.0,0.0,0.0,0.0,0.0,0.0,0.0,0.0,0.0,0.0,0.0,0.0,0.0,0.0,0.0,0.0,0.0,0.0,0.0,0.0,0.0,0.0,0.0,0.0,0.0,0.0,0.0,0.0,0.0,0.0,0.0,0.0,0.0,0.0,0.0,0.0,0.0,0.0,0.0,0.0,0.0,0.0,0.0,0.0,0.0,0.0,0.0,0.0,0.0,0.0,0.0,0.0,0.0,0.0,0.0,0.0,0.0,0.0,0.0,0.0,0.0,0.0,0.0,0.0,0.0,0.0,0.0,0.0,0.0,0.0,0.0,0.0,0.0,0.0,0.0,0.0,0.0,0.0,0.0,0.0,0.0,0.0,0.0,0.0,0.0,0.0,0.0,0.0,0.0,0.0,0.0,0.0,0.0,0.0,0.0,0.0,0.0,0.0,0.0,0.0,0.0,2.7456,3.0647,3.3163,3.488,3.4553,3.386,3.3018,3.126,2.8851,2.5715,0.0,0.0,0.0,0.0,0.0,0.0,0.0,0.0,0.0,0.0,0.0,0.0,0.0,0.0,0.0,0.0,0.0,0.0,0.0,0.0,0.0,0.0,0.0,0.0,0.0,0.0,0.0,0.0,0.0,0.0,0.0,0.0,0.0,0.0,0.0,0.0,0.0,0.0,0.0,0.0,0.0,0.0,0.0,0.0,0.0,0.0,0.0,0.0,0.0,0.0,0.0,0.0,0.0,0.0,0.0,0.0,0.0,0.0,0.0,0.0,2.2356,0.0,0.0,0.0,0.0,0.0,0.0,0.0,0.0,0.0,0.0,0.0,0.0,0.0,0.0,0.0,0.0,0.0,0.0,0.0,0.0,0.0,0.0,0.0,0.0,0.0,0.0,0.0,0.0,0.0,0.0,0.0,0.0,0.0,0.0,0.0,0.0,0.0,0.0,0.0,0.0,0.0,2.8206,3.0972,3.3097,3.4623,3.4445,3.3807,3.2778,3.1176,2.9108,2.6502,0.0,0.0,0.0,0.0,0.0,0.0,0.0,0.0,0.0,0.0,0.0,0.0,0.0,0.0,0.0,0.0,0.0,0.0,0.0,0.0,0.0,0.0,0.0,0.0,0.0,0.0,0.0,0.0,0.0,0.0,0.0,0.0,0.0,0.0,0.0,0.0,0.0,0.0,0.0,0.0,0.0,0.0,0.0,0.0,0.0,0.0,0.0,0.0,0.0,0.0,0.0,0.0,0.0,0.0,0.0,0.0,0.0,0.0,0.0,0.0,0.0,2.4596,0.0,0.0,0.0,0.0,0.0,0.0,0.0,0.0,0.0,0.0,0.0,0.0,0.0,0.0,0.0,0.0,0.0,0.0,0.0,0.0,0.0,0.0,0.0,0.0,0.0,0.0,0.0,0.0,0.0,0.0,0.0,0.0,0.0,0.0,0.0,0.0,0.0,0.0,0.0,0.0,2.8602,3.1344,3.3393,3.4582,3.4284,3.3769,3.3201,3.1696,3.0081,2.8429,2.5309,0.0,0.0,0.0,0.0,0.0,0.0,0.0,0.0,0.0,0.0,0.0,0.0,0.0,0.0,0.0,0.0,0.0,0.0,0.0,0.0,0.0,0.0,0.0,0.0,0.0,0.0,0.0,0.0,0.0,0.0,0.0,0.0,0.0,0.0,0.0,0.0,0.0,0.0,0.0,0.0,0.0,0.0,0.0,0.0,0.0,0.0,0.0,0.0,0.0,0.0,0.0,0.0,0.0,0.0,3.3583,3.4218,3.4218,3.4321,3.4376,3.154,2.9886,2.9062,0.0,0.0,0.0,0.0,0.0,0.0,0.0,0.0,0.0,0.0,0.0,0.0,0.0,0.0,0.0,0.0,0.0,0.0,0.0,0.0,0.0,0.0,0.0,0.0,0.0,3.2587,3.2621,0.0,0.0,0.0,0.0,0.0,0.0,0.0,0.0,0.0,0.0,0.0,0.0,2.9325,3.1982,3.3937,3.4743,3.4358,3.3954,3.3807,3.2449,3.1201,3.0265,2.7567,2.4962,0.0,0.0,0.0,0.0,0.0,0.0,0.0,0.0,0.0,0.0,0.0,0.0,0.0,0.0,0.0,0.0,0.0,0.0,0.0,0.0,0.0,0.0,0.0,0.0,0.0,0.0,0.0,0.0,0.0,0.0,0.0,0.0,2.1062,2.2177,0.0,0.0,0.0,0.0,0.0,0.0,0.0,0.0,0.0,0.0,0.0,0.0,0.0,0.0,3.2064,3.4487,3.5757,3.5911,3.8219,3.9392,3.9488,3.9488,3.9615,3.9764,3.9313,0.0,3.2656,3.1659,0.0,0.0,0.0,0.0,0.0,0.0,0.0,0.0,0.0,0.0,0.0,0.0,0.0,0.0,0.0,0.0,0.0,0.0,0.0,0.0,0.0,0.0,3.6042,3.5566,3.5495,3.5296,0.0,3.1021,2.7248,2.4407,0.0,0.0,0.0,0.0,0.0,0.0,0.0,0.0,3.1558,3.345,3.468,3.5338,3.5077,3.4578,3.3862,3.2981,3.1806,3.0301,2.9163,2.7438,2.5035,2.3656,0.0,0.0,0.0,0.0,0.0,0.0,0.0,0.0,0.0,0.0,0.0,0.0,0.0,0.0,0.0,0.0,0.0,0.0,0.0,0.0,0.0,0.0,0.0,0.0,0.0,0.0,0.0,0.0,0.0,2.0966,2.362,2.3552,2.4351,2.4216,0.0,0.0,0.0,0.0,0.0,0.0,0.0,0.0,0.0,3.3859,3.4795,3.5853,3.7161,3.8757,3.9565,3.9604,4.1181,4.195,4.195,4.195,4.2024,4.2152,4.2218,4.1081,3.8926,3.6113,3.4199,3.2773,0.0,0.0,0.0,0.0,0.0,3.041,3.2218,0.0,0.0,0.0,0.0,0.0,0.0,0.0,0.0,0.0,0.0,0.0,0.0,0.0,0.0,3.7055,3.7432,3.7493,3.6879,3.5226,3.2856,0.0,2.8707,2.7381,2.3398,0.0,0.0,0.0,0.0,0.0,3.2918,3.4832,3.5866,3.5528,3.5217,3.4688,3.3862,3.3073,3.2302,3.1604,3.0375,2.8998,2.7493,2.6344,2.4414,0.0,0.0,0.0,0.0,0.0,0.0,0.0,0.0,0.0,0.0,0.0,0.0,0.0,0.0,0.0,0.0,0.0,0.0,0.0,0.0,0.0,0.0,0.0,0.0,0.0,0.0,0.0,0.0,2.3601,2.5967,2.5168,2.7121,2.7467,0.0,0.0,0.0,0.0,0.0,0.0,3.2256,3.393,3.5815,3.795,3.8854,3.9892,4.1143,4.2008,4.245,4.245,4.3316,4.3739,4.3739,4.3739,4.3797,4.3871,4.4001,4.4124,4.3945,4.0117,3.7978,3.6945,3.5372,3.4545,3.4314,3.518,3.5084,3.482,3.6857,3.7153,3.6527,3.5759,0.0,3.4302,3.1335,0.0,0.0,0.0,0.0,3.3808,3.5932,0.0,3.6928,3.8207,3.8775,3.8766,3.7959,3.795,3.7039,0.0,3.3009,3.1936,2.7793,0.0,0.0,0.0,0.0,3.3704,3.447,3.6168,3.6977,3.6092,3.5606,3.5018,3.4174,3.3385,3.2742,3.232,3.1164,3.0063,2.903,2.8227,2.6602,2.4062,0.0,0.0,0.0,0.0,0.0,0.0,0.0,0.0,0.0,0.0,0.0,0.0,0.0,0.0,0.0,0.0,0.0,0.0,0.0,0.0,0.0,0.0,0.0,0.0,0.0,0.0,0.0,0.0,0.0,2.7794,3.1314,0.0,0.0,0.0,0.0,3.2468,3.4122,3.5853,3.7526,3.92,4.0566,4.1508,4.2393,4.2874,4.297,4.3778,4.4162,4.4182,4.5047,4.547,4.547,4.547,4.5547,4.568,4.5736,4.5841,4.5762,4.3203,4.1553,4.0548,3.9639,3.8658,3.7853,3.8719,3.9008,3.9054,3.9623,3.9795,3.985,4.0306,3.9317,3.7807,3.6844,3.5995,0.0,0.0,3.7224,3.9298,4.0263,4.0282,4.0077,4.0151,3.9431,3.8719,3.8652,3.8634,3.7911,0.0,3.5066,3.4769,3.3238,0.0,3.3497,3.3711,3.4397,3.54,3.6769,3.7467,3.7737,3.7437,3.6717,3.5881,3.5009,3.4211,3.3091,3.1549,3.1366,3.0632,2.9049,2.8227,2.7365,2.6429,2.4155,0.0,0.0,0.0,0.0,0.0,0.0,0.0,0.0,0.0,0.0,0.0,0.0,0.0,0.0,0.0,0.0,0.0,0.0,0.0,0.0,0.0,0.0,0.0,0.0,0.0,0.0,0.0,0.0,3.191,3.4718,0.0,0.0,3.4507,3.5584,3.6142,3.7757,3.9219,4.0392,4.2027,4.3085,4.3393,4.4239,4.4701,4.4701,4.4989,4.5143,4.5143,4.5451,4.5586,4.5586,4.5586,4.5624,4.568,4.5796,4.5866,4.5857,4.5087,4.4254,4.3377,4.2427,4.1767,4.1377,4.1643,4.1581,4.138,4.155,4.1459,4.1288,4.1301,4.0766,4.0055,3.9964,3.972,3.9522,3.9695,4.0277,4.0932,4.1231,4.107,4.0806,4.0806,4.0528,4.0249,4.0249,4.0249,3.9992,3.908,3.7886,3.6496,3.4894,3.534,3.555,3.4547,3.5949,3.7241,3.7579,3.8238,3.8368,3.7573,3.7221,3.6505,3.5119,3.4734,3.3899,3.2284,3.1678,3.0687,2.9067,2.8227,2.7181,2.5841,2.4703,2.2787,0.0,0.0,0.0,0.0,0.0,0.0,0.0,0.0,0.0,0.0,0.0,0.0,0.0,0.0,0.0,0.0,0.0,0.0,0.0,0.0,0.0,0.0,0.0,0.0,0.0,0.0,3.4737,3.5007,3.7815,3.895,3.6969,3.8046,3.9219,4.0065,4.1143,4.2162,4.3047,4.4143,4.4739,4.4739,4.5297,4.5586,4.5586,4.5586,4.5586,4.5586,4.5586,4.5586,4.5586,4.5586,4.5586,4.5605,4.5738,4.58,4.5802,4.5963,4.5753,4.5232,4.4576,4.4222,4.4066,4.4028,4.3733,4.3338,4.3099,4.278,4.2482,4.2303,4.2092,4.1879,4.1853,4.2038,4.2217,4.2118,4.218,4.2261,4.2261,4.1857,4.1515,4.1515,4.1313,4.1111,4.1111,4.1111,4.1111,4.1111,3.9736,3.8257,3.718,3.7412,3.7418,3.6381,3.7558,3.8509,3.8316,3.8692,3.8691,3.7966,3.7643,3.6927,3.5569,3.4926,3.4027,3.2687,3.1586,3.0522,2.9457,2.8374,2.7291,2.6248,2.5215,2.3927,2.2338,0.0,0.0,0.0,0.0,0.0,0.0,0.0,0.0,0.0,0.0,0.0,0.0,0.0,0.0,0.0,0.0,0.0,0.0,0.0,0.0,0.0,0.0,0.0,3.3064,3.5988,3.7815,3.7026,4.0623,4.22,3.9738,4.172,4.3508,4.4278,4.4335,4.4701,4.5547,4.5586,4.5586,4.5586,4.5586,4.5586,4.5586,4.5586,4.5586,4.5586,4.5586,4.5586,4.5586,4.5586,4.5586,4.5605,4.5738,4.5796,4.5796,4.5873,4.5966,4.6093,4.6099,4.5965,4.5794,4.5796,4.5496,4.4988,4.4261,4.3772,4.3497,4.3497,4.3497,4.3332,4.2561,4.2873,4.3332,4.2561,4.2892,4.3497,4.3497,4.291,4.2341,4.2341,4.1754,4.1185,4.1185,4.1185,4.1185,4.1185,4.0524,4.0044,4.0271,3.9686,3.9279,3.9604,3.9383,0.0,3.9136,3.8892,3.8726,3.8707,3.7991,3.7202,3.6413,3.4835,3.3513,3.2669,3.1109,3.021,3.0173,2.8668,2.7846,2.7809,2.585,2.4912,2.5049,0.0,0.0,0.0,0.0,0.0,0.0,0.0,0.0,0.0,0.0,0.0,0.0,0.0,0.0,0.0,0.0,0.0,0.0,0.0,0.0,0.0,0.0,3.6603,3.6603,3.9008,4.1123,4.2085,4.3893,4.4739,4.3951,4.4586,4.5105,4.522,4.524,4.5336,4.5586,4.5586,4.5586,4.5586,4.5586,4.5586,4.5586,4.5586,4.5586,4.5586,4.5586,4.5586,4.5586,4.5586,4.5586,4.5586,4.5624,4.5643,4.5643,4.5776,4.587,4.5953,4.5957,4.5908,4.5863,4.5816,4.5357,4.4631,4.3899,4.3563,4.3497,4.3497,4.3497,4.3442,4.3222,4.3314,4.3442,4.3222,4.3314,4.3497,4.3497,4.3332,4.3167,4.3167,4.3002,4.2837,4.2837,4.2837,4.2837,4.2837,4.2194,4.1475,4.0964,4.0701,4.0566,4.0688,4.0597,0.0,3.9773,3.9614,3.935,3.8762,3.8505,3.8028,3.7221,3.6211,3.4743,0.0,3.1641,3.0558,2.936,2.8925,2.8513,2.824,2.7846,2.716,0.0,0.0,0.0,0.0,0.0,0.0,0.0,0.0,0.0,0.0,0.0,0.0,0.0,0.0,0.0,0.0,0.0,0.0,0.0,0.0,0.0,0.0,3.8142,4.0258,4.0585,4.1912,4.3355,4.4759,4.5449,4.5786,4.5722,4.5761,4.5776,4.5699,4.5624,4.5586,4.5586,4.5951,4.6144,4.6144,4.6471,4.6644,4.6644,4.6644,4.6644,4.6644,4.6644,4.6644,4.6644,4.6644,4.6644,0.0,4.6644,4.6644,4.6624,4.6374,4.6334,0.0,0.0,0.0,0.0,0.0,4.5161,4.4501,4.3931,4.3631,4.3497,4.3497,4.3497,4.3497,4.3497,4.3497,4.3497,4.3497,4.3497,4.3497,4.3497,4.3497,4.3497,4.3497,4.3497,4.3497,4.3497,4.3497,4.3497,4.3497,0.0,0.0,4.2194,4.1552,4.1111,4.1111,4.1111,4.0863,4.0133,3.9937,3.9617,3.8911,3.8747,3.8377,3.7551,3.6743,0.0,0.0,0.0,3.1238,2.9736,2.9662,0.0,0.0,0.0,0.0,0.0,0.0,0.0,0.0,3.1383,3.1929,0.0,0.0,0.0,0.0,0.0,0.0,0.0,0.0,0.0,0.0,0.0,0.0,0.0,0.0,0.0,0.0,4.1643,4.3528,4.4335,4.4451,4.4797,4.5699,4.5815,4.5843,4.59,4.5861,4.5857,4.593,4.5817,4.5778,4.5874,0.0,0.0,0.0,0.0,4.8105,4.8105,4.8105,4.8105,4.8125,4.8125,4.8125,4.8144,4.8125,4.8125,4.8125,4.8105,4.8105,4.8048,4.7355,4.7181,4.7282,4.6435,4.6086,4.6018,4.5488,4.4989,0.0,0.0,0.0,0.0,4.3497,4.3497,4.3497,4.3497,4.3497,4.3497,4.3497,4.3497,4.3497,4.3497,4.3497,4.3497,4.3497,4.3497,4.3497,4.3497,4.3497,4.3497,4.3497,4.3497,4.3497,4.3497,4.2323,4.1387,4.1387,4.1387,4.1129,4.0438,4.0227,3.9904,3.9211,0.0,0.0,3.7826,3.6945,3.6395,3.6303,3.4156,3.2342,3.1185,3.1285,3.1864,3.2997,3.3253,3.4515,3.6853,3.7252,3.8214,3.9588,3.5651,3.5175,0.0,0.0,0.0,0.0,0.0,0.0,0.0,0.0,0.0,0.0,0.0,0.0,0.0,0.0,0.0,4.0989,4.2854,4.4374,4.522,4.5449,4.5584,4.5776,4.595,4.5997,4.592,4.5986,4.624,4.6735,4.674,4.699,4.7586,4.7778,0.0,4.7875,4.8029,4.8105,4.8105,4.8105,4.8144,4.8277,0.0,0.0,4.8413,4.8317,4.826,4.826,4.8163,4.8105,4.8105,4.8047,4.8179,4.826,4.6689,4.6035,4.5897,4.5468,4.4989,4.4553,4.4146,4.3772,4.3497,4.3497,4.3497,4.3497,4.3497,4.3497,0.0,4.3497,4.3497,4.3497,4.3497,4.3497,4.3497,4.3497,4.3497,4.3497,4.3497,4.3497,4.3497,4.3497,4.3497,4.3497,4.3497,4.3222,4.3039,4.3039,4.3039,4.2573,4.1323,4.1538,4.1366,4.0095,3.9771,3.9588,3.9441,3.8083,3.6982,3.634,3.5202,3.4537,3.4563,3.5371,3.5758,3.5598,3.7175,3.792,3.7757,3.9835,4.1027,4.128,3.9223,3.93,0.0,0.0,0.0,0.0,0.0,0.0,0.0,0.0,0.0,0.0,0.0,3.6622,0.0,0.0,4.1739,4.3431,4.4393,4.5124,4.5642,4.5796,4.5861,4.586,4.6005,4.6104,4.6089,4.6435,4.6773,4.7074,4.7381,4.7721,4.8086,4.8509,4.8759,4.8759,4.9163,4.9394,4.9394,4.9471,4.9528,4.9586,4.9672,4.9741,4.9799,4.9727,4.9699,4.9702,4.9625,4.9586,4.9567,4.9298,4.897,4.8627,4.7825,4.737,4.7184,4.6986,4.6565,4.6038,4.5632,4.5028,4.4369,4.4154,4.3828,4.3497,4.3497,4.3497,4.3497,4.3497,4.3497,4.3497,4.3497,4.3497,4.3497,4.3497,4.3497,4.3497,4.3497,4.3497,4.3497,4.3497,4.3497,4.3497,4.3497,4.3497,4.3497,4.3497,4.3497,4.305,4.1751,4.1996,4.181,4.0548,4.0453,4.0506,4.0506,3.9753,3.8964,3.8138,3.7848,3.766,3.7563,3.8237,3.8747,3.9057,4.0038,4.0546,4.0566,4.1835,4.2662,4.3028,4.2264,4.2381,0.0,0.0,0.0,0.0,0.0,0.0,0.0,0.0,3.5141,3.7873,3.9123,4.0354,4.2412,4.3489,4.4509,4.5874,4.6123,4.6161,4.6277,4.6219,4.6179,4.6189,4.6164,4.6236,4.6499,4.6947,4.735,4.7653,4.8105,4.8452,4.8606,4.926,4.9644,4.9644,5.0317,5.0702,5.0702,5.0837,5.0914,5.0928,5.1062,5.1132,5.1164,5.1125,5.1117,5.112,5.1101,5.1123,5.1068,5.0471,4.9836,4.9241,4.9332,4.9235,4.8991,4.8662,4.8143,4.7586,4.7264,4.6431,4.5488,4.5171,4.4448,4.3718,4.3718,4.3608,4.3497,4.3497,4.3497,4.3497,4.3497,4.3497,4.3497,4.3497,4.3497,4.3497,4.3497,4.3497,4.3497,4.3497,4.3497,4.3497,4.3497,4.3497,4.3497,4.3497,4.3497,4.3142,4.2103,4.2304,4.2122,4.1113,4.1216,4.1277,4.113,4.1111,4.0836,4.0175,4.0444,4.048,4.0108,4.0399,4.1053,4.2047,4.222,4.2624,4.3335,4.3508,4.3912,4.4547,4.4547,4.4547,3.0543,3.159,3.2737,3.4391,3.4353,3.5699,0.0,0.0,4.0585,4.3912,4.5297,4.599,4.6278,4.699,4.7605,4.7798,4.7912,4.8007,4.8026,4.7582,4.7234,4.7227,4.668,4.654,4.7204,4.7335,4.7913,4.922,4.9394,4.9721,5.0356,5.0491,5.0548,5.0548,5.0644,5.0702,5.0702,5.0837,5.0957,5.1081,5.1161,5.1256,5.1365,5.1247,5.1186,5.1178,5.112,5.1131,5.1183,5.1106,5.1086,5.109,5.1108,5.1035,5.0727,4.9219,4.8299,4.7761,4.7741,4.7112,4.6358,4.6326,4.5497,4.458,4.458,4.4066,4.3497,4.3497,4.3497,4.3497,4.3497,4.3497,4.3497,4.3497,4.3497,4.3497,4.3497,4.3497,4.3497,4.3497,4.3497,4.3497,4.3497,4.3497,4.3497,4.3497,4.3497,4.3286,4.2693,4.3051,4.3122,4.2528,4.2304,4.1882,4.1167,4.1111,4.1075,4.0983,4.1278,4.1565,4.1801,4.2148,4.2508,4.2951,4.3662,4.4066,4.4162,4.4932,4.5355,4.5451,4.5451,4.5451,3.5345,3.6402,0.0,0.0,3.9623,4.1527,4.422,4.4509,4.4759,4.6663,4.6971,4.6913,4.6913,4.7182,4.7413,0.0,4.7912,4.8326,4.8412,4.7824,4.739,4.739,4.6681,4.6494,4.7319,4.7703,4.8395,4.9529,4.999,5.0375,5.0683,5.0702,5.0914,5.1375,5.1472,5.151,5.151,5.1722,5.1604,5.1154,5.1258,5.1347,5.1406,5.1348,5.1324,5.1312,5.1293,5.1283,5.1312,5.1312,5.1339,5.1408,5.1398,5.1367,5.1229,5.0452,4.9964,4.9683,4.9371,4.8709,4.7954,4.7655,4.675,4.5656,4.5175,4.4657,4.4103,4.3626,4.3497,4.3497,4.3497,4.3497,4.3497,4.3497,4.3497,4.3497,4.3497,4.3497,4.3497,4.3497,4.3497,4.3497,4.3497,4.3497,4.3497,4.3497,4.3497,4.3304,4.2788,4.3178,4.341,4.3178,4.3082,4.2855,4.2525,4.2506,4.2506,4.2506,4.304,4.3412,4.3542,4.405,4.4401,4.4547,4.4893,4.5047,4.5047,4.5413,4.5586,4.5586,4.5586,4.5586,3.7702,0.0,0.0,4.1008,4.3605,4.5855,4.5432,4.6317,4.7413,4.799,4.7644,4.724,4.724,4.724,0.0,4.7605,4.8259,4.8844,4.9193,4.8377,4.7754,4.7754,4.6718,4.6451,4.753,4.8049,4.8741,4.9817,5.0394,5.0818,5.1068,5.1087,5.1472,5.2338,5.2473,5.2512,5.2505,5.2742,5.2531,5.1915,5.2051,5.2129,5.2129,5.2129,5.2129,5.2129,5.2129,5.1973,5.1758,5.1758,5.1621,5.1406,5.1406,5.1406,5.1387,5.1289,5.1193,5.1067,5.0681,5.0088,4.9431,4.8996,4.805,4.6941,4.633,4.569,4.5065,4.4475,4.4078,4.3828,4.3828,4.3663,4.3497,4.3497,4.3497,4.3497,4.3497,4.3497,4.3497,4.3497,4.3497,4.3497,4.3497,4.3497,4.3497,4.3497,4.3497,4.3375,4.2976,4.325,4.3497,4.3497,4.3497,4.3497,4.3497,4.3497,4.3497,4.3497,4.4213,4.458,4.458,4.5243,4.5586,4.5586,4.5586,4.5586,4.5586,4.5586,4.5586,4.5586,4.5586,4.572,0.0,0.0,4.1931,4.2797,4.497,4.7067,4.7817,4.8029,4.8067,4.8086,4.8086,4.8067,4.8067,4.8067,4.8375,4.9355,4.9644,5.0067,5.0991,4.9699,4.8658,4.8658,4.6966,4.6451,0.0,4.8279,4.8971,5.0548,5.0683,5.1106,5.2011,5.205,5.2512,5.3514,5.3551,5.3544,5.3545,5.3688,5.3745,5.3706,5.3852,5.3926,5.3926,5.3926,5.3926,5.3926,5.3926,5.3437,5.2656,5.2656,5.2168,5.1406,5.1406,5.1406,5.1406,5.1406,5.1308,5.1191,5.1171,5.0858,5.0433,5.0298,4.943,4.8427,4.8239,4.7387,4.6451,4.6432,4.5568,4.4672,4.4672,4.4085,4.3497,4.3497,4.3497,4.3497,4.3497,4.3497,4.3497,4.3497,4.3497,4.3497,4.3497,4.3497,4.3497,4.3497,4.3497,4.3479,4.3479,4.3479,4.3497,4.3497,4.3497,4.3497,4.3497,4.3497,4.3497,4.3497,4.4213,4.458,4.458,4.5243,4.5586,4.5586,4.5586,4.5586,4.5586,4.5586,4.5586,4.5586,4.5586,4.6047,0.0,0.0,4.3816,4.5259,4.7105,4.8625,4.8894,4.8952,4.8952,4.8952,4.7625,4.6432,4.6432,4.6432,4.6777,4.7776,4.8976,5.0119,5.1068,5.024,4.9297,4.8658,4.7911,0.0,0.0,0.0,0.0,5.0529,5.0702,5.1106,5.205,5.2646,5.3432,5.4427,5.4549,5.4593,5.4607,5.4723,5.4509,5.3923,5.3976,5.4004,5.4004,5.4004,5.4004,5.4004,5.4004,5.3828,5.3555,5.3555,5.3047,5.2266,5.2266,5.1914,5.1406,5.1406,5.1367,5.1328,5.123,5.1096,5.0945,5.0853,5.0325,4.9595,4.899,4.8289,4.7588,4.7042,4.6617,4.6233,4.5969,4.5278,4.4619,4.4356,4.3883,4.3497,4.3497,4.3497,4.3497,4.3497,4.3497,4.3497,4.3497,4.3497,4.3497,4.3497,4.3497,4.3497,4.3497,4.3497,4.3497,4.3497,4.3497,4.3497,4.3497,4.3497,4.3497,4.3497,4.4213,4.458,4.458,4.5243,4.5586,4.5586,4.5586,4.5586,4.5586,4.5586,4.5893,4.6471,4.6471,4.6913,0.0,4.4759,4.5643,4.7355,4.8836,4.9779,4.9471,4.9394,4.9144,4.8221,4.649,4.5047,4.4759,4.4451,4.4891,4.6851,4.8114,4.9382,5.0971,5.0414,4.974,4.9392,4.8951,0.0,0.0,0.0,0.0,5.0567,5.1241,5.1914,5.2608,5.3451,5.4427,5.5464,5.5579,5.565,5.5636,5.5723,5.5488,5.4922,5.4922,5.4922,5.4922,5.4922,5.4922,5.4922,5.4922,5.4746,5.4453,5.4453,5.3945,5.3164,5.3164,5.2637,5.1855,5.1855,5.168,5.1387,5.1308,5.1269,5.1268,5.1162,5.0899,5.0532,4.9987,4.9436,4.8903,4.8395,4.7896,4.7485,4.7207,4.6548,4.5828,4.5438,4.4967,4.4438,4.4009,4.392,4.3828,4.3552,4.3497,4.3497,4.3497,4.3497,4.3497,4.3497,4.3497,4.3497,4.3497,4.3497,4.3497,4.3497,4.3497,4.3497,4.3497,4.3497,4.3497,4.3497,4.4213,4.458,4.458,4.5243,4.5586,4.5586,4.5586,4.5586,4.5586,4.5913,4.6355,4.6913,4.7201,4.7778,4.4239,4.574,4.7432,4.9067,5.0087,5.0471,4.9606,4.9336,4.8548,4.599,4.4701,4.3778,0.0,0.0,4.2909,4.6465,4.71,4.8125,5.0875,5.0375,5.0029,0.0,0.0,0.0,0.0,0.0,0.0,5.0837,0.0,5.3337,5.3645,5.4502,5.5489,5.6562,5.6601,5.6601,5.6601,5.6601,5.6601,5.6601,5.6601,5.6601,5.6601,5.6601,5.6601,5.6601,5.6601,5.6133,5.5371,5.5371,5.4844,5.4062,5.4062,5.3535,5.2773,5.2773,5.2207,5.1465,5.1464,5.1425,5.1387,5.125,5.1211,5.1181,5.1121,5.074,5.0356,5.0337,4.9396,4.8418,4.839,4.7813,4.7108,4.67,4.6557,4.6225,4.5068,4.4799,4.456,4.3789,4.3605,4.3552,4.3552,4.3516,4.3497,4.3497,4.3497,4.3497,4.3497,4.3497,4.3497,4.3497,4.3497,4.3497,4.3497,4.3497,4.3497,4.3497,4.4213,4.458,4.458,4.5243,4.5586,4.5586,4.5624,4.5663,4.5663,4.6547,4.699,4.7048,4.7817,4.8625,4.6567,4.7932,4.9009,5.0087,5.0529,5.0471,4.9606,4.8432,4.6817,4.4259,4.2047,3.9931,3.7834,0.0,0.0,4.3088,4.596,0.0,5.1626,5.1702,0.0,0.0,0.0,5.2145,5.1933,5.2895,0.0,0.0,5.3107,5.3704,5.4533,5.5499,5.6194,5.6582,5.6601,5.6601,5.6601,5.6601,5.6601,5.6601,5.6601,5.6601,5.6601,5.6601,5.6601,5.6601,5.6601,5.6465,5.6269,5.6269,5.5742,5.4961,5.4961,5.4433,5.3672,5.3672,5.3125,5.2359,5.2247,5.1857,5.1387,5.1367,5.1289,5.119,5.118,5.1051,5.0881,5.0776,5.0507,5.0144,4.9739,4.9042,4.834,4.7957,4.7372,4.6864,4.6542,4.6234,4.5974,4.5788,4.5007,4.4397,4.4397,4.3901,4.3497,4.3497,4.3497,4.3497,4.3497,4.3497,4.3497,4.3497,4.3497,4.3497,4.3497,4.3497,4.3497,4.3497,4.4213,4.458,4.458,4.5243,4.5586,4.5586,4.624,4.6567,4.6567,4.7394,4.8125,4.8779,4.8971,4.9529,4.8182,4.9317,5.0087,5.0567,5.0414,4.9606,4.7625,4.6163,4.4201,4.0527,3.8623,0.0,3.4757,0.0,0.0,0.0,0.0,0.0,5.1318,5.1875,5.2299,0.0,5.353,0.0,5.3587,5.4453,5.4876,0.0,5.4493,5.4648,5.4978,5.588,5.6466,5.6601,5.6601,5.6601,5.6601,5.6601,5.6601,5.6601,5.6601,5.6601,5.6601,5.6601,5.6601,5.6601,0.0,5.6601,5.6601,5.6601,5.6308,5.5879,5.5879,5.5332,5.4569,5.4495,5.3691,5.2582,5.2466,5.1909,5.1273,5.1274,5.121,5.1164,5.1189,5.1157,5.1089,5.1045,5.101,5.0894,5.0536,5.0131,4.9663,4.9195,4.8757,4.8275,4.7737,4.7466,4.7177,4.6821,4.6228,4.5741,4.5741,4.5382,4.5021,4.4846,4.4831,4.4653,4.4101,4.3718,4.3497,4.3497,4.3497,4.3497,4.3497,4.3497,4.3497,4.3497,4.4213,4.4775,4.5115,4.5797,4.6336,4.6682,4.7182,4.7432,4.7432,4.8259,4.8913,4.9413,4.9779,5.0221,4.9336,5.0106,5.0702,5.0702,5.0029,4.849,4.5086,4.3489,4.1316,3.6219,0.0,3.4295,3.2564,3.5122,3.8127,4.0041,0.0,4.7567,5.0471,5.1471,5.2549,5.428,5.4587,5.4934,5.5626,5.5703,5.5761,5.5876,5.5921,5.575,5.5306,5.6001,5.6466,5.6601,5.6601,5.6601,5.6601,5.6601,5.6601,5.6601,5.6601,5.6601,5.6601,5.6601,5.6601,5.6601,0.0,0.0,5.6601,5.6601,5.6601,5.6601,5.6601,5.6131,5.5415,5.5178,5.405,5.2608,5.2356,5.1741,5.1086,5.1082,5.11,5.1103,5.1171,5.1144,5.111,5.1172,5.1137,5.1059,5.0968,5.0933,5.0797,5.0329,5.0221,4.9921,4.8844,4.8586,4.8304,4.7559,4.7332,4.7257,4.7257,4.7162,4.6949,4.6551,4.6488,4.6085,4.5018,4.4158,4.3608,4.3497,4.3497,4.3534,4.3644,4.3644,4.3699,4.3809,4.4472,4.5168,4.5946,4.6615,4.7338,4.8086,4.8221,4.8279,4.8279,4.9144,4.9567,4.9586,5.0337,5.0702,5.0143,5.0567,5.0702,5.0702,5.0029,4.849,4.5086,4.2547,0.0,0.0,0.0,3.0775,2.9083,3.2102,0.0,3.807,0.0,0.0,0.0,0.0,5.2549,0.0,0.0,0.0,0.0,0.0,0.0,0.0,0.0,0.0,5.6171,5.6417,5.6588,5.6601,5.6601,5.6601,5.6601,5.6601,5.6601,5.6601,5.6601,5.6601,5.6601,5.6601,5.6601,5.6601,0.0,0.0,5.6601,5.6601,5.6601,5.6601,5.6601,5.6445,5.6132,5.5384,5.438,5.3301,5.2433,5.1606,5.0933,5.1065,5.1101,5.1082,5.1109,5.112,5.1089,5.1109,5.1107,5.1089,5.1064,5.1076,5.101,5.0816,5.0758,5.0661,5.035,5.0019,4.9657,4.9164,4.8551,4.8079,4.8079,4.754,4.6949,4.657,4.6488,4.629,4.5772,4.5002,4.425,4.3552,4.3497,4.3754,4.4452,4.4488,4.4782,4.5443,4.5871,4.6282,4.6787,4.7167,4.7618,4.8105,4.8817,4.9163,4.9183,5.0048,5.0471,5.0471,5.0625,5.0702,5.0106,5.0544,5.0587,5.0144,4.9048,4.699,4.2681,0.0,0.0,0.0,0.0,2.8582,2.6871,0.0,0.0,0.0,0.0,0.0,0.0,0.0,0.0,0.0,0.0,0.0,0.0,0.0,0.0,0.0,0.0,0.0,5.6397,5.6464,5.6527,5.6601,5.6523,5.6523,5.6601,5.6601,5.6601,5.6601,5.6601,5.6601,5.6601,5.6601,5.6601,5.6601,5.6601,0.0,5.6601,5.6601,5.6601,5.6581,5.6519,5.6194,5.5652,5.5112,5.4014,5.2723,5.2184,5.1472,5.0759,5.0615,5.0717,5.0914,5.0972,5.0984,5.1015,5.1081,5.1106,5.1105,5.1096,5.1089,5.1074,5.1023,5.0999,5.0972,5.0837,5.064,5.0435,5.0178,4.9792,4.9549,4.9549,4.9224,4.8843,4.8445,4.82,4.7748,4.6916,4.6303,4.5645,4.4819,4.4745,4.4911,4.5296,4.5333,4.5498,4.5883,4.6231,4.6782,4.7636,4.7992,4.8589,4.9452,4.9856,5.0067,5.0067,5.0491,5.0702,5.0702,5.0702,5.0914,4.9512,5.0138,5.0353,4.9489,4.8087,4.5566,4.045,3.718,0.0,0.0,2.7601,2.6986,2.5813,0.0,0.0,0.0,0.0,0.0,0.0,0.0,0.0,0.0,0.0,0.0,0.0,0.0,0.0,0.0,0.0,0.0,5.6397,5.6368,5.6422,5.6519,5.6406,5.6421,5.6562,5.6562,5.6562,5.6601,5.6601,5.6601,5.6601,5.6601,5.6601,5.6601,5.6601,0.0,0.0,5.6601,5.6575,5.6542,5.6435,5.5824,5.4959,5.4571,5.3435,5.2011,5.1642,5.1102,5.0523,5.0092,5.0249,5.0584,5.0598,5.0657,5.0758,5.0894,5.0987,5.1053,5.1088,5.1093,5.1093,5.1096,5.1095,5.1061,5.0964,5.0931,5.0875,5.076,5.0721,5.0702,5.0702,5.0702,5.0565,5.0159,4.9827,4.9248,4.8215,4.7747,4.7242,4.6598,4.6158,4.5975,4.614,4.6159,4.6232,4.6397,4.6664,4.7322,4.8504,4.8814,4.9496,5.0683,5.0702,5.0702,5.0702,5.0702,5.0702,5.0702,5.0875,5.1298,4.8353,4.9283,4.9949,4.9067,4.7871,4.5566,4.045,0.0,0.0,2.8794,2.664,2.5726,2.637,2.7505,0.0,0.0,0.0,0.0,0.0,0.0,0.0,0.0,0.0,0.0,0.0,0.0,0.0,0.0,0.0,0.0,0.0,5.6287,5.6218,5.6252,5.622,5.6283,5.6426,5.6426,5.6484,5.6601,5.6601,5.6601,5.6601,5.6601,5.6601,5.6601,0.0,0.0,0.0,5.6601,5.6535,5.6425,5.6402,5.5705,5.4648,5.382,5.2838,5.1758,5.0654,5.0217,5.0092,4.9692,4.9827,5.0092,4.9738,4.9872,5.0187,5.0334,5.0644,5.0951,5.1064,5.1108,5.1101,5.1093,5.1102,5.1092,5.1072,5.0979,5.0914,5.0895,5.0779,5.0702,5.0702,5.0702,5.0565,5.0159,5.0068,4.986,4.9409,4.8963,4.8699,4.8624,4.6999,4.6195,4.6948,4.7003,4.7315,4.8031,4.8124,4.8507,4.9361,4.9419,4.9829,5.0683,5.0702,5.0702,5.0702,5.0702,5.0702,5.0721,5.1452,5.1837,4.7348,4.8475,4.8852,4.8172,4.6879,4.4499,3.9631,0.0,3.2372,2.8659,2.6505,2.5399,2.5745,2.6524,2.8005,0.0,3.2122,3.4699,0.0,0.0,0.0,0.0,0.0,0.0,0.0,0.0,0.0,0.0,0.0,0.0,0.0,5.6058,5.6058,5.6205,5.6077,5.6094,5.6272,5.6288,5.6352,5.6484,5.6484,5.6523,5.6601,5.6601,5.6601,5.6601,0.0,0.0,0.0,5.6601,5.653,5.6379,5.6302,5.5301,5.3858,5.3435,5.2214,5.0753,5.0274,4.9949,4.9673,4.9265,4.9265,4.9367,4.9475,4.9589,4.9754,4.9791,5.0121,5.0438,5.0586,5.085,5.1106,5.1094,5.1131,5.1141,5.1102,5.1082,5.1064,5.1026,5.0991,5.0952,5.0952,5.0952,5.0894,5.0734,5.05,5.0246,4.9996,4.9629,4.9351,4.9246,4.8118,4.748,4.781,4.7829,4.7976,4.8288,4.8306,4.8676,4.9475,4.9504,4.9898,5.0683,5.0702,5.0702,5.0702,5.0702,5.0952,5.1433,5.176,5.2472,4.5421,4.6912,4.7608,4.6978,4.5546,4.3056,0.0,0.0,3.1583,2.8217,2.6332,2.5303,2.5303,2.5813,2.6851,2.8794,3.0044,3.2564,3.7661,0.0,0.0,0.0,0.0,0.0,0.0,0.0,0.0,0.0,0.0,0.0,0.0,5.5838,5.5895,5.6051,5.5895,5.5915,5.6109,5.6101,5.6208,5.6394,5.6398,5.6465,5.6601,5.6601,5.6601,5.6601,0.0,0.0,0.0,5.6563,5.6453,5.6308,5.5902,5.4762,5.33,5.2953,5.167,5.0068,4.9949,4.9645,4.9265,4.8829,4.8709,4.8779,4.9062,4.9234,4.9326,4.9326,4.9617,4.9961,5.0189,5.0546,5.0893,5.1023,5.1122,5.1157,5.1109,5.1148,5.1157,5.1113,5.1111,5.1093,5.1093,5.1093,5.1093,5.1093,5.0861,5.0648,5.0552,5.0197,4.9915,4.9796,4.9146,4.8655,4.8477,4.8495,4.8421,4.8306,4.8421,4.8779,4.9475,4.9617,4.9999,5.0683,5.0702,5.0702,5.0702,5.0933,5.1356,5.1914,5.2433,5.3453,4.2121,4.4383,4.6302,4.5432,4.3856,4.1434,0.0,3.388,3.0737,2.7313,2.5909,2.5303,2.5303,2.5303,2.614,2.8679,3.0564,3.3468,3.8565,0.0,0.0,0.0,0.0,0.0,0.0,0.0,0.0,0.0,0.0,0.0,0.0,5.5703,5.5703,5.5703,5.5703,5.5761,5.5895,5.5898,5.6071,5.6402,5.64,5.6465,5.6601,5.6601,5.6601,0.0,0.0,0.0,0.0,5.6455,5.6319,5.61,5.5092,5.4108,5.3106,5.2241,5.113,5.0043,4.9645,4.9234,4.8829,4.8421,4.8306,4.8306,4.8306,4.8604,4.8897,4.8897,4.9202,4.9608,4.9999,5.0208,5.0414,5.0818,5.0991,5.1099,5.11,5.1108,5.1094,5.1094,5.1093,5.1103,5.1103,5.1103,5.1103,5.1103,5.1103,5.1084,5.1084,5.0732,5.0491,5.0491,4.9992,4.9485,4.8945,4.8897,4.8709,4.8344,4.8657,4.9075,4.9475,4.9898,5.0272,5.0683,5.0702,5.0702,5.0702,5.151,5.1895,5.1952,5.3664,5.4914,3.7826,3.9252,4.0059,3.8912,3.8171,3.6861,3.3646,3.1679,2.978,2.7138,2.5909,2.5303,2.5303,2.5303,2.6514,3.0275,3.1333,0.0,0.0,0.0,0.0,0.0,0.0,0.0,0.0,0.0,0.0,0.0,0.0,0.0,0.0,0.0,5.5703,5.5703,5.5703,5.5722,5.5761,5.5761,5.5857,5.6051,5.6205,5.6324,5.6465,5.6562,0.0,0.0,0.0,0.0,0.0,5.6425,5.5923,5.5148,5.4804,5.3539,5.1882,5.1595,5.0537,4.9265,4.9139,4.8813,4.8495,4.8326,4.8035,4.7656,4.7656,4.8078,4.855,4.8829,4.8978,4.9171,4.9589,4.9717,4.9777,4.9917,5.0275,5.0548,5.0554,5.0835,5.1093,5.1094,5.1099,5.1103,5.116,5.1171,5.119,5.1288,5.1307,5.1268,5.1171,5.1065,5.0969,5.0914,5.0763,5.0335,4.9522,4.9359,4.9265,4.9126,4.9234,4.9504,4.9898,5.0043,5.0272,5.0683,5.0702,5.0971,5.1529,5.1779,5.251,5.3703,5.4799,5.5453,0.0,3.5257,3.591,3.5125,3.4511,3.3496,3.1146,2.9766,2.8408,2.6416,2.5524,2.5126,2.5182,2.5192,2.6277,2.9595,3.0657,0.0,0.0,0.0,0.0,0.0,0.0,0.0,0.0,0.0,0.0,0.0,0.0,0.0,0.0,0.0,5.5241,5.5241,5.553,5.5703,5.5703,5.5703,5.5761,5.5917,5.6029,5.6193,5.6406,5.6484,0.0,0.0,0.0,0.0,0.0,5.5923,5.534,5.4628,5.3916,5.2689,5.1261,5.095,5.0005,4.8897,4.8897,4.864,4.8267,4.8035,4.753,4.6999,4.6999,4.7281,4.762,4.7892,4.7952,4.8125,4.8766,4.8931,4.9033,4.9397,4.9758,5.0,5.0,5.0298,5.0623,5.0773,5.0843,5.0945,5.1137,5.1152,5.1183,5.1261,5.1281,5.1261,5.1164,5.1164,5.1142,5.1105,5.1054,5.0816,5.0268,5.0016,4.9796,4.9589,4.9721,4.9895,5.0092,5.0249,5.0481,5.076,5.1068,5.1491,5.2049,5.2723,5.3762,5.5145,5.5645,5.5876,0.0,3.2063,3.3256,3.3146,3.2218,3.0921,2.9334,2.8051,0.0,2.5298,2.4891,2.4884,2.5178,2.517,2.5774,2.7872,0.0,0.0,0.0,0.0,0.0,0.0,0.0,0.0,0.0,0.0,0.0,0.0,0.0,0.0,0.0,0.0,5.4414,5.4414,5.5126,5.5511,5.5511,5.5511,5.5568,5.5703,5.5703,5.5879,5.6188,5.621,0.0,0.0,0.0,0.0,0.0,5.4977,5.4551,5.428,5.2547,5.1568,5.1053,5.0285,4.9532,4.8863,4.8863,4.8586,4.8132,4.747,4.6864,4.6336,4.6288,4.6336,4.6383,4.6383,4.6383,4.6628,4.762,4.7897,4.8107,4.9064,4.93,4.9348,4.9397,4.9504,4.9746,5.0157,5.0335,5.0567,5.0932,5.101,5.1003,5.1011,5.1033,5.1063,5.1063,5.1083,5.1102,5.1102,5.0995,5.0965,5.1088,5.075,5.0315,4.982,5.0152,5.031,5.0174,5.0542,5.0779,5.0914,5.178,5.23,5.2492,5.4169,5.5421,5.621,5.6193,5.6174,2.5695,0.0,2.8007,2.6759,2.6675,2.6726,0.0,2.5972,2.5874,2.5146,0.0,0.0,2.7261,2.6726,0.0,0.0,0.0,0.0,0.0,0.0,0.0,0.0,0.0,0.0,0.0,0.0,0.0,0.0,0.0,0.0,0.0,0.0,5.351,5.351,5.3683,5.3799,5.3799,5.3799,5.3799,5.3837,5.3953,5.4015,5.4123,5.4217,0.0,0.0,0.0,0.0,5.405,5.3803,5.3059,5.2069,5.1606,5.0643,4.9446,4.9259,4.8863,4.8458,4.8458,4.8078,4.7428,4.6305,4.5833,4.5648,4.5178,4.5699,4.6383,4.6383,4.6383,4.646,4.6702,4.6775,4.682,4.7075,4.7347,4.7732,4.8237,4.8621,4.902,4.9578,4.9717,4.9789,5.0011,5.0038,5.0065,5.0169,5.043,5.0636,5.0636,5.0924,5.1097,5.1097,5.1073,5.1083,5.1106,5.0918,5.08,5.0765,5.0873,5.0889,5.0872,5.0952,5.1029,5.1049,5.2506,5.3584,5.4284,5.5378,5.6006,5.6201,5.6047,5.5967,2.419,2.564,2.6943,2.6062,2.6172,2.6438,2.6228,0.0,0.0,0.0,0.0,0.0,0.0,0.0,0.0,0.0,0.0,0.0,0.0,0.0,0.0,0.0,0.0,0.0,0.0,0.0,0.0,0.0,0.0,0.0,0.0,0.0,5.2318,5.2318,5.216,5.2414,5.3203,5.3203,5.3203,5.3203,5.328,5.3337,5.3396,5.3478,0.0,0.0,0.0,0.0,5.2992,5.259,5.1888,5.1049,5.0624,4.9852,4.8897,4.8897,4.8476,4.7897,4.7897,4.7281,4.6401,4.5732,4.532,4.5052,4.472,4.5052,4.5545,4.5545,4.5545,4.5648,4.5933,4.5965,4.6063,4.6336,4.6557,4.6802,4.7204,4.7443,4.773,4.8271,4.8342,4.8531,4.9093,4.92,4.9324,4.9655,4.9891,5.0045,5.0045,5.0236,5.0459,5.0632,5.0632,5.0734,5.0991,5.0936,5.0936,5.1008,5.101,5.0984,5.0927,5.0927,5.1297,5.2134,5.3506,5.4628,5.5507,5.5975,5.621,5.619,5.6094,5.6049,2.4502,2.641,2.8191,2.7585,2.7714,2.7938,2.7702,0.0,0.0,0.0,0.0,0.0,0.0,0.0,0.0,0.0,0.0,0.0,0.0,0.0,0.0,0.0,0.0,0.0,0.0,0.0,0.0,0.0,0.0,0.0,0.0,0.0,0.0,5.1103,5.0785,5.1316,5.2799,5.2818,5.2818,5.2818,5.2818,5.2896,5.2993,5.2993,5.2993,0.0,0.0,0.0,5.2158,5.1364,5.0825,5.0444,4.9698,4.9171,4.8813,4.8707,4.8141,4.7385,4.7194,4.6401,4.5494,4.5407,4.4998,4.4587,4.4587,4.4514,4.4384,4.4384,4.4384,4.4536,4.5232,4.525,4.5321,4.5947,4.6161,4.6143,4.624,4.624,4.6377,4.6819,4.6931,4.721,4.8107,4.827,4.8447,4.8963,4.9077,4.914,4.9258,4.93,4.9523,4.9974,5.0019,5.0197,5.0636,5.0677,5.0698,5.0694,5.0849,5.0881,5.0761,5.0878,5.1734,5.3409,5.4402,5.5333,5.62,5.62,5.62,5.62,5.6161,5.6149,2.586,2.8484,3.0026,2.6633,2.7291,2.8493,2.7321,0.0,0.0,0.0,0.0,0.0,0.0,0.0,0.0,0.0,0.0,0.0,0.0,0.0,0.0,0.0,0.0,0.0,0.0,0.0,0.0,0.0,0.0,0.0,0.0,0.0,0.0,5.0283,5.0217,5.0492,5.1068,5.1068,5.1068,5.1068,5.1068,5.1087,5.1126,5.1126,5.1126,0.0,0.0,5.056,5.0449,4.9974,4.9544,4.9164,4.9034,4.8763,4.8345,4.7802,4.7536,4.7255,4.6161,4.5648,4.5425,4.4906,4.4682,4.4587,4.4587,4.4064,4.3502,4.3502,4.3502,4.368,4.4536,4.4202,4.3823,4.4669,4.4869,4.4998,4.5511,4.5648,4.5815,4.6377,4.6518,4.6547,4.6712,4.6757,4.6757,4.6847,4.7181,4.7594,4.8145,4.8537,4.8952,4.9514,4.9589,4.9636,4.9711,4.9711,4.9709,4.9714,5.0565,5.1059,5.1051,5.1694,5.2526,5.355,5.4439,5.5345,5.6194,5.6194,5.6194,5.6194,5.6039,5.5941,2.4465,2.6998,2.9108,2.7695,2.9824,3.196,3.0886,0.0,0.0,0.0,0.0,0.0,0.0,0.0,0.0,0.0,0.0,0.0,0.0,0.0,0.0,0.0,0.0,0.0,0.0,0.0,0.0,0.0,0.0,0.0,0.0,0.0,0.0,0.0,4.9879,5.0183,5.0358,5.0604,5.0702,5.0702,5.0702,5.0702,5.0702,5.0702,5.0565,5.0377,0.0,4.9853,4.9445,4.9265,4.8739,4.8102,4.844,4.8023,4.7176,4.6589,4.6353,4.6257,4.532,4.4998,4.4889,4.4162,4.3889,4.3814,4.335,4.2909,4.2583,4.2583,4.2583,4.2707,4.3092,4.2909,4.2707,4.3092,4.3213,4.3393,4.4118,4.4288,4.4512,4.5303,4.5407,4.5545,4.5883,4.5915,4.5996,4.6336,4.6575,4.6793,4.7093,4.7277,4.7727,4.8612,4.868,4.8917,4.9445,4.9504,4.9504,4.9504,4.9967,5.0239,5.0239,5.1453,5.2425,5.3058,5.4341,5.5202,5.561,5.561,5.5492,5.529,5.5195,5.5157,2.3694,2.564,2.775,2.8737,0.0,3.367,3.4009,0.0,0.0,0.0,0.0,0.0,0.0,0.0,0.0,0.0,0.0,0.0,0.0,0.0,0.0,0.0,0.0,0.0,0.0,0.0,0.0,0.0,0.0,0.0,0.0,0.0,0.0,0.0,4.9504,4.9924,5.0092,5.0399,5.0604,5.0702,5.0702,5.0702,5.0702,5.0702,5.0483,5.0092,4.9999,4.9561,4.8897,4.8637,4.8102,4.7428,4.7756,4.7176,4.6143,4.5699,4.5407,4.5232,4.4759,4.4457,4.4196,4.3502,4.3169,4.2847,4.2189,4.1869,4.1674,4.1674,4.1543,4.1478,4.1869,4.1869,4.1739,4.1933,4.1997,4.2189,4.2847,4.2986,4.3169,4.3873,4.3989,4.4128,4.4589,4.4824,4.5146,4.5594,4.583,4.6014,4.6143,4.6192,4.6564,4.7538,4.762,4.7994,4.8936,4.9152,4.9152,4.9019,4.9337,4.9504,4.9504,5.1107,5.2124,5.2448,5.4123,5.4952,5.4952,5.4952,5.479,5.4503,5.4503,5.4503,2.5731,2.6521,2.7071,2.859,0.0,0.0,3.4073,3.3091,0.0,0.0,0.0,0.0,0.0,0.0,0.0,0.0,0.0,0.0,0.0,0.0,0.0,0.0,0.0,0.0,0.0,0.0,0.0,0.0,0.0,0.0,0.0,0.0,0.0,0.0,0.0,4.9337,5.0092,5.0135,5.0336,5.0702,5.0702,5.0702,5.0702,5.0702,5.0483,5.0068,4.9719,4.9295,4.8829,4.7868,4.747,4.7342,4.6756,4.6161,4.5545,4.5511,4.5142,4.4682,4.4643,4.4064,4.3366,4.3306,4.2785,4.2062,4.1997,4.1412,4.0811,4.0811,4.0185,3.9935,4.1609,4.1412,4.1013,4.1804,4.1997,4.1997,4.2062,4.2062,4.2125,4.2189,4.2189,4.2189,4.2236,4.2937,4.3469,4.3512,4.4202,4.4961,4.5511,4.5545,4.5815,4.646,4.6507,4.6783,4.7476,4.8078,4.8174,4.7578,4.877,4.9504,4.9504,5.1107,5.2024,5.2054,5.3697,5.4535,5.4535,5.4535,5.4535,5.4503,5.4503,5.4503,2.3803,2.5474,2.7108,2.9237,0.0,0.0,0.0,0.0,0.0,0.0,0.0,0.0,0.0,0.0,0.0,0.0,0.0,0.0,0.0,0.0,0.0,0.0,0.0,0.0,0.0,0.0,0.0,0.0,0.0,0.0,0.0,0.0,0.0,0.0,0.0,4.88,4.8604,4.8861,4.8903,4.8788,5.0085,5.0702,5.0683,5.0442,5.0092,4.9719,4.9295,4.867,4.7947,4.7536,4.691,4.6178,4.5511,4.5372,4.539,4.4456,4.4316,4.444,4.335,4.3092,4.3108,4.2062,4.1478,4.108,4.0585,4.0115,3.9864,3.9864,3.9666,3.9538,4.0185,4.013,3.999,4.0324,4.0378,4.0516,4.108,4.1213,4.1346,4.1869,4.1997,4.1997,4.1997,4.2252,4.252,4.252,4.3229,4.3839,4.4078,4.4635,4.5178,4.5783,4.6192,4.6664,4.7342,4.7237,4.7176,4.7385,4.7889,4.8438,4.8897,5.0021,5.1176,5.236,5.3503,5.4048,5.4048,5.3647,5.3286,5.2978,5.2565,5.2371,2.2941,2.4679,2.6585,0.0,0.0,0.0,0.0,0.0,0.0,0.0,0.0,0.0,0.0,0.0,0.0,0.0,0.0,0.0,0.0,0.0,0.0,0.0,0.0,0.0,0.0,0.0,0.0,0.0,0.0,0.0,0.0,0.0,0.0,0.0,0.0,0.0,4.7346,4.759,4.7634,4.7457,4.8892,4.9616,4.9717,4.9691,4.925,4.8555,4.8525,4.7961,4.7006,4.6773,4.6124,4.5178,4.4759,4.4669,4.4678,4.3689,4.3486,4.3604,4.2379,4.2189,4.2252,4.108,4.0485,4.0185,3.961,3.9424,3.9424,3.9424,3.9424,3.9424,3.9424,3.9424,3.9424,3.9424,3.9424,3.9538,4.0185,4.0309,4.0447,4.1095,4.1162,4.1162,4.1162,4.1412,4.1609,4.1609,4.2316,4.2909,4.2909,4.3426,4.4054,4.4732,4.5596,4.6288,4.6774,4.6571,4.6524,4.6774,4.6819,4.7114,4.7878,4.89,5.0081,5.1397,5.2403,5.2955,5.2955,5.2496,5.2108,5.1741,5.1292,5.1086,2.3894,2.4496,2.5386,0.0,0.0,0.0,0.0,0.0,0.0,0.0,0.0,0.0,0.0,0.0,0.0,0.0,0.0,0.0,0.0,0.0,0.0,0.0,0.0,0.0,0.0,0.0,0.0,0.0,0.0,0.0,0.0,0.0,0.0,0.0,0.0,0.0,4.647,4.647,4.6667,4.7068,4.7068,4.7252,4.7617,4.8433,4.7924,4.6525,4.7313,4.7131,4.6128,4.5445,4.4935,4.457,4.457,4.4064,4.3306,4.3306,4.2707,4.1997,4.1997,4.1412,4.069,4.069,4.0115,3.9424,3.9424,3.9424,3.9424,3.9424,3.9424,3.9424,3.9424,3.9424,3.9424,3.9424,3.9424,3.9424,3.9424,3.9424,3.9424,3.9424,3.9424,3.9424,3.9424,4.0115,4.069,4.069,4.1412,4.1997,4.1997,4.1997,4.2316,4.3185,4.4623,4.5494,4.5511,4.6046,4.6143,4.5563,4.5494,4.5783,4.6383,4.7935,4.8785,4.8785,5.0307,5.1086,5.1086,5.1086,5.1086,5.1086,5.1086,5.1086,2.2557,2.4825,0.0,0.0,0.0,0.0,0.0,0.0,0.0,0.0,0.0,0.0,0.0,0.0,0.0,0.0,0.0,0.0,0.0,0.0,0.0,0.0,0.0,0.0,0.0,0.0,0.0,0.0,0.0,0.0,0.0,0.0,0.0,0.0,0.0,0.0,4.5231,4.5213,4.5134,4.4934,4.4934,4.5735,4.7238,4.7194,4.6941,4.6475,4.603,4.5432,4.468,4.4158,4.3508,4.2966,4.3481,4.3169,4.2316,4.1674,4.1674,4.1804,4.0585,4.0378,4.0622,3.999,3.961,3.9424,3.9424,3.9424,3.9424,3.9424,3.9424,3.9424,3.9424,3.9424,3.9424,3.9424,3.9424,3.9424,3.9424,3.9424,3.9424,3.9424,3.9424,3.9424,3.9424,3.961,3.9809,3.9809,4.05,4.128,4.1933,4.252,4.2986,4.3246,4.4259,4.5052,4.5459,4.5284,4.5232,4.5494,4.5089,4.5365,4.655,4.7596,4.8574,4.9649,5.0573,5.1086,5.1086,5.0554,5.0352,5.0279,4.9838,4.9639,2.3545,0.0,0.0,0.0,0.0,0.0,0.0,0.0,0.0,0.0,0.0,0.0,0.0,0.0,0.0,0.0,0.0,0.0,0.0,0.0,0.0,0.0,0.0,0.0,0.0,0.0,0.0,0.0,0.0,0.0,0.0,0.0,0.0,0.0,0.0,0.0,4.4232,4.4213,4.4076,4.3804,4.3804,4.4463,4.569,4.5886,4.5741,4.5268,4.4512,4.3889,4.3285,4.3031,4.2673,4.2226,4.2385,4.1922,4.1087,4.02,4.0002,4.0002,3.9007,3.9103,3.9703,3.9204,3.9185,3.9424,3.9424,3.9424,3.9424,3.9424,3.9424,3.9424,3.9424,3.9424,3.9424,3.9424,3.9424,3.9424,3.9424,3.9424,3.9424,3.9424,3.9424,3.9424,3.9424,3.9424,3.9424,3.9424,3.9864,4.0378,4.0894,4.1997,4.2785,4.2785,4.3873,4.4776,4.5089,4.4814,4.4776,4.5142,4.4502,4.4444,4.5324,4.6329,4.7307,4.8169,4.9222,4.9889,5.0258,4.9838,4.9622,4.9563,4.9212,4.9001,0.0,0.0,0.0,0.0,0.0,0.0,0.0,0.0,0.0,0.0,0.0,0.0,0.0,0.0,0.0,0.0,0.0,0.0,0.0,0.0,0.0,0.0,0.0,0.0,0.0,0.0,0.0,0.0,0.0,0.0,0.0,0.0,0.0,0.0,0.0,0.0,4.3497,4.3497,4.3497,0.0,4.3497,4.3497,4.355,4.4578,4.4406,4.3304,4.2959,4.2454,4.1954,4.2125,4.2132,4.19,4.1326,4.0502,3.9563,3.8838,3.8101,3.7404,3.7404,3.7808,3.8302,3.8302,3.8721,3.9245,3.9245,3.9245,3.9245,3.9245,3.9275,3.9334,3.9334,3.9364,3.9424,3.9424,3.9424,3.9424,3.9424,3.9424,3.9424,3.9424,3.9424,3.9424,3.9424,3.9424,3.9424,3.9424,3.9424,3.9424,3.9424,4.0842,4.1869,4.1869,4.335,4.4384,4.4384,4.4384,4.4384,4.4384,4.3621,4.3169,4.3047,4.4486,4.5304,4.5351,4.6848,4.8015,4.8861,4.894,4.9001,4.9001,4.9001,4.894,0.0,2.6107,0.0,0.0,0.0,0.0,0.0,0.0,0.0,0.0,0.0,0.0,0.0,0.0,0.0,0.0,0.0,0.0,0.0,0.0,0.0,0.0,0.0,0.0,0.0,0.0,0.0,0.0,0.0,0.0,0.0,0.0,0.0,0.0,0.0,4.3497,4.3497,4.3497,4.3497,0.0,4.3497,4.3497,4.3497,4.3747,4.3233,4.2144,4.2055,4.144,4.056,4.1171,4.0662,3.9606,4.0038,3.9267,3.7901,3.7714,3.7526,3.7404,3.7404,3.7494,3.7629,3.7629,3.7719,3.7838,3.7838,3.7838,3.7838,3.7838,3.8212,3.8616,3.8616,3.902,3.9424,3.9424,3.9424,3.9424,3.9424,3.9424,3.9424,3.9424,3.9424,3.9424,3.9424,3.9424,3.9424,3.9424,3.9424,3.9424,3.9424,4.0309,4.1013,4.1013,4.1933,4.2567,4.2567,4.2567,4.2567,4.2567,4.2379,4.1997,4.128,4.3291,4.4377,4.4377,4.6503,4.7721,4.7868,4.8639,4.9001,4.9001,4.9001,4.8576,0.0,0.0,0.0,0.0,0.0,0.0,0.0,0.0,0.0,0.0,0.0,0.0,0.0,0.0,0.0,0.0,0.0,0.0,0.0,0.0,0.0,0.0,0.0,0.0,0.0,0.0,0.0,0.0,0.0,0.0,0.0,0.0,0.0,0.0,4.3497,4.3497,4.3497,4.3497,4.3375,4.3142,4.3142,4.2958,4.2696,4.2995,4.2483,4.1358,4.1358,4.0891,4.0104,4.0493,3.9967,3.8845,3.8868,3.8106,3.6945,3.661,3.6492,3.6492,3.6492,3.6701,3.6971,3.6971,3.7165,3.7404,3.7404,3.7404,3.7404,3.7404,3.7659,3.7913,3.7913,3.8422,3.8931,3.8931,3.9185,3.9424,3.9424,3.9424,3.9424,3.9424,3.9424,3.9424,3.9424,3.9424,3.9424,3.9424,3.9424,3.9424,3.9424,4.0185,4.069,4.069,4.1478,4.1997,4.1997,4.1997,4.1997,4.1997,4.1609,4.1147,4.0758,4.1767,4.2693,4.3479,4.5346,4.647,4.6952,4.744,4.7655,4.7655,4.7655,4.7373,0.0,0.0,0.0,0.0,0.0,0.0,0.0,0.0,0.0,0.0,0.0,0.0,0.0,0.0,0.0,0.0,0.0,0.0,0.0,0.0,0.0,0.0,0.0,0.0,0.0,0.0,0.0,0.0,0.0,0.0,0.0,0.0,4.3375,4.3375,4.3444,4.3497,4.3497,4.3497,4.3214,4.2711,4.2616,4.2203,4.1664,4.2162,4.1835,4.0903,4.0903,4.0625,4.007,3.9952,3.9437,3.8635,3.7921,3.71,3.6337,3.5733,3.5504,3.5504,3.5504,3.5863,3.6312,3.6082,3.6507,3.7007,3.6856,3.6924,3.7075,3.7075,3.7165,3.724,3.724,3.7734,3.8257,3.8362,3.8826,3.9275,3.9394,3.9424,3.9424,3.9424,3.9424,3.9424,3.9424,3.9424,3.9337,3.9177,3.9104,3.9031,3.8855,3.9489,4.0008,4.0178,4.0831,4.138,4.1543,4.1543,4.1543,4.1543,4.0894,4.05,4.05,4.0444,4.1064,4.235,4.3855,4.5102,4.5977,4.6103,4.6173,4.6173,4.6173,4.6103,0.0,0.0,0.0,0.0,0.0,0.0,0.0,0.0,0.0,0.0,0.0,0.0,0.0,0.0,0.0,0.0,0.0,0.0,0.0,0.0,0.0,0.0,0.0,0.0,0.0,0.0,0.0,0.0,0.0,0.0,0.0,4.2501,4.2826,4.2826,4.325,4.3497,4.3497,4.3497,4.3214,4.2693,4.2162,4.1621,4.1041,4.1087,4.1041,4.0903,4.0903,4.0625,4.007,3.9368,3.8635,3.7863,3.7084,3.6275,3.5604,3.5569,3.5504,3.5504,3.5504,3.5564,3.5493,3.4607,3.4949,3.5612,3.4709,3.5089,3.5759,3.5759,3.6163,3.6611,3.6611,3.706,3.7689,3.8257,3.8467,3.8691,3.929,3.9424,3.9424,3.9424,3.9424,3.9424,3.9424,3.9424,3.9104,3.8144,3.7994,3.7663,3.676,3.6732,3.7133,3.8101,3.8324,3.8708,3.9666,3.9737,3.9737,3.9737,3.961,3.9538,3.9538,4.0111,4.0516,4.0738,4.2852,4.4266,4.502,4.5834,4.6173,4.6173,4.6173,4.5762,0.0,0.0,0.0,0.0,0.0,0.0,0.0,0.0,0.0,0.0,0.0,0.0,0.0,0.0,0.0,0.0,0.0,0.0,0.0,0.0,0.0,0.0,0.0,0.0,0.0,0.0,0.0,0.0,0.0,0.0,4.1793,4.2038,4.2342,4.2711,4.2939,4.305,4.305,4.305,4.258,4.1664,4.1122,4.072,4.0449,4.0449,4.0449,4.0449,4.0449,4.0336,4.002,3.9262,3.8469,3.769,3.6904,3.6165,3.5504,3.5504,3.5133,3.4691,3.4691,3.4327,3.3822,3.338,3.3533,3.3905,3.3959,3.4312,3.4758,3.5359,3.5714,3.5938,3.5938,3.6417,3.6971,3.7255,3.7868,3.8467,3.8781,3.914,3.9424,3.9424,3.9424,3.9192,3.862,3.8472,3.8144,3.7084,3.693,3.6774,3.6277,3.6198,3.6369,3.6852,3.693,3.7084,3.7572,3.8144,3.8472,3.8472,3.9104,3.9424,3.9424,3.9694,3.9698,3.9498,4.1851,4.3138,4.3457,4.4219,4.454,4.454,4.454,4.4327,0.0,0.0,0.0,0.0,0.0,0.0,0.0,0.0,0.0,0.0,0.0,0.0,0.0,0.0,0.0,0.0,0.0,0.0,0.0,0.0,0.0,0.0,0.0,0.0,0.0,0.0,0.0,0.0,0.0,0.0,4.1375,4.149,4.1768,4.2203,4.2382,4.248,4.248,4.2302,4.181,4.0903,4.0368,4.0003,3.9782,3.9782,3.9679,3.9506,3.9731,3.9679,3.9454,3.8635,3.8003,3.7397,3.6631,3.6006,3.5504,3.5504,3.4839,3.4027,3.4027,3.338,3.2522,3.2321,3.2393,3.2678,3.3171,3.3602,3.4177,3.4905,3.5279,3.5504,3.5504,3.5863,3.6282,3.6447,3.733,3.8242,3.8571,3.905,3.9424,3.9424,3.9177,3.8708,3.7919,3.7587,3.7021,3.5974,3.5814,3.5734,3.5426,3.5426,3.5507,3.5814,3.5814,3.5894,3.6198,3.693,3.742,3.742,3.813,3.862,3.862,3.862,3.8437,3.8182,4.0261,4.1336,4.1513,4.2159,4.2563,4.29,4.29,4.2996,0.0,0.0,0.0,0.0,0.0,0.0,0.0,0.0,0.0,0.0,0.0,0.0,0.0,0.0,0.0,0.0,0.0,0.0,0.0,0.0,0.0,0.0,0.0,0.0,0.0,0.0,0.0,0.0,0.0,0.0,4.0204,4.0655,4.0949,4.0995,4.1534,4.1853,4.1853,4.1268,4.0949,4.0903,4.0368,3.9731,3.8962,3.8962,3.858,3.7978,3.8635,3.858,3.7863,3.7024,3.6722,3.6615,3.5846,3.5504,3.5504,3.5504,3.4839,3.4027,3.4027,3.338,3.2464,3.1536,3.1888,3.2464,3.1609,3.2593,3.4027,3.4095,3.4758,3.5504,3.5504,3.5534,3.5714,3.6342,3.6985,3.7808,3.9095,3.9394,3.9424,3.9424,3.8546,3.7829,3.7829,3.6944,3.5974,3.4897,3.4746,3.4428,3.3398,3.3227,3.3628,3.4664,3.4746,3.5129,3.6132,3.6277,3.6277,3.6277,3.6369,3.6369,3.6369,3.6369,3.6383,3.6332,3.7631,3.863,3.92,3.9754,4.0661,4.1684,4.1684,4.229,0.0,0.0,0.0,0.0,0.0,0.0,0.0,0.0,0.0,0.0,0.0,0.0,0.0,0.0,0.0,0.0,0.0,0.0,0.0,0.0,0.0,0.0,0.0,0.0,0.0,0.0,0.0,0.0,0.0,0.0,4.0121,4.0286,4.0528,4.0903,4.1133,4.1223,4.1223,4.0133,3.9613,3.9613,3.8962,3.8486,3.8189,3.8189,3.779,3.7024,3.7306,3.7557,3.7748,3.6904,3.6615,3.6554,3.5782,3.5504,3.5504,3.5504,3.4476,3.3101,3.3101,3.2119,3.0784,3.0419,3.0495,3.0846,3.1106,3.1669,3.2464,3.3671,3.4245,3.4691,3.5359,3.5504,3.5669,3.6327,3.6956,3.7659,3.8556,3.911,3.9177,3.8546,3.8069,3.7357,3.6015,3.5534,3.4611,3.2759,3.2426,3.2352,3.1952,3.1865,3.2302,3.3543,3.3628,3.3784,3.4178,3.4802,3.521,3.521,3.5814,3.6198,3.6198,3.6198,3.5894,3.5278,3.6364,3.7416,3.8407,3.9416,4.0073,4.049,4.049,4.076,1.5775,0.0,0.0,0.0,0.0,0.0,0.0,0.0,0.0,0.0,0.0,0.0,0.0,0.0,0.0,0.0,0.0,0.0,0.0,0.0,0.0,0.0,0.0,0.0,0.0,0.0,0.0,0.0,0.0,0.0,4.007,4.007,4.0237,4.0607,4.0607,4.0607,4.0607,3.9475,3.8908,3.8908,3.8149,3.7632,3.7397,3.7397,3.698,3.6228,3.6228,3.6523,3.7011,3.6461,3.6228,3.6165,3.5668,3.5504,3.5504,3.5504,3.4274,3.2593,3.2593,3.1341,2.9792,2.9792,2.9792,2.9934,3.0558,3.097,3.1462,3.2749,3.331,3.3739,3.4758,3.5213,3.5669,3.6327,3.6806,3.7345,3.8197,3.8931,3.9104,3.7994,3.751,3.671,3.4979,3.4056,3.3028,3.1388,3.0855,3.0586,3.0586,3.0944,3.15,3.2339,3.2884,3.3081,3.3081,3.3713,3.4191,3.4191,3.4802,3.5183,3.5183,3.5183,3.4884,3.4191,3.5223,3.6144,3.6922,3.8175,3.8917,3.9271,3.9271,3.9536,0.0,0.0,0.0,0.0,0.0,0.0,0.0,0.0,0.0,0.0,0.0,0.0,0.0,0.0,0.0,0.0,0.0,0.0,0.0,0.0,0.0,0.0,0.0,0.0,0.0,0.0,0.0,0.0,0.0,4.002,4.002,4.002,4.002,4.0054,4.0037,4.0054,4.007,3.9262,3.8854,3.8854,3.8076,3.7338,3.6554,3.6554,3.6165,3.5504,3.5504,3.5504,3.5504,3.5504,3.5504,3.5504,3.5504,3.5504,3.5504,3.5439,3.4259,3.2593,3.2593,3.1341,2.9792,2.9792,2.9792,2.9792,2.9792,3.0419,3.118,3.118,3.1888,3.2749,3.3739,3.4691,3.5589,3.6231,3.6395,3.6821,3.8063,3.8886,3.9075,3.7979,3.693,3.5894,3.4815,3.2685,3.1223,3.1122,3.0135,2.9315,2.9315,3.0406,3.1134,3.1223,3.2326,3.3081,3.3081,3.3081,3.3081,3.3081,3.3081,3.3081,3.3081,3.3081,3.3081,3.3081,3.4161,3.4726,3.4726,3.5818,3.6977,3.8017,3.8017,3.8649,1.5539,0.0,0.0,0.0,0.0,0.0,0.0,0.0,0.0,0.0,0.0,0.0,0.0,0.0,0.0,0.0,0.0,0.0,0.0,0.0,0.0,0.0,0.0,0.0,0.0,0.0,0.0,0.0,3.8514,3.8514,3.8514,3.8514,3.8751,3.9276,3.8721,3.8678,3.9262,3.793,3.7247,3.7247,3.6477,3.6022,3.5782,3.5782,3.5668,3.5504,3.5504,3.5504,3.5504,3.5504,3.5504,3.5504,3.5504,3.5504,3.5424,3.4691,3.3671,3.2536,3.1815,3.0771,2.9792,2.9792,2.9792,2.9792,2.9792,3.0011,3.0355,3.1044,3.1389,3.1815,3.2749,3.3171,3.3437,3.3606,3.4577,3.5511,3.5846,3.7405,3.8265,3.6922,3.6369,3.5372,3.266,3.1653,3.0586,2.8866,2.8319,2.8132,2.8132,2.8412,2.9223,3.1033,3.15,3.2064,3.2982,3.3081,3.3081,3.3081,3.3081,3.3081,3.3081,3.3081,3.3081,3.3081,3.4161,3.4726,3.4726,3.5818,3.6534,3.6896,3.6896,3.707,0.0,0.0,0.0,0.0,0.0,0.0,0.0,0.0,0.0,0.0,0.0,0.0,0.0,0.0,0.0,0.0,0.0,0.0,0.0,0.0,0.0,0.0,0.0,0.0,0.0,0.0,0.0,0.0,3.7728,3.7793,3.7434,3.7434,3.7519,3.7667,3.7236,3.7297,3.7997,3.6805,3.6321,3.66,3.5831,3.5504,3.5504,3.5504,3.5504,3.5504,3.5504,3.5504,3.5504,3.5504,3.5504,3.5504,3.5504,3.5504,3.5359,3.4394,3.338,3.2464,3.1536,3.0558,2.9792,2.9792,2.9792,2.9792,2.9792,2.9792,2.9934,3.0482,3.0895,3.1315,3.1888,3.2321,3.2593,3.2593,3.3297,3.4059,3.4328,3.5766,3.6864,3.6519,3.6345,3.5278,3.2352,3.1086,2.9772,2.7861,2.7125,2.6849,2.6849,2.7673,2.8866,3.0316,3.1412,3.2326,3.3068,3.3081,3.3081,3.3081,3.3081,3.3081,3.3081,3.3081,3.3081,3.3081,3.4161,3.4951,3.5403,3.6056,3.6358,3.6358,3.6358,3.6358,1.866,1.9376,0.0,0.0,0.0,0.0,0.0,2.1494,0.0,0.0,0.0,0.0,0.0,0.0,0.0,0.0,0.0,0.0,0.0,0.0,0.0,0.0,0.0,0.0,0.0,0.0,3.5661,3.6386,3.7036,3.7151,3.6503,3.6436,3.6144,3.5572,3.5479,3.576,3.6405,3.5615,3.5629,3.6384,3.5725,3.5429,3.5504,3.5504,3.5504,3.5504,3.5504,3.5504,3.5504,3.5504,3.5504,3.5504,3.5504,3.5424,3.5213,3.4177,3.3241,3.2321,3.1402,3.0482,2.9792,2.9792,2.9792,2.9792,2.9792,2.9792,2.9792,2.9792,3.0419,3.1044,3.1044,3.1683,3.2321,3.2321,3.2393,3.2602,3.3211,3.4114,3.5209,3.6344,3.6338,3.5372,3.3216,3.0938,2.8958,2.7767,2.6476,2.5732,2.5927,2.7851,2.9315,2.959,3.1601,3.2982,3.3081,3.3081,3.3081,3.3081,3.3081,3.3081,3.3081,3.3081,3.3081,3.3081,3.4161,3.5228,3.627,3.6332,3.6358,3.6358,3.6358,3.6358,2.1792,2.2496,2.3148,0.0,0.0,0.0,0.0,2.0767,0.0,0.0,0.0,0.0,0.0,0.0,0.0,0.0,0.0,0.0,0.0,0.0,0.0,0.0,0.0,0.0,0.0,0.0,3.3504,3.4188,3.4358,3.4374,3.4239,3.4239,3.4122,3.3905,3.331,3.333,3.4044,3.3268,3.3558,3.4904,3.4793,3.4966,3.5504,3.5504,3.5504,3.5504,3.5504,3.5504,3.5504,3.5504,3.5504,3.5504,3.5504,3.4986,3.4177,3.3241,3.2321,3.1328,3.0419,2.9934,2.9792,2.9792,2.9792,2.9792,2.9792,2.9792,2.9792,2.9792,2.9934,3.0075,3.0075,3.0216,3.0355,3.0355,3.0908,3.1489,3.1609,3.2869,3.4155,3.5138,3.5437,3.4911,3.3068,3.0938,2.8958,2.7767,2.6476,2.611,2.7125,2.7683,2.868,3.0676,3.1311,3.1965,3.2982,3.3081,3.3081,3.3081,3.3081,3.3081,3.3081,3.3081,3.3081,3.3081,3.4161,3.5052,3.5705,3.6144,3.6358,3.6358,3.6358,3.6358,2.3722,2.3934,2.4275,2.3287,0.0,0.0,0.0,0.0,0.0,0.0,0.0,0.0,0.0,0.0,0.0,0.0,0.0,0.0,0.0,0.0,0.0,0.0,0.0,0.0,0.0,0.0,3.2003,3.3038,3.2685,3.2431,3.2431,3.2057,3.1603,3.1235,3.0843,3.0993,3.1676,3.129,3.1854,3.3368,3.3368,3.3928,3.4996,3.4996,3.5175,3.5504,3.5504,3.5504,3.5439,3.4986,3.4758,3.4758,3.4758,3.4461,3.3808,3.2393,3.1609,3.1031,3.0139,2.9792,2.9792,2.9792,2.9792,2.9792,2.9792,2.9792,2.9792,2.9792,2.9792,2.9792,2.9792,2.9792,2.9792,2.9792,3.0139,3.0482,3.0482,3.1492,3.2782,3.4028,3.4297,3.4054,3.3209,3.2019,3.0504,2.8762,2.7945,2.7767,2.8412,2.9039,2.9863,3.1033,3.1777,3.2426,3.3081,3.3081,3.3081,3.3081,3.3081,3.3081,3.3081,3.3081,3.3206,3.3483,3.4299,3.4989,3.5542,3.6094,3.6358,3.6358,3.6358,3.6358,0.0,0.0,0.0,0.0,0.0,2.265,0.0,0.0,0.0,2.2399,0.0,0.0,0.0,0.0,0.0,0.0,0.0,0.0,0.0,0.0,0.0,0.0,0.0,0.0,0.0,0.0,3.0359,3.1671,3.0804,3.0349,3.0674,3.0013,2.9374,2.8748,2.8748,2.8981,2.9525,2.9539,3.0285,3.1761,3.1761,3.2571,3.4088,3.4002,3.4357,3.5035,3.4942,3.492,3.4854,3.4041,3.3739,3.3739,3.3739,3.3602,3.331,3.1742,3.1106,3.0833,3.0075,2.9792,2.9792,2.9792,2.9792,2.9792,2.9792,2.9792,2.9792,2.9792,2.9792,2.9792,2.9792,2.9792,2.9792,2.9792,2.9624,2.9456,2.9456,3.0075,3.1048,3.2529,3.3042,3.3329,3.37,3.316,3.1933,3.0011,2.959,2.9498,2.9681,3.0586,3.1311,3.15,3.2513,3.3081,3.3081,3.3081,3.3081,3.3081,3.3081,3.3081,3.3081,3.3081,3.3282,3.3734,3.4286,3.4839,3.5391,3.5943,3.6257,3.6358,3.6358,3.6358,0.0,0.0,0.0,0.0,2.6379,0.0,0.0,0.0,2.1828,2.134,0.0,0.0,0.0,0.0,0.0,0.0,0.0,0.0,0.0,0.0,0.0,0.0,0.0,0.0,0.0,0.0,0.0,2.8799,2.7176,2.6874,2.8489,2.8479,2.8236,2.7841,2.7855,2.7894,2.7961,2.7961,2.8702,3.0257,3.0257,3.1047,3.2478,3.2221,3.2585,3.3345,3.3085,3.2961,3.289,3.282,3.2749,3.2749,3.2749,3.2249,3.1462,3.1241,3.0696,2.9934,2.9869,2.9792,2.9792,2.9792,2.9792,2.9792,2.9792,2.9792,2.9792,2.9792,2.9792,2.9792,2.9792,2.9792,2.9792,2.9792,2.9028,2.8267,2.8267,2.8414,2.8785,2.977,3.125,3.2881,3.4735,3.3297,3.1686,3.1128,3.0135,2.9772,3.0855,3.1134,3.1589,3.2797,3.2982,3.3081,3.3081,3.3081,3.3081,3.3081,3.3081,3.3081,3.3081,3.3081,3.3106,3.3169,3.3709,3.4261,3.4813,3.5366,3.5893,3.6358,3.6358,3.6358,0.0,0.0,0.0,0.0,0.0,0.0,0.0,0.0,2.1663,0.0,0.0,0.0,0.0,0.0,0.0,0.0,0.0,0.0,0.0,0.0,0.0,0.0,0.0,0.0,0.0,0.0,0.0,0.0,0.0,2.4463,2.5896,2.6423,2.6648,2.6514,2.6793,2.6973,2.6973,2.6973,2.7535,2.8675,2.8675,2.9433,3.094,3.0801,3.1188,3.1914,3.2027,3.2152,3.211,3.1884,3.1815,3.1742,3.1193,3.1057,3.1106,3.0558,3.0139,2.9702,2.9028,2.8767,2.8767,2.8767,2.9275,2.9792,2.9792,2.9792,2.9792,2.9792,2.9792,2.9792,2.9792,2.9287,2.8767,2.8767,2.7947,2.7209,2.7209,2.7209,2.7648,2.922,3.0126,3.1202,3.3068,3.3119,3.2765,3.2401,3.1877,3.1701,3.2239,3.2326,3.2525,3.3068,3.3081,3.3081,3.3081,3.3081,3.3081,3.3081,3.3081,3.3081,3.3081,3.3081,3.3081,3.3081,3.3621,3.4173,3.4726,3.5278,3.583,3.6358,3.6358,3.6358,2.7415,0.0,0.0,0.0,0.0,0.0,0.0,0.0,0.0,0.0,0.0,0.0,0.0,0.0,0.0,0.0,0.0,0.0,0.0,0.0,0.0,0.0,0.0,0.0,0.0,0.0,0.0,0.0,0.0,0.0,2.3953,2.4591,2.5134,2.5586,2.6163,2.6533,2.6533,2.6533,2.6782,2.7351,2.7056,2.7641,2.8957,2.8919,2.9228,2.993,3.0566,3.0861,3.098,3.0698,3.069,3.0758,3.0075,3.0203,3.0771,3.0075,2.9792,2.9702,2.8846,2.8597,2.8597,2.8597,2.9118,2.9792,2.9792,2.9792,2.9792,2.9792,2.9546,2.9365,2.9365,2.8518,2.7683,2.7683,2.6789,2.6058,2.6058,2.6058,2.6438,2.7965,2.844,2.9184,3.0828,3.2463,3.3336,3.2912,3.2968,3.3081,3.3081,3.3081,3.3081,3.3081,3.3081,3.3081,3.3081,3.3081,3.3081,3.3081,3.3081,3.3081,3.3081,3.3081,3.3081,3.3081,3.347,3.4022,3.4726,3.5127,3.568,3.6358,3.6358,3.6358,0.0,0.0,0.0,2.6556,0.0,0.0,0.0,0.0,2.3164,0.0,0.0,0.0,0.0,0.0,0.0,2.0443,0.0,0.0,0.0,0.0,0.0,0.0,0.0,0.0,0.0,0.0,0.0,0.0,0.0,0.0,2.2932,2.317,2.3941,2.5548,2.6163,2.6533,2.6533,2.6533,2.6533,2.6521,2.5581,2.5533,2.6395,2.6056,2.6443,2.7238,2.7905,2.8497,2.9001,2.9013,2.9289,2.9869,2.9792,2.9792,2.9869,2.9792,2.9792,2.9792,2.9792,2.9714,2.9714,2.9714,2.9792,2.9792,2.9792,2.9792,2.9792,2.9792,2.9028,2.8164,2.8164,2.7371,2.6554,2.6554,2.5714,2.4872,2.4872,2.4872,2.4872,2.4946,2.587,2.7113,2.8692,3.1175,3.2657,3.2319,3.2717,3.3081,3.3081,3.3081,3.3081,3.3081,3.3081,3.3081,3.3081,3.3081,3.3081,3.3081,3.3081,3.3081,3.3081,3.3081,3.3081,3.3081,3.3093,3.3633,3.4726,3.4738,3.5303,3.6358,3.6358,3.6358,0.0,0.0,3.0049,2.7651,0.0,0.0,0.0,0.0,0.0,0.0,0.0,0.0,0.0,0.0,2.0287,1.995,1.9617,0.0,0.0,0.0,0.0,0.0,0.0,0.0,0.0,0.0,0.0,0.0,0.0,0.0,0.0,2.2305,2.3565,2.4506,2.5423,2.6076,2.6533,2.6533,2.6164,2.5511,2.5158,2.4838,2.4422,2.433,2.4786,2.5754,2.6311,2.7041,2.7896,2.8624,2.9038,2.9252,2.9641,2.9792,2.9792,2.9792,2.9287,2.8597,2.7879,2.8119,2.8688,2.8688,2.9197,2.9792,2.9792,2.9792,2.9792,2.9792,2.8937,2.8096,2.8096,2.6778,2.5199,2.4385,2.3278,2.2249,2.1435,2.1257,2.1505,2.2233,2.3305,2.4575,2.5863,2.8038,3.0134,3.1947,3.2704,3.3081,3.3081,3.3081,3.3081,3.3081,3.3081,3.3081,3.3081,3.3081,3.3081,3.3081,3.3081,3.3081,3.3081,3.3081,3.3081,3.3081,3.3081,3.3432,3.4173,3.455,3.5102,3.583,3.6194,3.6358,2.8596,2.9525,0.0,2.7931,2.807,0.0,2.4779,0.0,0.0,0.0,0.0,0.0,0.0,0.0,0.0,2.0931,2.0327,0.0,0.0,0.0,0.0,0.0,0.0,0.0,0.0,0.0,1.8703,1.936,0.0,0.0,0.0,0.0,2.2899,2.3665,2.4933,2.5774,2.6151,2.642,2.6025,2.5004,2.4636,2.3963,2.2999,2.2999,2.3294,2.3986,2.5036,2.5961,2.6793,2.7496,2.8014,2.8319,2.8366,2.8464,2.8712,2.9028,2.8518,2.7441,2.6719,2.6964,2.7602,2.8004,2.8597,2.9275,2.9702,2.9792,2.9702,2.9287,2.8359,2.7441,2.7023,2.5535,2.3846,2.2669,2.1799,2.0935,1.9761,1.9497,1.9745,2.0399,2.1212,2.2086,2.313,2.4774,2.7041,3.0179,3.1317,3.1789,3.1789,3.1789,3.1789,3.1789,3.2152,3.2612,3.3081,3.3081,3.3081,3.3081,3.3081,3.3081,3.3081,3.3081,3.3081,3.3081,3.3081,3.3345,3.3897,3.4449,3.5002,3.5554,3.6107,3.6358]},{"header":{"parameterUnit":"m.s-1","parameterCategory":1,"la1":30.6,"la2":29.2853,"lo1":-89.7004,"lo2":-87.6739,"dy":0.0162,"dx":0.0183,"nx":112,"ny":82,"refTime":"2024-08-19T06:00:00:Z","depth":0,"parameterNumber":3,"parameterNumberName":"V-component_of_WINDS"},"data":[0.0,0.0,0.0,0.0,0.0,0.0,0.0,0.0,0.0,0.0,0.0,0.0,0.0,0.0,0.0,0.0,0.0,0.0,0.0,0.0,0.0,0.0,0.0,0.0,0.0,0.0,0.0,0.0,0.0,0.0,0.0,0.0,0.0,0.0,0.0,0.0,0.0,0.0,0.0,0.0,0.0,0.0,0.0,0.0,0.0,0.0,0.0,0.0,0.0,0.0,0.0,0.0,0.0,0.0,0.0,0.0,0.0,0.0,0.0,0.0,0.0,0.0,0.0,0.0,0.0,0.0,0.0,0.0,0.0,0.0,0.0,0.0,0.0,0.0,0.0,0.0,0.0,0.0,0.0,0.0,0.0,0.0,0.0,0.0,0.0,0.0,0.0,0.0,0.0,0.0,0.0,0.5199,0.5864,0.6207,0.6074,0.6094,0.6044,0.5772,0.0,0.0,0.0,0.0,0.0,0.0,0.0,0.0,0.0,0.0,0.0,0.0,0.0,0.0,0.0,0.0,0.0,0.0,0.0,0.0,0.0,0.0,0.0,0.0,0.0,0.0,0.0,0.0,0.0,0.0,0.0,0.0,0.0,0.0,0.0,0.0,0.0,0.0,0.0,0.0,0.0,0.0,0.0,0.0,0.0,0.0,0.0,0.0,0.0,0.0,0.0,0.0,0.0,0.0,0.0,0.0,0.0,0.0,0.0,0.0,0.0,0.0,0.0,0.0,0.0,0.0,0.0,0.0,0.0,0.0,0.0,0.0,0.0,0.0,0.0,0.0,0.0,0.0,0.0,0.0,0.0,0.0,0.0,0.0,0.0,0.0,0.0,0.0,0.0,0.0,0.0,0.0,0.0,0.0,0.0,0.0,0.0,0.0,0.0,0.0,0.0,0.0,0.0,0.0,0.5467,0.5851,0.6115,0.6251,0.6227,0.6644,0.6784,0.6473,0.0,0.0,0.0,0.0,0.0,0.0,0.0,0.0,0.0,0.0,0.0,0.0,0.0,0.0,0.0,0.0,0.0,0.0,0.0,0.0,0.0,0.0,0.0,0.0,0.0,0.0,0.0,0.0,0.0,0.0,0.0,0.0,0.0,0.0,0.0,0.0,0.0,0.0,0.0,0.0,0.0,0.0,0.0,0.0,0.0,0.0,0.0,0.0,0.0,0.0,0.0,0.0,0.0,0.0,0.0,0.0,0.0,0.0,0.0,0.0,0.0,0.0,0.0,0.0,0.0,0.0,0.0,0.0,0.0,0.0,0.0,0.0,0.0,0.0,0.0,0.0,0.0,0.0,0.0,0.0,0.0,0.0,0.0,0.0,0.0,0.0,0.0,0.0,0.0,0.0,0.0,0.0,0.0,0.0,0.0,0.0,0.0,0.0,0.0,0.0,0.0,0.0,0.0,0.471,0.5457,0.5939,0.6169,0.649,0.7099,0.7074,0.7238,0.747,0.5871,0.0,0.0,0.0,0.0,0.0,0.0,0.0,0.0,0.0,0.0,0.0,0.0,0.0,0.0,0.0,0.0,0.0,0.0,0.0,0.0,0.0,0.0,0.0,0.0,0.0,0.0,0.0,0.0,0.0,0.0,0.0,0.0,0.0,0.0,0.0,0.0,0.0,0.0,0.0,0.0,0.0,0.0,0.0,0.0,0.0,0.0,0.0,0.0,0.0,0.0,0.0,0.0,0.0,0.0,0.0,0.0,0.0,0.0,0.0,0.0,0.0,0.0,0.0,0.0,0.0,0.0,0.0,0.0,0.0,0.0,0.0,0.0,0.0,0.0,0.0,0.0,0.0,0.0,0.0,0.0,0.0,0.0,0.0,0.0,0.0,0.0,0.0,0.0,0.0,0.0,0.0,0.0,0.0,0.0,0.0,0.0,0.0,0.0,0.0,0.0,0.0,0.0,0.525,0.5416,0.602,0.6416,0.6945,0.7706,0.7601,0.7683,0.8184,0.6553,0.0,0.0,0.0,0.0,0.0,0.0,0.0,0.0,0.0,0.0,0.0,0.0,0.0,0.0,0.0,0.0,0.0,0.0,0.0,0.0,0.0,0.0,0.0,0.0,0.0,0.0,0.0,0.0,0.0,0.0,0.0,0.0,0.0,0.0,0.0,0.0,0.0,0.0,0.0,0.0,0.0,0.0,0.0,0.0,0.0,0.0,0.0,0.0,0.0,0.0,0.0,0.0,0.0,0.0,0.0,0.0,0.0,0.0,0.0,0.0,0.0,0.0,0.0,0.0,0.0,0.0,0.0,0.0,0.0,0.0,0.0,0.0,0.0,0.0,0.0,0.0,0.0,0.0,0.0,0.0,0.0,0.0,0.0,0.0,0.0,0.0,0.0,0.0,0.0,0.0,0.0,0.0,0.0,0.0,0.0,0.0,0.0,0.0,0.0,0.0,0.0,0.0,0.5405,0.5576,0.6179,0.7092,0.7706,0.7783,0.8248,0.8388,0.821,0.6636,0.0,0.0,0.0,0.0,0.0,0.0,0.0,0.0,0.0,0.0,0.0,0.0,0.0,0.0,0.0,0.0,0.0,0.0,0.0,0.0,0.0,0.0,0.0,0.0,0.0,0.0,0.0,0.0,0.0,0.0,0.0,0.0,0.0,0.0,0.0,0.0,0.0,0.0,0.0,0.0,0.0,0.0,0.0,0.0,0.0,0.0,0.0,0.0,0.0,0.0,0.0,0.0,0.0,0.0,0.0,0.0,0.0,0.0,0.0,0.0,0.0,0.0,0.0,0.0,0.0,0.0,0.0,0.0,0.0,0.0,0.0,0.0,0.0,0.0,0.0,0.0,0.0,0.0,0.0,0.0,0.0,0.0,0.0,0.0,0.0,0.0,0.0,0.0,0.0,0.0,0.0,0.0,0.0,0.0,0.0,0.0,0.0,0.0,0.0,0.0,0.0,0.0,0.5416,0.5662,0.0,0.7176,0.7956,0.8421,0.8848,0.8968,0.8577,0.0,0.0,0.0,0.0,0.0,0.0,0.0,0.0,0.0,0.0,0.0,0.0,0.0,0.0,0.0,0.0,0.0,0.0,0.0,0.0,0.0,0.0,0.0,0.0,0.0,0.0,0.0,0.0,0.0,0.0,0.0,0.0,0.0,0.0,0.0,0.0,0.0,0.0,0.0,0.0,0.0,0.0,0.0,0.0,0.0,0.0,0.0,0.0,0.0,0.0,0.0,0.0,0.0,0.0,0.0,0.0,0.0,0.0,0.0,0.0,0.0,0.0,0.0,0.0,0.0,0.0,0.0,0.0,0.0,0.0,0.0,0.0,0.0,0.0,0.0,0.0,0.0,0.0,0.0,0.0,0.0,0.0,0.0,0.0,0.0,0.0,0.0,0.0,0.0,0.0,0.0,0.0,0.0,0.0,0.0,0.0,0.0,0.0,0.0,0.0,0.0,0.0,0.5174,0.536,0.5647,0.0,0.748,0.8454,0.8743,0.9299,0.9327,0.8831,0.0,0.0,0.0,0.0,0.0,0.0,0.0,0.0,0.0,0.0,0.0,0.0,0.0,0.0,0.0,0.0,0.0,0.0,0.0,0.0,0.0,0.0,0.0,0.0,0.0,0.0,0.0,0.0,0.0,0.0,0.0,0.0,0.0,0.0,0.0,0.0,0.0,0.0,0.0,0.0,0.0,0.0,0.0,0.0,0.0,0.0,0.0,0.0,0.0,0.0,0.0,0.0,0.0,0.0,0.0,0.0,0.0,0.0,0.0,0.0,0.0,0.0,0.0,0.0,0.0,0.0,0.0,0.0,0.0,0.0,0.0,0.0,0.0,0.0,0.0,0.0,0.0,0.0,0.0,0.0,0.0,0.0,0.0,0.0,0.0,0.0,0.0,0.0,0.0,0.0,0.0,0.0,0.0,0.0,0.0,0.0,0.0,0.0,0.0,0.0,0.0,0.0,0.4848,0.5311,0.5762,0.629,0.8084,0.92,0.8812,0.9354,0.9439,0.0,0.0,0.0,0.0,0.0,0.0,0.0,0.0,0.0,0.0,0.0,0.0,0.0,0.0,0.0,0.0,0.0,0.0,0.0,0.0,0.0,0.0,0.0,0.0,0.0,0.0,0.0,0.0,0.0,0.0,0.0,0.0,0.0,0.0,0.0,0.0,0.0,0.0,0.0,0.0,0.0,0.0,0.0,0.0,0.0,0.0,0.0,0.0,0.0,0.0,0.0,0.0,0.0,0.0,0.0,0.0,0.0,0.0,0.0,0.0,0.0,0.0,0.0,0.0,0.0,0.0,0.0,0.0,0.0,0.0,0.0,0.0,0.0,0.0,0.0,0.0,0.0,0.0,0.0,0.0,0.0,0.0,0.0,0.0,0.0,0.0,0.0,0.0,0.0,0.0,0.0,0.0,0.0,0.0,0.0,0.0,0.0,0.0,0.0,0.0,0.0,0.0,0.0,0.0,0.5399,0.6158,0.7206,0.8542,0.9363,0.9526,1.0049,0.9786,0.8577,0.0,0.0,0.0,0.0,0.0,0.0,0.0,0.0,0.0,0.0,0.0,0.0,0.0,0.0,0.0,0.0,0.0,0.0,0.0,0.0,0.0,0.0,0.0,0.0,0.0,0.0,0.0,0.0,0.0,0.0,0.0,0.0,0.0,0.0,0.0,0.0,0.0,0.0,0.0,0.0,0.0,0.0,0.0,0.0,0.0,0.0,0.0,0.0,0.0,0.0,0.0,0.0,0.0,0.0,0.0,0.0,0.0,0.0,0.0,0.0,0.0,0.0,0.0,0.0,0.0,0.0,0.0,0.0,0.0,0.0,0.0,0.0,0.0,0.0,0.0,0.0,0.0,0.0,0.0,0.0,0.0,0.0,0.0,0.0,0.0,0.0,0.0,0.0,0.0,0.0,0.0,0.0,0.0,0.0,0.0,0.0,0.0,0.0,0.0,0.0,0.0,0.0,0.4872,0.5765,0.6783,0.7664,0.9064,0.9961,1.0066,1.0524,1.016,0.8804,0.0,0.0,0.0,0.0,0.0,0.0,0.0,0.0,0.0,0.0,0.0,0.0,0.0,0.0,0.0,0.0,0.0,0.0,0.0,0.0,0.0,0.0,0.0,0.0,0.0,0.0,0.0,0.0,0.0,0.0,0.0,0.0,0.0,0.0,0.0,0.0,0.0,0.0,0.0,0.0,0.0,0.0,0.0,0.0,0.0,0.0,0.0,0.0,0.0,0.0,0.0,0.0,0.0,0.0,0.0,0.0,0.0,0.0,0.0,0.0,0.0,0.0,0.0,0.0,0.0,0.0,0.0,0.0,0.0,0.0,0.0,0.0,0.0,0.0,0.0,0.0,0.0,0.0,0.0,0.0,0.0,0.0,0.0,0.0,0.0,0.0,0.0,0.0,0.0,0.0,0.0,0.0,0.0,0.0,0.0,0.0,0.0,0.0,0.0,0.0,0.0,0.0,0.4903,0.6305,0.7428,0.7893,0.9664,1.0757,1.0569,1.084,1.0501,0.9296,0.0,0.0,0.0,0.0,0.0,0.0,0.0,0.0,0.0,0.0,0.0,0.0,0.0,0.0,0.0,0.0,0.0,0.0,0.0,0.0,0.0,0.0,0.0,0.0,0.0,0.0,0.0,0.0,0.0,0.0,0.0,0.0,0.0,0.0,0.0,0.0,0.0,0.0,0.0,0.0,0.0,0.0,0.0,0.0,0.0,0.0,0.0,0.0,0.0,0.0,0.0,0.0,0.0,0.0,0.0,0.0,0.0,0.0,0.0,0.0,-0.171,0.0,0.0,0.0,0.0,0.0,0.0,0.0,0.0,0.0,0.0,0.0,0.0,0.0,0.0,0.0,0.0,0.0,0.0,0.0,0.0,0.0,0.0,0.0,0.0,0.0,0.0,0.0,0.0,0.0,0.0,0.0,0.0,0.0,0.0,0.0,0.0,0.0,0.0,0.0,0.0,0.0,0.5037,0.6372,0.7717,0.8874,1.004,1.0985,1.1527,1.1193,1.0595,0.9646,0.0,0.0,0.0,0.0,0.0,0.0,0.0,0.0,0.0,0.0,0.0,0.0,0.0,0.0,0.0,0.0,0.0,0.0,0.0,0.0,0.0,0.0,0.0,0.0,0.0,0.0,0.0,0.0,0.0,0.0,0.0,0.0,0.0,0.0,0.0,0.0,0.0,0.0,0.0,0.0,0.0,0.0,0.0,0.0,0.0,0.0,0.0,0.0,0.0,0.0,0.0,0.0,0.0,0.0,0.0,0.0,0.0,0.0,0.0,0.0,0.0,-0.0805,0.0,0.0,0.0,0.0,0.0,0.0,0.0,0.0,0.0,0.0,0.0,0.0,0.0,0.0,0.0,0.0,0.0,0.0,0.0,0.0,0.0,0.0,0.0,0.0,0.0,0.0,0.0,0.0,0.0,0.0,0.0,0.0,0.0,0.0,0.0,0.0,0.0,0.0,0.0,0.0,0.5043,0.6877,0.8481,0.9185,1.0645,1.171,1.2084,1.1536,1.0949,1.0347,0.9212,0.0,0.0,0.0,0.0,0.0,0.0,0.0,0.0,0.0,0.0,0.0,0.0,0.0,0.0,0.0,0.0,0.0,0.0,0.0,0.0,0.0,0.0,0.0,0.0,0.0,0.0,0.0,0.0,0.0,0.0,0.0,0.0,0.0,0.0,0.0,0.0,0.0,0.0,0.0,0.0,0.0,0.0,0.0,0.0,0.0,0.0,0.0,0.0,0.0,0.0,0.0,0.0,0.0,0.0,-0.5922,-0.6034,-0.6034,-0.5897,-0.5445,-0.2759,-0.0978,0.0063,0.0,0.0,0.0,0.0,0.0,0.0,0.0,0.0,0.0,0.0,0.0,0.0,0.0,0.0,0.0,0.0,0.0,0.0,0.0,0.0,0.0,0.0,0.0,0.0,0.0,0.7748,0.7606,0.0,0.0,0.0,0.0,0.0,0.0,0.0,0.0,0.0,0.0,0.0,0.0,0.5435,0.7678,0.9252,0.9635,1.1247,1.2358,1.2305,1.181,1.1356,1.1015,1.0033,0.9024,0.0,0.0,0.0,0.0,0.0,0.0,0.0,0.0,0.0,0.0,0.0,0.0,0.0,0.0,0.0,0.0,0.0,0.0,0.0,0.0,0.0,0.0,0.0,0.0,0.0,0.0,0.0,0.0,0.0,0.0,0.0,0.0,-0.3714,-0.391,0.0,0.0,0.0,0.0,0.0,0.0,0.0,0.0,0.0,0.0,0.0,0.0,0.0,0.0,-0.5654,-0.6081,-0.6305,-0.6332,-0.6739,-0.6946,-0.6963,-0.6963,-0.6807,-0.6387,-0.3959,0.0,0.0,0.0207,0.0,0.0,0.0,0.0,0.0,0.0,0.0,0.0,0.0,0.0,0.0,0.0,0.0,0.0,0.0,0.0,0.0,0.0,0.0,0.0,0.0,0.0,0.8155,0.8048,0.885,0.954,0.0,0.7662,0.6479,0.6711,0.0,0.0,0.0,0.0,0.0,0.0,0.0,0.0,0.6996,0.8495,0.9862,1.0804,1.1992,1.2585,1.2325,1.2004,1.1577,1.1029,1.0615,0.9987,0.905,0.8146,0.0,0.0,0.0,0.0,0.0,0.0,0.0,0.0,0.0,0.0,0.0,0.0,0.0,0.0,0.0,0.0,0.0,0.0,0.0,0.0,0.0,0.0,0.0,0.0,0.0,0.0,0.0,0.0,0.0,-0.3697,-0.4165,-0.41,-0.4294,-0.427,0.0,0.0,0.0,0.0,0.0,0.0,0.0,0.0,0.0,-0.6046,-0.6135,-0.6322,-0.6552,-0.6834,-0.6976,-0.6983,-0.7261,-0.7397,-0.7397,-0.7397,-0.7315,-0.7148,-0.453,-0.2063,0.0,0.0,0.1643,0.4242,0.0,0.0,0.0,0.0,0.0,0.5362,0.5681,0.0,0.0,0.0,0.0,0.0,0.0,0.0,0.0,0.0,0.0,0.0,0.0,0.0,0.0,1.0363,1.0822,1.1373,1.1894,1.077,0.9421,0.0,0.7491,0.651,0.578,0.0,0.0,0.0,0.0,0.0,0.7449,0.8846,1.0115,1.1117,1.2126,1.2625,1.2325,1.2037,1.1757,1.1503,1.1056,1.0555,1.0007,0.9394,0.8466,0.0,0.0,0.0,0.0,0.0,0.0,0.0,0.0,0.0,0.0,0.0,0.0,0.0,0.0,0.0,0.0,0.0,0.0,0.0,0.0,0.0,0.0,0.0,0.0,0.0,0.0,0.0,0.0,-0.4161,-0.4579,-0.4381,-0.4782,-0.4843,0.0,0.0,0.0,0.0,0.0,0.0,-0.5688,-0.5983,-0.6315,-0.6692,-0.6851,-0.7034,-0.7255,-0.7407,-0.7485,-0.7485,-0.7638,-0.7712,-0.7712,-0.7712,-0.7723,-0.7637,-0.5598,-0.2892,0.0,0.0,0.1492,0.3883,0.5523,0.6091,0.6051,0.6203,0.6186,0.6218,0.6914,0.7138,0.7183,0.8338,0.0,0.8632,0.8985,0.0,0.0,0.0,0.0,0.8351,0.8709,0.0,1.1999,1.223,1.2505,1.2971,1.3629,1.3067,1.2035,0.0,0.931,0.8185,0.7123,0.0,0.0,0.0,0.0,0.6857,0.8275,0.9607,1.0778,1.1727,1.2434,1.2746,1.2438,1.2151,1.1917,1.1764,1.1343,1.0942,1.0638,1.0274,0.9485,0.8227,0.0,0.0,0.0,0.0,0.0,0.0,0.0,0.0,0.0,0.0,0.0,0.0,0.0,0.0,0.0,0.0,0.0,0.0,0.0,0.0,0.0,0.0,0.0,0.0,0.0,0.0,0.0,0.0,0.0,-0.4901,-0.5521,0.0,0.0,0.0,0.0,-0.5725,-0.6017,-0.6322,-0.6617,-0.6912,-0.7153,-0.7319,-0.7475,-0.756,-0.7577,-0.7719,-0.7787,-0.779,-0.7943,-0.8018,-0.8018,-0.8018,-0.8031,-0.7952,-0.7859,-0.4818,0.0,0.0,0.1542,0.4172,0.6544,0.7165,0.6675,0.6827,0.6878,0.7062,0.8513,0.9005,0.92,1.0612,1.0904,1.0574,1.0391,1.0236,0.0,0.0,1.0411,1.0898,1.1071,1.1932,1.2732,1.2756,1.3385,1.3997,1.4068,1.4062,1.3705,0.0,1.1903,1.0796,0.9218,0.0,0.7273,0.6096,0.7076,0.8417,0.9852,1.1187,1.2352,1.3349,1.3273,1.306,1.2829,1.2452,1.2044,1.1483,1.1416,1.1149,1.0645,1.0274,0.996,0.9619,0.8317,0.0,0.0,0.0,0.0,0.0,0.0,0.0,0.0,0.0,0.0,0.0,0.0,0.0,0.0,0.0,0.0,0.0,0.0,0.0,0.0,0.0,0.0,0.0,0.0,0.0,0.0,0.0,0.0,-0.5627,-0.6122,0.0,0.0,-0.6084,-0.6274,-0.6373,-0.6658,-0.6915,-0.7122,-0.7411,-0.7597,-0.7651,-0.7801,-0.7882,-0.7882,-0.7933,-0.796,-0.796,-0.8014,-0.8038,-0.8038,-0.8038,-0.8045,-0.7952,-0.7972,-0.6242,-0.3307,-0.0984,0.0579,0.1894,0.6152,0.7647,0.7389,0.7343,0.7894,0.8607,0.9211,0.9953,1.087,1.2136,1.2951,1.3305,1.2505,1.2238,1.2083,1.1289,1.174,1.2416,1.2507,1.3344,1.425,1.425,1.4451,1.4649,1.4649,1.4649,1.4556,1.4321,1.2953,1.1682,1.0918,0.9967,0.9111,0.8454,0.9047,0.9979,1.1221,1.1873,1.2559,1.349,1.3547,1.3287,1.2869,1.2728,1.2338,1.175,1.153,1.1169,1.0651,1.0274,0.9893,0.9406,0.7907,0.6696,0.0,0.0,0.0,0.0,0.0,0.0,0.0,0.0,0.0,0.0,0.0,0.0,0.0,0.0,0.0,0.0,0.0,0.0,0.0,0.0,0.0,0.0,0.0,0.0,0.0,0.0,-0.6125,-0.6173,-0.6668,-0.6868,-0.6519,-0.6709,-0.6915,-0.7065,-0.7255,-0.7434,-0.759,-0.7784,-0.7889,-0.7889,-0.7987,-0.8038,-0.8038,-0.8038,-0.8038,-0.8038,-0.8038,-0.8038,-0.8038,-0.8038,-0.8038,-0.8041,-0.7962,-0.7356,-0.6132,-0.3718,-0.1598,0.0493,0.5869,0.7897,0.777,0.7763,0.86,0.9806,1.0646,1.1864,1.309,1.3847,1.4596,1.5139,1.4207,1.3964,1.3921,1.3078,1.3401,1.4038,1.4038,1.4617,1.511,1.511,1.5037,1.4963,1.4963,1.4963,1.4963,1.4963,1.3877,1.2708,1.217,1.1438,1.0729,1.0089,1.0593,1.1315,1.2081,1.2572,1.3134,1.3725,1.3701,1.344,1.2946,1.2712,1.2385,1.1897,1.1496,1.1109,1.0722,1.0327,0.9933,0.9489,0.7709,0.6467,0.5829,0.0,0.0,0.0,0.0,0.0,0.0,0.0,0.0,0.0,0.0,0.0,0.0,0.0,0.0,0.0,0.0,0.0,0.0,0.0,0.0,0.0,0.0,0.0,-0.583,-0.6346,-0.6668,-0.6529,-0.7163,-0.7441,-0.7007,-0.7356,-0.7672,-0.7807,-0.7818,-0.7882,-0.8031,-0.8038,-0.8038,-0.8038,-0.8038,-0.8038,-0.8038,-0.8038,-0.8038,-0.8038,-0.8038,-0.8038,-0.8038,-0.8038,-0.8038,-0.8041,-0.7962,-0.7972,-0.7972,-0.7985,-0.4933,0.0302,0.566,0.7795,0.7869,0.7972,0.8844,1.0386,1.3006,1.4752,1.5832,1.5832,1.5832,1.5772,1.5491,1.5605,1.5772,1.5491,1.5611,1.5832,1.5832,1.5618,1.5411,1.5411,1.5197,1.499,1.499,1.499,1.499,1.499,1.475,1.418,1.3085,1.2608,1.2009,1.089,1.1666,0.0,1.2339,1.3392,1.4095,1.4088,1.3828,1.354,1.3253,1.2679,1.2198,1.1891,1.1323,1.0995,1.0982,1.0434,1.0066,1.0053,0.7903,0.6327,0.5496,0.0,0.0,0.0,0.0,0.0,0.0,0.0,0.0,0.0,0.0,0.0,0.0,0.0,0.0,0.0,0.0,0.0,0.0,0.0,0.0,0.0,0.0,-0.6454,-0.6454,-0.6878,-0.7251,-0.7421,-0.774,-0.7889,-0.775,-0.7862,-0.7953,-0.7974,-0.7977,-0.7994,-0.8038,-0.8038,-0.8038,-0.8038,-0.8038,-0.8038,-0.8038,-0.8038,-0.8038,-0.8038,-0.8038,-0.8038,-0.8038,-0.8038,-0.8038,-0.8038,-0.8045,-0.8048,-0.8048,-0.7969,-0.7163,-0.5236,0.01,0.3412,0.5327,0.7256,0.9434,1.175,1.437,1.5534,1.5832,1.5832,1.5832,1.5812,1.5732,1.5765,1.5812,1.5732,1.5765,1.5832,1.5832,1.5772,1.5712,1.5712,1.5651,1.5591,1.5591,1.5591,1.5591,1.5591,1.5357,1.4993,1.4506,1.4313,1.4166,1.3812,1.4078,0.0,1.3889,1.4223,1.4322,1.4108,1.4015,1.3841,1.3547,1.318,1.2645,0.0,1.1516,1.1122,1.0759,1.0528,0.9818,0.8365,0.7072,0.5897,0.0,0.0,0.0,0.0,0.0,0.0,0.0,0.0,0.0,0.0,0.0,0.0,0.0,0.0,0.0,0.0,0.0,0.0,0.0,0.0,0.0,0.0,-0.6725,-0.7099,-0.7156,-0.739,-0.7645,-0.7892,-0.7912,-0.7559,-0.6426,-0.735,-0.7969,-0.7955,-0.8045,-0.8038,-0.8038,-0.8102,-0.8136,-0.8136,-0.8194,-0.8225,-0.8225,-0.8225,-0.8225,-0.8225,-0.8225,-0.8225,-0.8225,-0.8225,-0.8225,0.0,-0.8225,-0.8225,-0.8221,-0.8177,-0.8066,0.0,0.0,0.0,0.0,0.0,0.9702,1.2237,1.4274,1.5343,1.5832,1.5832,1.5832,1.5832,1.5832,1.5832,1.5832,1.5832,1.5832,1.5832,1.5832,1.5832,1.5832,1.5832,1.5832,1.5832,1.5832,1.5832,1.5832,1.5832,0.0,0.0,1.5357,1.5124,1.4963,1.4963,1.4963,1.5075,1.5406,1.4932,1.4615,1.4937,1.4487,1.3968,1.3667,1.3373,0.0,0.0,0.0,1.1139,1.0166,1.0141,0.0,0.0,0.0,0.0,0.0,0.0,0.0,0.0,0.2263,0.1673,0.0,0.0,0.0,0.0,0.0,0.0,0.0,0.0,0.0,0.0,0.0,0.0,0.0,0.0,0.0,0.0,-0.7343,-0.7675,-0.7818,-0.7838,-0.7899,-0.7955,-0.7975,-0.6954,-0.4218,-0.5834,-0.7366,-0.7995,-0.8079,-0.8072,-0.8089,0.0,0.0,0.0,0.0,-0.8482,-0.8482,-0.8482,-0.8482,-0.8486,-0.8486,-0.8486,-0.8489,-0.8486,-0.8486,-0.8486,-0.8482,-0.8482,-0.8472,-0.835,-0.8213,-0.7489,-0.2129,0.3122,0.7598,0.7918,0.9665,0.0,0.0,0.0,0.0,1.5832,1.5832,1.5832,1.5832,1.5832,1.5832,1.5832,1.5832,1.5832,1.5832,1.5832,1.5832,1.5832,1.5832,1.5832,1.5832,1.5832,1.5832,1.5832,1.5832,1.5832,1.5832,1.5404,1.5064,1.5064,1.5064,1.548,1.6647,1.5542,1.5019,1.6242,0.0,0.0,1.3768,1.3447,1.3247,1.3213,1.2432,1.1294,0.9758,0.9565,0.8762,0.7089,0.6917,0.6787,0.6498,0.6485,0.6652,0.707,0.5249,0.4397,0.0,0.0,0.0,0.0,0.0,0.0,0.0,0.0,0.0,0.0,0.0,0.0,0.0,0.0,0.0,-0.7227,-0.7556,-0.7824,-0.7974,-0.7912,-0.7935,-0.7969,-0.7999,-0.6977,-0.4219,-0.2511,-0.3436,-0.7926,-0.8241,-0.8286,-0.8391,-0.8425,0.0,-0.8442,-0.8469,-0.8482,-0.8482,-0.8482,-0.8489,-0.8295,0.0,0.0,-0.8537,-0.852,-0.8618,-0.8618,-0.8492,-0.8482,-0.8482,-0.8364,-0.8171,-0.7428,-0.2141,0.1909,0.5027,0.7201,0.9665,1.2042,1.3392,1.4752,1.5832,1.5832,1.5832,1.5832,1.5832,1.5832,0.0,1.5832,1.5832,1.5832,1.5832,1.5832,1.5832,1.5832,1.5832,1.5832,1.5832,1.5832,1.5832,1.5832,1.5832,1.5832,1.5832,1.5732,1.5665,1.5665,1.5665,1.6023,1.7011,1.6049,1.5569,1.6608,1.5366,1.4409,1.4355,1.3861,1.346,1.3227,1.2812,1.2061,1.0732,1.0143,0.9165,0.7811,0.7226,0.6857,0.6658,0.7024,0.7234,0.7372,0.7004,0.7018,0.0,0.0,0.0,0.0,0.0,0.0,0.0,0.0,0.0,0.0,0.0,-0.6458,0.0,0.0,-0.736,-0.7658,-0.7828,-0.7957,-0.7945,-0.7972,-0.7469,-0.6139,-0.7184,-0.6377,-0.2415,-0.2129,-0.3373,-0.6197,-0.761,-0.8414,-0.8479,-0.8554,-0.8598,-0.8598,-0.8669,-0.871,-0.871,-0.8723,-0.8622,-0.8632,-0.7091,-0.6438,-0.6446,-0.6547,-0.7317,-0.8764,-0.875,-0.8743,-0.874,-0.8582,-0.8415,-0.7484,-0.2088,0.1758,0.4543,0.7232,0.9474,1.1372,1.2762,1.3981,1.5061,1.5853,1.5952,1.5832,1.5832,1.5832,1.5832,1.5832,1.5832,1.5832,1.5832,1.5832,1.5832,1.5832,1.5832,1.5832,1.5832,1.5832,1.5832,1.5832,1.5832,1.5832,1.5832,1.5832,1.5832,1.5832,1.5832,1.6418,1.8154,1.6649,1.605,1.7736,1.6037,1.4743,1.4743,1.4469,1.4182,1.3881,1.3124,1.2146,1.086,0.98,0.8768,0.768,0.733,0.7149,0.7153,0.7377,0.7522,0.7587,0.7643,0.7759,0.0,0.0,0.0,0.0,0.0,0.0,0.0,0.0,-0.6196,-0.6678,-0.6898,-0.7115,-0.7478,-0.7668,-0.7848,-0.8089,-0.8029,-0.8036,-0.8056,-0.8046,-0.7211,-0.5058,-0.577,-0.5166,-0.203,-0.3901,-0.5395,-0.5324,-0.7404,-0.8543,-0.857,-0.8686,-0.8754,-0.8754,-0.8872,-0.894,-0.894,-0.885,-0.8634,-0.8066,-0.627,-0.4698,-0.3578,-0.3575,-0.526,-0.8097,-0.8094,-0.8326,-0.889,-0.8899,-0.8563,-0.7469,-0.2046,0.1504,0.4071,0.7381,0.9249,1.0223,1.1456,1.2876,1.4342,1.5553,1.5959,1.5912,1.5912,1.5872,1.5832,1.5832,1.5832,1.5832,1.5832,1.5832,1.5832,1.5832,1.5832,1.5832,1.5832,1.5832,1.5832,1.5832,1.5832,1.5832,1.5832,1.5832,1.5832,1.5832,1.5832,1.656,1.8856,1.6985,1.638,1.8628,1.6548,1.5023,1.497,1.4963,1.4863,1.4623,1.3434,1.2087,1.0747,0.9513,0.8352,0.7414,0.7444,0.7516,0.7641,0.7672,0.7743,0.7855,0.7855,0.7855,-0.5043,-0.5641,-0.5772,-0.6064,-0.6057,-0.6295,0.0,0.0,-0.7156,-0.7743,-0.7987,-0.8109,-0.816,-0.8286,-0.8394,-0.8428,-0.834,-0.8249,-0.8252,-0.8069,-0.7904,-0.7586,-0.3571,-0.2745,-0.7476,-0.824,-0.8448,-0.8458,-0.871,-0.8879,-0.8879,-0.8903,-0.8913,-0.8913,-0.893,-0.894,-0.894,-0.885,-0.7616,-0.5031,-0.7304,-0.5613,-0.0448,-0.0559,-0.2123,-0.5041,-0.5035,-0.6505,-0.891,-0.8897,-0.8549,-0.7522,-0.212,0.0223,0.1218,0.6808,0.8843,0.8852,0.8956,1.1419,1.4505,1.4607,1.5444,1.6226,1.6226,1.6039,1.5832,1.5832,1.5832,1.5832,1.5832,1.5832,1.5832,1.5832,1.5832,1.5832,1.5832,1.5832,1.5832,1.5832,1.5832,1.5832,1.5832,1.5832,1.5832,1.5832,1.5832,1.6292,1.7684,1.6633,1.6337,1.7725,1.6345,1.5244,1.4983,1.4963,1.495,1.4917,1.3711,1.2411,1.1298,0.9925,0.8745,0.7573,0.7699,0.777,0.7787,0.7923,0.7997,0.8014,0.8014,0.8014,-0.6391,-0.6583,0.0,0.0,-0.6987,-0.7322,-0.7797,-0.7848,-0.7892,-0.8228,-0.8282,-0.8272,-0.8272,-0.8319,-0.836,0.0,-0.834,-0.7762,-0.6052,-0.7041,-0.8037,-0.8037,-0.6042,-0.5812,-0.8663,-0.8841,-0.8751,-0.8845,-0.8927,-0.8882,-0.8937,-0.894,-0.8977,-0.9059,-0.896,-0.8967,-0.9083,-0.9004,-0.8289,-0.7075,-0.4823,-0.2466,0.0,0.0,-0.0672,-0.1904,-0.1903,-0.2575,-0.3701,-0.3701,-0.359,-0.3144,-0.0897,0.0,0.0335,0.2754,0.4811,0.6431,0.8151,0.991,1.1513,1.2992,1.4293,1.5276,1.5115,1.5486,1.6052,1.5879,1.5832,1.5832,1.5832,1.5832,1.5832,1.5832,1.5832,1.5832,1.5832,1.5832,1.5832,1.5832,1.5832,1.5832,1.5832,1.5832,1.5832,1.5832,1.5832,1.6298,1.7505,1.6574,1.6015,1.6574,1.6001,1.5598,1.5478,1.5471,1.5471,1.5471,1.3467,1.2141,1.1667,0.9665,0.833,0.7855,0.7916,0.7943,0.7943,0.8007,0.8038,0.8038,0.8038,0.8038,-0.7073,0.0,0.0,-0.7231,-0.7689,-0.8085,-0.8011,-0.8167,-0.836,-0.8462,-0.8401,-0.833,-0.833,-0.833,0.0,-0.8394,-0.8401,-0.7736,-0.5605,-0.6907,-0.7991,-0.7991,-0.8028,-0.8191,-0.8809,-0.8689,-0.8704,-0.8896,-0.8886,-0.8846,-0.889,-0.8893,-0.896,-0.9111,-0.9017,-0.867,-0.7964,-0.859,-0.8909,-0.8804,-0.2842,0.0,0.0,0.0,0.0,0.0,0.0,0.0,0.0,0.0,0.0,0.0,0.0,0.0,0.0,0.0,0.1341,0.3571,0.5662,0.7486,0.9162,1.1087,1.2651,1.3793,1.3724,1.4736,1.5738,1.5531,1.5717,1.5952,1.5952,1.5892,1.5832,1.5832,1.5832,1.5832,1.5832,1.5832,1.5832,1.5832,1.5832,1.5832,1.5832,1.5832,1.5832,1.5832,1.5832,1.6109,1.7037,1.6386,1.5832,1.5832,1.5832,1.5832,1.5832,1.5832,1.5832,1.5832,1.3307,1.1945,1.1945,0.941,0.8038,0.8038,0.8038,0.8038,0.8038,0.8038,0.8038,0.8038,0.8038,0.8062,0.0,0.0,-0.7394,-0.7546,-0.7929,-0.8299,-0.8431,-0.8469,-0.8476,-0.8479,-0.8479,-0.8476,-0.8476,-0.8476,-0.853,-0.8592,-0.8754,-0.8828,-0.8762,-0.8317,-0.8033,-0.8033,-0.7965,-0.8191,0.0,-0.8622,-0.8635,-0.8913,-0.8937,-0.8897,-0.8937,-0.8944,-0.8905,-0.8955,-0.9202,-0.7883,-0.4685,-0.7426,-0.8873,-0.8867,-0.2822,0.0,0.0,0.0,0.0,0.0,0.0,0.0,0.0,0.0,0.0,0.0,0.0,0.0,0.0,0.0,0.0112,0.0112,0.0223,0.4003,0.8893,0.8982,1.0281,1.1962,1.27,1.3588,1.4535,1.4529,1.5357,1.6259,1.6259,1.6046,1.5832,1.5832,1.5832,1.5832,1.5832,1.5832,1.5832,1.5832,1.5832,1.5832,1.5832,1.5832,1.5832,1.5832,1.5832,1.5825,1.5825,1.5825,1.5832,1.5832,1.5832,1.5832,1.5832,1.5832,1.5832,1.5832,1.3307,1.1945,1.1945,0.941,0.8038,0.8038,0.8038,0.8038,0.8038,0.8038,0.8038,0.8038,0.8038,0.8119,0.0,0.0,-0.7726,-0.798,-0.8306,-0.8574,-0.8621,-0.8632,-0.8632,-0.8632,-0.8397,-0.8187,-0.8187,-0.8187,-0.8143,-0.8209,-0.6992,-0.671,-0.866,-0.8746,-0.8471,-0.8033,-0.8233,0.0,0.0,0.0,0.0,-0.891,-0.894,-0.8897,-0.8944,-0.9046,-0.8105,-0.6081,-0.8031,-0.8769,-0.8039,-0.4667,-0.2976,-0.2944,-0.0942,0.0,0.0,0.0,0.0,0.0,0.0,0.0,0.0,0.0,0.0,0.0,0.0,0.0,0.0,0.0,0.0,0.0,0.0,0.1338,0.3339,0.5345,0.7746,0.9865,1.019,1.1705,1.3309,1.3157,1.3367,1.3914,1.4825,1.493,1.4929,1.5926,1.5972,1.5832,1.5832,1.5832,1.5832,1.5832,1.5832,1.5832,1.5832,1.5832,1.5832,1.5832,1.5832,1.5832,1.5832,1.5832,1.5832,1.5832,1.5832,1.5832,1.5832,1.5832,1.5832,1.5832,1.3307,1.1945,1.1945,0.941,0.8038,0.8038,0.8038,0.8038,0.8038,0.8038,0.8092,0.8194,0.8194,0.8272,0.0,-0.7892,-0.8048,-0.835,-0.8611,-0.8777,-0.8723,-0.871,-0.8665,-0.8503,-0.8197,-0.7943,-0.7892,-0.7838,-0.7815,-0.7945,-0.6228,-0.5845,-0.853,-0.8889,-0.8659,-0.8376,-0.8521,0.0,0.0,0.0,0.0,-0.8916,-0.9035,-0.9037,-0.904,-0.8108,-0.6081,-0.3028,-0.474,-0.5849,-0.6339,-0.2068,0.0,0.0,0.0,0.0,0.0,0.0,0.0,0.0,0.0,0.0,0.0,0.0,0.0,0.0,0.0,0.0,0.0,0.0,0.0,0.0,0.0,0.0,0.0336,0.2234,0.4229,0.6093,0.8253,1.0058,1.1403,1.1173,1.1831,1.2724,1.3648,1.3678,1.3902,1.5314,1.5484,1.5519,1.5909,1.5985,1.5952,1.5852,1.5832,1.5832,1.5832,1.5832,1.5832,1.5832,1.5832,1.5832,1.5832,1.5832,1.5832,1.5832,1.5832,1.5832,1.5832,1.5832,1.5832,1.5832,1.3307,1.1945,1.1945,0.941,0.8038,0.8038,0.8038,0.8038,0.8038,0.8096,0.8174,0.8272,0.8323,0.8425,-0.7801,-0.8065,-0.8364,-0.8652,-0.8832,-0.8899,-0.8747,-0.8699,-0.856,-0.8109,-0.7882,-0.7719,0.0,0.0,-0.747,-0.788,-0.6724,-0.6443,-0.8628,-0.8769,-0.8709,0.0,0.0,0.0,0.0,0.0,0.0,-0.8964,0.0,-0.9405,-0.9459,-0.6451,-0.3272,-0.0123,0.0,0.0,0.0,0.0,0.0,0.0,0.0,0.0,0.0,0.0,0.0,0.0,0.0,0.0,0.0,0.0,0.0,0.0,0.0,0.0,0.0,0.0,0.0,-0.0,-0.0337,-0.0224,0.0,0.0,0.0,0.1005,0.673,0.8605,0.8653,0.8876,1.0725,1.2634,1.274,1.2477,1.2622,1.4055,1.4456,1.4797,1.5849,1.6195,1.6109,1.583,1.5763,1.5852,1.5852,1.5838,1.5832,1.5832,1.5832,1.5832,1.5832,1.5832,1.5832,1.5832,1.5832,1.5832,1.5832,1.5832,1.5832,1.5832,1.3307,1.1945,1.1945,0.941,0.8038,0.8038,0.8045,0.8052,0.8052,0.8208,0.8286,0.8296,0.8431,0.8574,-0.8211,-0.8452,-0.8642,-0.8832,-0.891,-0.8899,-0.8747,-0.854,-0.8255,-0.7804,-0.7414,-0.7041,-0.6671,0.0,0.0,-0.7695,-0.6561,0.0,-0.8987,-0.9117,0.0,0.0,0.0,-0.9195,-0.9157,-0.9327,0.0,0.0,-0.9245,-0.9349,-0.937,-0.879,-0.5906,-0.0123,0.0,0.0,0.0,0.0,0.0,0.0,0.0,0.0,0.0,0.0,0.0,0.0,0.0,0.0,0.0,0.0,0.0,0.0,0.0,0.0,0.0,0.0,0.0,-0.0685,-0.5146,-0.374,0.0,0.0,0.0,0.0335,0.1787,0.3794,0.6135,0.8269,0.9361,1.0202,1.1255,1.1322,1.1494,1.285,1.3137,1.2997,1.3346,1.4245,1.4938,1.4877,1.5607,1.6159,1.6159,1.5979,1.5832,1.5832,1.5832,1.5832,1.5832,1.5832,1.5832,1.5832,1.5832,1.5832,1.5832,1.5832,1.5832,1.5832,1.3307,1.1945,1.1945,0.941,0.8038,0.8038,0.8153,0.8211,0.8211,0.8357,0.8486,0.8601,0.8635,0.8733,-0.8496,-0.8696,-0.8832,-0.8916,-0.8889,-0.8747,-0.8397,-0.814,-0.7794,-0.7146,-0.681,0.0,-0.6129,0.0,0.0,0.0,0.0,0.0,-0.8933,-0.9147,-0.9222,0.0,-0.9439,0.0,-0.9449,-0.9602,-0.9676,0.0,-0.9486,-0.939,-0.92,-0.9602,-0.6808,-0.0247,0.0,0.0,0.0,0.0,0.0,0.0,0.0,0.0,0.0,0.0,0.0,0.0,0.0,0.0,0.0,0.0,0.0,0.0,0.0,0.0,-0.0357,-0.3214,-0.4108,-0.4254,-0.621,-0.557,-0.3698,-0.2351,-0.2012,-0.1675,-0.0447,0.1228,0.2901,0.4578,0.6829,0.9089,0.9938,0.9972,1.0217,1.1697,1.1931,1.1925,1.2457,1.3164,1.3751,1.3647,1.4133,1.4642,1.4642,1.4418,1.452,1.5114,1.5218,1.5375,1.5943,1.5912,1.5832,1.5832,1.5832,1.5832,1.5832,1.5832,1.5832,1.5832,1.3307,1.1893,1.1983,0.9526,0.817,0.8231,0.8319,0.8364,0.8364,0.8509,0.8625,0.8713,0.8777,0.8855,-0.8699,-0.8835,-0.894,-0.894,-0.8821,-0.855,-0.795,-0.7668,-0.7285,-0.6386,0.0,-0.6047,-0.5742,-0.6193,-0.6809,-0.7421,0.0,-0.8387,-0.8786,-0.9076,-0.9266,-0.9571,-0.9625,-0.9686,-0.9808,-0.9822,-0.9832,-0.9852,-0.9358,-0.9079,-0.9007,-0.8744,-0.5935,-0.0123,0.0,0.0,0.0,0.0,0.0,0.0,0.0,0.0,0.0,0.0,0.0,0.0,0.0,0.0,0.0,0.0,0.0,0.0,0.0,-0.049,-0.1935,-0.7632,-0.9409,-0.8568,-0.5965,-0.6812,-0.8434,-0.5933,-0.5033,-0.4583,-0.2011,-0.0893,-0.0558,-0.0112,0.3688,0.7859,0.8187,0.8638,0.9186,1.0468,1.0789,1.1067,1.2065,1.2452,1.2605,1.2521,1.2462,1.2442,1.2442,1.2417,1.291,1.4343,1.4546,1.4974,1.6163,1.6072,1.5872,1.5832,1.5832,1.5845,1.5885,1.5885,1.5905,1.5945,1.3596,1.2314,1.2204,0.9908,0.856,0.8479,0.8503,0.8513,0.8513,0.8665,0.874,0.8743,0.8876,0.894,-0.918,-0.8916,-0.894,-0.894,-0.8821,-0.855,-0.795,-0.7502,0.0,0.0,0.0,-0.5426,-0.5128,-0.5661,0.0,-0.6798,0.0,0.0,0.0,0.0,-0.9266,0.0,0.0,0.0,0.0,0.0,0.0,0.0,0.0,0.0,-0.9526,-0.4564,-0.1235,-0.0,0.0,0.0,0.0,0.0,0.0,0.0,0.0,0.0,0.0,0.0,0.0,0.0,0.0,0.0,0.0,0.0,0.0,0.0,0.0,-0.3329,-0.8139,-0.8772,-0.9222,-0.9159,-0.8422,-0.852,-0.8866,-0.8317,-0.8094,-0.8091,-0.7524,-0.5599,-0.3237,-0.0669,0.0781,0.2119,0.458,0.7065,0.8994,0.9189,0.9293,0.9389,0.9559,1.0518,1.1693,1.2944,1.2896,1.277,1.277,1.2516,1.291,1.4349,1.4546,1.504,1.6434,1.638,1.6106,1.5852,1.5832,1.5925,1.6179,1.6192,1.6299,1.654,1.5126,1.3819,1.2537,1.1106,0.9688,0.8482,0.8608,0.8669,0.8672,0.8825,0.8899,0.8899,0.8927,0.894,-1.0194,-0.9482,-0.892,-0.8842,-0.8648,-0.8286,-0.7526,0.0,0.0,0.0,0.0,-0.504,-0.4738,0.0,0.0,0.0,0.0,0.0,0.0,0.0,0.0,0.0,0.0,0.0,0.0,0.0,0.0,0.0,0.0,0.0,-0.481,-0.494,-0.3581,-0.0123,0.0,0.0,0.0,0.0,0.0,0.0,0.0,0.0,0.0,0.0,0.0,0.0,0.0,0.0,0.0,0.0,0.0,-0.037,-0.3704,-0.6775,-0.9313,-0.9223,-0.916,-0.9178,-0.9084,-0.896,-0.9064,-0.9839,-0.9514,-0.8863,-0.8873,-0.7961,-0.649,-0.5031,-0.3574,-0.1673,0.1338,0.3237,0.4693,0.6265,0.7736,0.8873,0.885,0.95,1.0147,1.0895,1.0925,1.0758,1.0758,1.0688,1.1052,1.2529,1.3367,1.437,1.5698,1.6397,1.6613,1.6313,1.6286,1.6346,1.6486,1.65,1.656,1.67,1.5469,1.4191,1.2764,1.1522,1.0106,0.872,0.8791,0.8828,0.8828,0.8903,0.894,0.894,0.894,0.8977,-1.1544,-1.0429,-0.9332,-0.9172,-0.8696,-0.8035,-0.7132,-0.6556,0.0,0.0,-0.4867,-0.4758,-0.4551,0.0,0.0,0.0,0.0,0.0,0.0,0.0,0.0,0.0,0.0,0.0,0.0,0.0,0.0,0.0,0.0,0.0,-0.2339,-0.6298,-0.6678,-0.2221,-0.1477,-0.0739,-0.0,0.0,0.0,0.0,0.0,0.0,0.0,0.0,0.0,0.0,0.0,0.0,0.0,0.0,-0.0864,-0.2592,-0.7806,-0.9467,-0.9074,-0.9377,-0.9182,-0.9054,-0.9455,-0.9471,-0.9592,-1.1105,-1.0566,-0.9375,-0.9721,-0.9618,-0.9293,-0.8974,-0.7279,-0.4916,-0.2566,-0.1449,-0.0223,0.279,0.5822,0.7973,0.7958,0.8409,0.8856,0.895,0.8944,0.894,0.894,0.894,0.9372,1.0891,1.2077,1.3311,1.4511,1.586,1.6729,1.6501,1.6572,1.6734,1.6794,1.68,1.6827,1.6887,1.5954,1.4694,1.2997,1.1945,1.0634,0.8937,0.894,0.894,0.894,0.894,0.894,0.894,0.8971,0.9045,-1.2956,-1.1832,-1.0845,-1.0766,-0.9522,-0.8035,-0.7132,0.0,0.0,-0.5077,-0.4697,-0.4594,-0.465,-0.485,0.0,0.0,0.0,0.0,0.0,0.0,0.0,0.0,0.0,0.0,0.0,0.0,0.0,0.0,0.0,0.0,0.0,-0.6662,-0.6405,-0.8784,-0.6033,-0.3073,-0.0,0.0,0.0,0.0,0.0,0.0,0.0,0.0,0.0,0.0,0.0,0.0,0.0,0.0,-0.3458,-0.8937,-0.9565,-0.9697,-0.939,-0.9248,-0.9198,-0.9359,-1.0536,-1.0903,-1.1105,-1.262,-1.2077,-1.1105,-1.2516,-1.1973,-1.0668,-0.9329,-0.8702,-0.8412,-0.8202,-0.6049,-0.3349,-0.0334,0.2678,0.492,0.4918,0.7051,0.8863,0.886,0.8954,0.894,0.894,0.894,0.9372,1.0891,1.1214,1.1855,1.3239,1.4736,1.5589,1.5565,1.6183,1.6814,1.7088,1.7108,1.7221,1.7482,1.7397,1.6113,1.3342,1.3126,1.1733,0.8937,0.894,0.894,0.894,0.894,0.894,0.8944,0.9072,0.914,-1.4138,-1.3102,-1.1954,-1.1011,-1.0071,-0.8952,-0.7166,0.0,-0.5708,-0.5053,-0.4674,-0.4536,-0.4597,-0.4677,-0.4938,0.0,-0.5664,-0.6118,0.0,0.0,0.0,0.0,0.0,0.0,0.0,0.0,0.0,0.0,0.0,0.0,0.0,-0.8503,-0.8503,-0.9784,-0.8506,-0.7261,-0.5914,-0.3936,-0.1968,0.0,0.0,0.0,0.0,0.0,0.0,0.0,0.0,0.0,0.0,0.0,-0.3829,-0.9814,-0.9801,-0.9627,-0.9375,-0.9302,-0.9795,-1.0441,-1.0916,-1.1647,-1.2615,-1.4126,-1.4126,-1.3691,-1.3372,-1.294,-1.229,-1.1724,-1.0882,-1.0033,-0.9147,-0.8054,-0.6388,-0.3461,-0.0446,0.1786,0.1785,0.2677,0.458,0.8196,0.8876,0.887,0.887,0.887,0.9089,0.9632,0.9816,0.9995,1.0627,1.2144,1.3455,1.4121,1.5983,1.7281,1.7402,1.7408,1.7462,1.7575,1.7582,1.6287,1.3372,1.3264,1.1864,0.8937,0.894,0.894,0.894,0.894,0.8984,0.9069,0.9127,0.9252,-1.4868,-1.4231,-1.3091,-1.204,-1.083,-0.9545,0.0,0.0,-0.5569,-0.4975,-0.4643,-0.4519,-0.4519,-0.4551,-0.4735,-0.5077,-0.5298,-0.5742,-0.6641,0.0,0.0,0.0,0.0,0.0,0.0,0.0,0.0,0.0,0.0,0.0,0.0,-0.9846,-0.9856,-0.9757,-0.9856,-0.9859,-0.9767,-0.751,-0.5165,-0.2832,-0.0984,0.0,0.0,0.0,0.0,0.0,0.0,0.0,0.0,-0.2099,-0.5063,-0.8415,-0.9355,-0.9533,-0.9278,-0.9337,-1.0044,-1.1214,-1.1647,-1.2724,-1.4126,-1.563,-1.6062,-1.5849,-1.4883,-1.4234,-1.3911,-1.3911,-1.2832,-1.142,-0.9983,-0.9254,-0.8402,-0.6265,-0.4136,-0.2345,-0.1562,-0.067,0.1228,0.5485,0.6956,0.7636,0.7636,0.7636,0.7636,0.7636,0.7601,0.7569,0.7555,0.953,1.118,1.1955,1.4325,1.6162,1.6929,1.6935,1.7147,1.7582,1.7147,1.5849,1.3372,1.2832,1.1428,0.8937,0.894,0.894,0.894,0.8981,0.9055,0.9154,0.9245,0.9425,-1.5331,-1.4958,-1.4488,-1.4325,-1.1854,-0.9281,0.0,-0.697,-0.542,-0.4816,-0.4568,-0.4519,-0.4519,-0.4519,-0.4609,-0.5057,-0.5389,-0.5901,-0.68,0.0,0.0,0.0,0.0,0.0,0.0,0.0,0.0,0.0,0.0,0.0,0.0,-0.9822,-0.9822,-0.9822,-0.9822,-0.9832,-0.9856,-0.9731,-0.9761,-0.9565,-0.3079,0.0,0.0,0.0,0.0,0.0,0.0,0.0,0.0,-0.7057,-0.779,-0.5278,-0.8357,-0.9419,-0.9364,-0.9211,-1.0054,-1.1324,-1.2724,-1.4234,-1.563,-1.7147,-1.7582,-1.7582,-1.7582,-1.6499,-1.5417,-1.5417,-1.4341,-1.2945,-1.1428,-0.9987,-0.8889,-0.8846,-0.8876,-0.7979,-0.5033,-0.212,0.0,0.0111,0.2454,0.4583,0.4583,0.4583,0.4583,0.4583,0.4583,0.4582,0.4582,0.713,0.8903,0.8903,1.074,1.2798,1.5198,1.5417,1.6062,1.7477,1.628,1.477,1.3372,1.1864,1.0457,0.8937,0.894,0.894,0.894,0.9083,0.915,0.9161,0.9462,0.9683,-1.3768,-1.39,-1.3598,-1.2269,-1.1216,-0.9963,-0.7768,-0.6806,-0.6059,-0.4907,-0.4568,-0.4519,-0.4519,-0.4519,-0.4735,-0.5338,-0.5525,0.0,0.0,0.0,0.0,0.0,0.0,0.0,0.0,0.0,0.0,0.0,0.0,0.0,0.0,0.0,-0.9822,-0.9822,-0.9822,-0.9825,-0.9832,-0.9832,-0.9849,-0.9757,-0.5412,-0.2213,0.0,0.0,0.0,0.0,0.0,0.0,0.0,-0.8937,-0.9108,-0.8119,-0.9171,-1.0044,-1.0673,-1.0614,-1.2133,-1.4126,-1.4556,-1.5743,-1.6935,-1.747,-1.8199,-1.9013,-1.9013,-1.7975,-1.6717,-1.563,-1.5091,-1.4449,-1.294,-1.2281,-1.195,-1.1869,-1.0343,-0.8686,-0.7668,-0.6805,-0.5483,-0.3461,-0.2343,-0.1004,0.1116,0.1452,0.1452,0.1455,0.1456,0.1454,0.1452,0.223,0.3564,0.5688,0.6458,0.8423,1.2577,1.3573,1.4126,1.4669,1.4234,1.3264,1.1864,1.1324,1.0457,0.8937,0.894,0.8988,0.9086,0.913,0.9259,0.9469,0.9663,0.9778,0.0,-1.2832,-1.2805,-1.1667,-1.0964,-1.0081,-0.82,-0.7284,-0.6493,-0.5254,-0.5135,-0.5226,-0.4952,-0.4897,-0.5048,-0.5686,-0.5959,0.0,0.0,0.0,0.0,0.0,0.0,0.0,0.0,0.0,0.0,0.0,0.0,0.0,0.0,0.0,-0.9741,-0.9741,-0.9791,-0.9822,-0.9822,-0.9822,-0.9832,-0.9734,-0.775,-0.4423,0.0,0.0,0.0,0.0,0.0,0.0,0.0,-0.9233,-0.9633,-0.9509,-0.9386,-1.0122,-1.1247,-1.1295,-1.3049,-1.5417,-1.5417,-1.6393,-1.7687,-1.8199,-1.9324,-2.0436,-2.0436,-1.9826,-1.8998,-1.8025,-1.7809,-1.7279,-1.5376,-1.4843,-1.4641,-1.3583,-1.1946,-1.0514,-1.0514,-1.0233,-0.9268,-0.6684,-0.613,-0.5579,-0.3688,-0.2457,-0.1676,-0.1678,-0.1679,-0.1678,-0.1675,-0.1675,-0.1004,0.0892,0.1448,0.3219,0.7065,0.9949,1.1955,1.2709,1.2743,1.2209,1.1105,1.0566,0.9812,0.895,0.889,0.8963,0.9061,0.9178,0.9359,0.9724,0.9812,0.9852,0.0,-1.167,-1.2104,-1.2064,-1.0936,-0.9749,-0.939,-0.8176,0.0,-0.5724,-0.6091,-0.6436,-0.5813,-0.558,-0.5655,-0.6115,0.0,0.0,0.0,0.0,0.0,0.0,0.0,0.0,0.0,0.0,0.0,0.0,0.0,0.0,0.0,0.0,-0.9595,-0.9595,-0.972,-0.9788,-0.9788,-0.9788,-0.9798,-0.9822,-0.9822,-0.6614,-0.0613,-0.0368,0.0,0.0,0.0,0.0,0.0,-0.8339,-0.9496,-0.9571,-0.9384,-1.0257,-1.1552,-1.1494,-1.3156,-1.5524,-1.5524,-1.6493,-1.7996,-1.942,-2.0743,-2.1853,-2.1954,-2.1853,-2.1752,-2.1752,-2.1752,-2.1127,-1.8518,-1.7789,-1.7154,-1.4534,-1.3788,-1.3685,-1.3583,-1.2803,-1.1485,-0.9636,-0.9216,-0.9144,-0.9095,-0.6829,-0.5023,-0.5137,-0.4914,-0.4804,-0.4804,-0.4806,-0.4808,-0.4808,-0.4013,-0.2671,-0.078,0.4998,0.9325,1.1159,1.1463,1.1384,1.1008,0.9596,0.8954,0.8863,0.8665,0.8635,0.8549,0.8943,0.915,0.9406,0.9152,0.9148,-0.9352,0.0,-1.0194,-0.974,-0.9512,-0.9007,0.0,-0.7632,-0.748,-0.5863,0.0,0.0,-0.7305,-0.6478,0.0,0.0,0.0,0.0,0.0,0.0,0.0,0.0,0.0,0.0,0.0,0.0,0.0,0.0,0.0,0.0,0.0,0.0,-0.9435,-0.9435,-0.9466,-0.9486,-0.9486,-0.9486,-0.9486,-0.9493,-0.9513,-0.8797,-0.7125,-0.4624,0.0,0.0,0.0,0.0,-0.8198,-0.9003,-0.9954,-1.083,-1.0852,-1.2275,-1.4412,-1.4358,-1.5524,-1.7041,-1.7041,-1.7975,-1.9524,-2.1963,-2.2976,-2.3384,-2.4402,-2.3285,-2.1752,-2.1752,-2.1752,-2.1541,-2.0915,-2.0703,-2.0601,-1.9861,-1.889,-1.7728,-1.6727,-1.5447,-1.4056,-1.2591,-1.2281,-1.2068,-1.1202,-1.0522,-1.03,-1.1122,-0.9347,-0.7907,-0.7907,-0.7838,-0.7865,-0.7865,-0.7633,-0.7293,-0.6842,0.0111,0.4891,0.6121,0.8285,0.9547,0.9429,0.9099,0.8883,0.8886,0.668,0.5514,0.5586,0.5821,0.601,0.6031,0.3428,0.2321,-0.8804,-0.9332,-0.9806,-0.9486,-0.9526,-0.9362,-0.8396,0.0,0.0,0.0,0.0,0.0,0.0,0.0,0.0,0.0,0.0,0.0,0.0,0.0,0.0,0.0,0.0,0.0,0.0,0.0,0.0,0.0,0.0,0.0,0.0,0.0,-1.0288,-1.0288,-0.955,-0.9242,-0.9381,-0.9381,-0.9381,-0.9381,-0.9395,-0.9405,-0.9295,-0.7516,0.0,0.0,0.0,0.0,-1.0301,-1.0222,-1.1029,-1.2256,-1.2271,-1.3474,-1.5417,-1.5417,-1.6692,-1.8506,-1.8506,-1.9826,-2.176,-2.3176,-2.4097,-2.4716,-2.543,-2.4716,-2.3583,-2.3583,-2.3583,-2.3384,-2.2776,-2.2667,-2.2466,-2.1853,-2.1095,-2.035,-1.9553,-1.8808,-1.7845,-1.6386,-1.6175,-1.5535,-1.373,-1.3414,-1.3332,-1.3305,-1.1978,-1.0866,-1.0866,-1.0907,-1.061,-0.9957,-0.9957,-0.9632,-0.8991,-0.4905,-0.1445,0.089,0.2562,0.3901,0.4792,0.4792,0.4826,0.4676,0.1752,0.0238,0.0242,0.0366,0.0368,0.0368,-0.1469,-0.306,-0.8918,-0.9613,-1.0261,-1.004,-1.0087,-1.0099,-0.9946,0.0,0.0,0.0,0.0,0.0,0.0,0.0,0.0,0.0,0.0,0.0,0.0,0.0,0.0,0.0,0.0,0.0,0.0,0.0,0.0,0.0,0.0,0.0,0.0,0.0,0.0,-1.1329,-0.9987,-0.9279,-0.931,-0.9313,-0.9313,-0.9313,-0.9313,-0.9208,-0.9106,-0.9106,-0.9106,0.0,0.0,0.0,-1.1444,-1.1505,-1.2437,-1.3753,-1.3666,-1.4449,-1.5743,-1.5943,-1.7522,-1.9627,-2.0033,-2.176,-2.3683,-2.389,-2.4815,-2.5742,-2.5742,-2.583,-2.6014,-2.6014,-2.6014,-2.5713,-2.4304,-2.4187,-2.3971,-2.2659,-2.2265,-2.2257,-2.2055,-2.2055,-2.1626,-2.0115,-1.98,-1.9074,-1.6682,-1.6268,-1.5858,-1.4736,-1.4421,-1.4207,-1.4008,-1.3788,-1.3038,-1.1538,-1.1433,-1.0899,-0.9728,-0.9621,-0.8143,-0.477,-0.4114,-0.3112,-0.144,-0.1443,-0.1581,-0.1748,-0.4282,-0.5694,-0.5659,-0.5659,-0.5659,-0.5659,-0.5655,-0.7143,-0.9412,-1.0367,-1.0929,-0.9628,-0.9933,-1.023,-0.9075,0.0,0.0,0.0,0.0,0.0,0.0,0.0,0.0,0.0,0.0,0.0,0.0,0.0,0.0,0.0,0.0,0.0,0.0,0.0,0.0,0.0,0.0,0.0,0.0,0.0,0.0,-1.1147,-1.0903,-1.0158,-0.9005,-0.9005,-0.9005,-0.9005,-0.9005,-0.9008,-0.89,-0.89,-0.89,0.0,0.0,-1.0978,-1.13,-1.246,-1.3856,-1.5148,-1.5108,-1.5962,-1.7358,-1.8589,-1.9206,-1.9937,-2.2265,-2.3384,-2.3899,-2.502,-2.5538,-2.5742,-2.5742,-2.6476,-2.7315,-2.7315,-2.7315,-2.703,-2.5713,-2.6167,-2.6723,-2.5401,-2.5128,-2.4815,-2.3692,-2.3384,-2.2968,-2.1626,-2.1322,-2.1212,-2.0798,-2.0696,-2.0696,-2.0491,-1.9302,-1.8151,-1.7049,-1.5771,-1.45,-1.3151,-1.294,-1.2837,-1.2625,-1.2625,-1.2394,-1.1706,-0.9372,-0.7859,-0.7516,-0.7841,-0.8085,-0.8362,-0.8866,-0.9013,-0.9026,-0.9026,-0.9026,-0.9026,-0.9001,-0.9361,-0.8905,-0.9826,-1.0595,-1.008,-1.0855,-1.1554,-1.0786,0.0,0.0,0.0,0.0,0.0,0.0,0.0,0.0,0.0,0.0,0.0,0.0,0.0,0.0,0.0,0.0,0.0,0.0,0.0,0.0,0.0,0.0,0.0,0.0,0.0,0.0,0.0,-1.186,-1.0781,-1.0131,-0.9265,-0.894,-0.894,-0.894,-0.894,-0.894,-0.894,-0.9372,-1.0135,0.0,-1.1969,-1.348,-1.4126,-1.5719,-1.7627,-1.6916,-1.7955,-2.0025,-2.1355,-2.1862,-2.2064,-2.4097,-2.4815,-2.5011,-2.6274,-2.6764,-2.6849,-2.7484,-2.8132,-2.8588,-2.8588,-2.8588,-2.8402,-2.7851,-2.8132,-2.8402,-2.7851,-2.7662,-2.7379,-2.6118,-2.5828,-2.5441,-2.4088,-2.389,-2.3583,-2.2876,-2.2767,-2.2558,-2.1853,-2.1103,-2.0468,-1.9869,-1.9221,-1.7963,-1.5795,-1.5583,-1.4955,-1.348,-1.3264,-1.3264,-1.3264,-1.1996,-1.1253,-1.1253,-1.1643,-1.1502,-1.0674,-1.0932,-1.1106,-1.1061,-1.1061,-1.1542,-1.2384,-1.2363,-1.2354,-0.8624,-0.9332,-1.01,-1.053,0.0,-1.2338,-1.2378,0.0,0.0,0.0,0.0,0.0,0.0,0.0,0.0,0.0,0.0,0.0,0.0,0.0,0.0,0.0,0.0,0.0,0.0,0.0,0.0,0.0,0.0,0.0,0.0,0.0,0.0,0.0,-1.3264,-1.1755,-1.1105,-1.0025,-0.9265,-0.894,-0.894,-0.894,-0.894,-0.894,-0.9699,-1.1105,-1.1428,-1.3048,-1.5417,-1.6156,-1.7627,-1.9524,-1.8812,-2.0025,-2.2257,-2.3285,-2.389,-2.4304,-2.5323,-2.5927,-2.6294,-2.7315,-2.7767,-2.8226,-2.9131,-2.959,-2.9863,-2.9863,-3.0045,-3.0135,-2.959,-2.959,-2.9772,-2.9498,-2.9407,-2.9131,-2.8226,-2.8049,-2.7767,-2.6754,-2.6562,-2.6254,-2.5227,-2.4846,-2.4258,-2.3231,-2.285,-2.2567,-2.2257,-2.2156,-2.1221,-1.8726,-1.8518,-1.7468,-1.4961,-1.4443,-1.4443,-1.4753,-1.3798,-1.3264,-1.3264,-1.3694,-1.3359,-1.2109,-1.2495,-1.2813,-1.2813,-1.2813,-1.3407,-1.4604,-1.4604,-1.4604,-0.9365,-0.9653,-0.9853,-1.0477,0.0,0.0,-1.2486,-1.2044,0.0,0.0,0.0,0.0,0.0,0.0,0.0,0.0,0.0,0.0,0.0,0.0,0.0,0.0,0.0,0.0,0.0,0.0,0.0,0.0,0.0,0.0,0.0,0.0,0.0,0.0,0.0,-1.3798,-1.1105,-1.1,-1.0241,-0.894,-0.894,-0.894,-0.894,-0.894,-0.9699,-1.1214,-1.2512,-1.4019,-1.563,-1.8255,-1.942,-1.9731,-2.0939,-2.2265,-2.3583,-2.3692,-2.451,-2.5538,-2.5645,-2.6476,-2.7494,-2.7589,-2.8319,-2.9315,-2.9407,-3.0226,-3.1033,-3.1033,-3.1965,-3.2339,-2.9954,-3.0226,-3.0765,-2.9681,-2.9407,-2.9407,-2.9315,-2.9315,-2.9223,-2.9131,-2.9131,-2.9131,-2.9028,-2.8017,-2.7295,-2.7189,-2.6167,-2.4922,-2.3692,-2.3583,-2.2968,-2.1541,-2.144,-2.0829,-1.9302,-1.7975,-1.7772,-1.9102,-1.5494,-1.3264,-1.3264,-1.3694,-1.3818,-1.3705,-1.4137,-1.4485,-1.4485,-1.4485,-1.4485,-1.4604,-1.4604,-1.4604,-0.8781,-0.9272,-0.9866,-1.0641,0.0,0.0,0.0,0.0,0.0,0.0,0.0,0.0,0.0,0.0,0.0,0.0,0.0,0.0,0.0,0.0,0.0,0.0,0.0,0.0,0.0,0.0,0.0,0.0,0.0,0.0,0.0,0.0,0.0,0.0,0.0,-1.4803,-1.3593,-1.2636,-1.1403,-0.9815,-0.917,-0.894,-0.8937,-0.9805,-1.1105,-1.2512,-1.4019,-1.5931,-1.8046,-1.9206,-2.0641,-2.2274,-2.3692,-2.3998,-2.3881,-2.5538,-2.5974,-2.5917,-2.7484,-2.7851,-2.7861,-2.9315,-3.0135,-3.0676,-3.1424,-3.2052,-3.2426,-3.2426,-3.2698,-3.2884,-3.1965,-3.2064,-3.2239,-3.1789,-3.1689,-3.1512,-3.0676,-3.0496,-3.0316,-2.959,-2.9407,-2.9407,-2.9407,-2.9039,-2.868,-2.868,-2.7673,-2.6733,-2.6224,-2.5382,-2.4402,-2.3076,-2.2156,-2.1143,-1.9731,-1.993,-2.0025,-1.9627,-1.8144,-1.7272,-1.7556,-1.7836,-1.7247,-1.551,-1.5848,-1.6138,-1.6138,-1.7043,-1.7958,-1.9021,-1.9915,-2.0366,-0.852,-0.9227,-1.0205,0.0,0.0,0.0,0.0,0.0,0.0,0.0,0.0,0.0,0.0,0.0,0.0,0.0,0.0,0.0,0.0,0.0,0.0,0.0,0.0,0.0,0.0,0.0,0.0,0.0,0.0,0.0,0.0,0.0,0.0,0.0,0.0,0.0,-1.4815,-1.3871,-1.2541,-1.1066,-1.0281,-0.9757,-0.9439,-1.0562,-1.2051,-1.3694,-1.4836,-1.6866,-1.947,-1.9974,-2.1753,-2.4402,-2.5323,-2.5401,-2.5149,-2.6904,-2.7305,-2.7115,-2.8855,-2.9131,-2.9039,-3.0676,-3.1488,-3.1965,-3.2797,-3.3081,-3.3081,-3.3081,-3.3081,-3.3081,-3.3081,-3.3081,-3.3081,-3.3081,-3.3081,-3.2884,-3.1965,-3.1777,-3.1601,-3.0687,-3.0598,-3.0598,-3.0598,-3.0226,-2.9954,-2.9954,-2.8947,-2.8132,-2.8132,-2.74,-2.634,-2.5051,-2.3358,-2.1954,-2.0947,-2.1347,-2.1448,-2.0947,-2.0845,-2.0854,-2.057,-2.1009,-2.0361,-1.8453,-1.8944,-1.9143,-1.9143,-2.0151,-2.1185,-2.2363,-2.3375,-2.3822,-0.8874,-0.9649,-1.0776,0.0,0.0,0.0,0.0,0.0,0.0,0.0,0.0,0.0,0.0,0.0,0.0,0.0,0.0,0.0,0.0,0.0,0.0,0.0,0.0,0.0,0.0,0.0,0.0,0.0,0.0,0.0,0.0,0.0,0.0,0.0,0.0,0.0,-1.454,-1.454,-1.3824,-1.2392,-1.2392,-1.1672,-1.0448,-1.0737,-1.2282,-1.4558,-1.4918,-1.6574,-1.9343,-2.071,-2.3019,-2.5732,-2.5732,-2.6476,-2.7589,-2.7589,-2.8402,-2.9407,-2.9407,-3.0226,-3.1223,-3.1223,-3.2052,-3.3081,-3.3081,-3.3081,-3.3081,-3.3081,-3.3081,-3.3081,-3.3081,-3.3081,-3.3081,-3.3081,-3.3081,-3.3081,-3.3081,-3.3081,-3.3081,-3.3081,-3.3081,-3.3081,-3.3081,-3.2052,-3.1223,-3.1223,-3.0226,-2.9407,-2.9407,-2.9407,-2.8947,-2.7778,-2.5246,-2.3683,-2.3692,-2.2458,-2.2257,-2.3592,-2.3683,-2.3076,-2.1752,-2.2352,-2.2749,-2.2749,-2.3459,-2.3822,-2.3822,-2.3822,-2.3822,-2.3822,-2.3822,-2.3822,-0.9984,-1.0988,0.0,0.0,0.0,0.0,0.0,0.0,0.0,0.0,0.0,0.0,0.0,0.0,0.0,0.0,0.0,0.0,0.0,0.0,0.0,0.0,0.0,0.0,0.0,0.0,0.0,0.0,0.0,0.0,0.0,0.0,0.0,0.0,0.0,0.0,-1.5795,-1.5789,-1.4992,-1.3417,-1.3417,-1.2899,-1.1887,-1.2977,-1.3793,-1.4653,-1.664,-1.8471,-2.0362,-2.2865,-2.4993,-2.6588,-2.6907,-2.7767,-2.8947,-2.9863,-2.9863,-2.9681,-3.1424,-3.1689,-3.1311,-3.2239,-3.2797,-3.3081,-3.3081,-3.3081,-3.3081,-3.3081,-3.3081,-3.3081,-3.3081,-3.3081,-3.3081,-3.3081,-3.3081,-3.3081,-3.3081,-3.3081,-3.3081,-3.3081,-3.3081,-3.3081,-3.3081,-3.2797,-3.2525,-3.2525,-3.15,-3.0406,-2.9498,-2.868,-2.8049,-2.7683,-2.6071,-2.4716,-2.3791,-2.4205,-2.4304,-2.3683,-2.4609,-2.4631,-2.3463,-2.386,-2.3823,-2.302,-2.3582,-2.3822,-2.3822,-2.4931,-2.538,-2.548,-2.6499,-2.6952,-1.1293,0.0,0.0,0.0,0.0,0.0,0.0,0.0,0.0,0.0,0.0,0.0,0.0,0.0,0.0,0.0,0.0,0.0,0.0,0.0,0.0,0.0,0.0,0.0,0.0,0.0,0.0,0.0,0.0,0.0,0.0,0.0,0.0,0.0,0.0,0.0,-1.6099,-1.6092,-1.5608,-1.4657,-1.4657,-1.434,-1.3751,-1.4248,-1.4642,-1.5146,-1.7984,-1.9886,-2.1346,-2.3852,-2.5262,-2.6003,-2.6743,-2.7748,-2.8903,-3.0156,-3.0418,-3.0418,-3.187,-3.2091,-3.1723,-3.2461,-3.288,-3.3081,-3.3081,-3.3081,-3.3081,-3.3081,-3.3081,-3.3081,-3.3081,-3.3081,-3.3081,-3.3081,-3.3081,-3.3081,-3.3081,-3.3081,-3.3081,-3.3081,-3.3081,-3.3081,-3.3081,-3.3081,-3.3081,-3.3081,-3.2426,-3.1689,-3.0956,-2.9407,-2.8319,-2.8319,-2.6754,-2.5333,-2.4609,-2.5226,-2.5333,-2.451,-2.5693,-2.618,-2.5513,-2.6078,-2.6088,-2.5477,-2.6034,-2.6109,-2.5608,-2.6499,-2.6943,-2.7051,-2.7843,-2.8291,0.0,0.0,0.0,0.0,0.0,0.0,0.0,0.0,0.0,0.0,0.0,0.0,0.0,0.0,0.0,0.0,0.0,0.0,0.0,0.0,0.0,0.0,0.0,0.0,0.0,0.0,0.0,0.0,0.0,0.0,0.0,0.0,0.0,0.0,0.0,0.0,-1.5832,-1.5832,-1.5832,0.0,-1.5832,-1.5832,-1.5743,-1.4807,-1.5074,-1.6298,-1.8902,-2.0821,-2.219,-2.3712,-2.4447,-2.4804,-2.5823,-2.7062,-2.835,-2.94,-3.0443,-3.1386,-3.1386,-3.1725,-3.2139,-3.2139,-3.2491,-3.293,-3.293,-3.293,-3.293,-3.293,-3.2955,-3.3006,-3.3006,-3.3031,-3.3081,-3.3081,-3.3081,-3.3081,-3.3081,-3.3081,-3.3081,-3.3081,-3.3081,-3.3081,-3.3081,-3.3081,-3.3081,-3.3081,-3.3081,-3.3081,-3.3081,-3.1057,-2.959,-2.959,-2.7484,-2.6014,-2.6014,-2.6014,-2.6014,-2.6014,-2.7125,-2.7767,-2.7955,-2.8752,-2.9141,-2.9031,-2.9845,-2.9713,-2.8495,-2.8398,-2.8291,-2.8291,-2.8291,-2.8398,0.0,-1.462,0.0,0.0,0.0,0.0,0.0,0.0,0.0,0.0,0.0,0.0,0.0,0.0,0.0,0.0,0.0,0.0,0.0,0.0,0.0,0.0,0.0,0.0,0.0,0.0,0.0,0.0,0.0,0.0,0.0,0.0,0.0,0.0,0.0,-1.5832,-1.5832,-1.5832,-1.5832,0.0,-1.5832,-1.5832,-1.5832,-1.5599,-1.6704,-1.8764,-1.9387,-2.0887,-2.2948,-2.365,-2.504,-2.6715,-2.7261,-2.8792,-3.0692,-3.0951,-3.121,-3.1386,-3.1386,-3.1461,-3.1574,-3.1574,-3.165,-3.175,-3.175,-3.175,-3.175,-3.175,-3.2064,-3.2403,-3.2403,-3.2742,-3.3081,-3.3081,-3.3081,-3.3081,-3.3081,-3.3081,-3.3081,-3.3081,-3.3081,-3.3081,-3.3081,-3.3081,-3.3081,-3.3081,-3.3081,-3.3081,-3.3081,-3.1777,-3.0765,-3.0765,-2.9498,-2.8577,-2.8577,-2.8577,-2.8577,-2.8577,-2.8855,-2.9407,-3.0406,-3.0454,-3.05,-3.05,-3.0344,-3.011,-2.9911,-2.8794,-2.8291,-2.8291,-2.8291,-2.89,0.0,0.0,0.0,0.0,0.0,0.0,0.0,0.0,0.0,0.0,0.0,0.0,0.0,0.0,0.0,0.0,0.0,0.0,0.0,0.0,0.0,0.0,0.0,0.0,0.0,0.0,0.0,0.0,0.0,0.0,0.0,0.0,0.0,0.0,-1.5832,-1.5832,-1.5832,-1.5832,-1.6109,-1.6669,-1.6669,-1.703,-1.7576,-1.6936,-1.8033,-2.0395,-2.0395,-2.14,-2.3154,-2.3379,-2.4492,-2.6201,-2.6963,-2.8326,-2.9917,-3.0448,-3.062,-3.062,-3.062,-3.0796,-3.1022,-3.1022,-3.1185,-3.1386,-3.1386,-3.1386,-3.1386,-3.1386,-3.1599,-3.1813,-3.1813,-3.224,-3.2667,-3.2667,-3.288,-3.3081,-3.3081,-3.3081,-3.3081,-3.3081,-3.3081,-3.3081,-3.3081,-3.3081,-3.3081,-3.3081,-3.3081,-3.3081,-3.3081,-3.1965,-3.1223,-3.1223,-3.0135,-2.9407,-2.9407,-2.9407,-2.9407,-2.9407,-2.9954,-3.0586,-3.1134,-3.1905,-3.2171,-3.1734,-3.2047,-3.1938,-3.1224,-3.0514,-3.0214,-3.0214,-3.0214,-3.0618,0.0,0.0,0.0,0.0,0.0,0.0,0.0,0.0,0.0,0.0,0.0,0.0,0.0,0.0,0.0,0.0,0.0,0.0,0.0,0.0,0.0,0.0,0.0,0.0,0.0,0.0,0.0,0.0,0.0,0.0,0.0,0.0,-1.6109,-1.6109,-1.592,-1.5832,-1.5832,-1.5832,-1.648,-1.7692,-1.787,-1.868,-1.9761,-1.8772,-1.9397,-2.1293,-2.1293,-2.1943,-2.3135,-2.3299,-2.4049,-2.521,-2.6307,-2.7452,-2.8518,-2.9456,-2.9792,-2.9792,-2.9792,-3.0093,-3.047,-3.0681,-3.0905,-3.1191,-3.1339,-3.1259,-3.111,-3.111,-3.1185,-3.1248,-3.1248,-3.1662,-3.2102,-3.219,-3.2579,-3.2955,-3.3056,-3.3081,-3.3081,-3.3081,-3.3081,-3.3081,-3.3081,-3.3081,-3.3154,-3.3313,-3.3398,-3.3484,-3.3628,-3.2698,-3.1967,-3.1816,-3.0909,-3.0203,-3.0045,-3.0045,-3.0045,-3.0045,-3.0956,-3.15,-3.15,-3.3044,-3.3551,-3.2939,-3.3803,-3.3679,-3.2644,-3.2431,-3.2331,-3.2331,-3.2331,-3.2431,0.0,0.0,0.0,0.0,0.0,0.0,0.0,0.0,0.0,0.0,0.0,0.0,0.0,0.0,0.0,0.0,0.0,0.0,0.0,0.0,0.0,0.0,0.0,0.0,0.0,0.0,0.0,0.0,0.0,0.0,0.0,-1.8041,-1.7412,-1.7412,-1.6386,-1.5832,-1.5832,-1.5832,-1.648,-1.7684,-1.8772,-1.9852,-2.1025,-2.0935,-2.1025,-2.1293,-2.1293,-2.1943,-2.3135,-2.4125,-2.521,-2.6389,-2.7441,-2.8597,-2.9611,-2.9714,-2.9792,-2.9792,-2.9792,-2.9842,-3.0047,-3.0888,-3.0649,-3.0148,-3.0979,-3.0637,-3.0005,-3.0005,-3.0344,-3.0721,-3.0721,-3.1097,-3.1625,-3.2102,-3.2277,-3.2466,-3.2968,-3.3081,-3.3081,-3.3081,-3.3081,-3.3081,-3.3081,-3.3081,-3.3398,-3.4345,-3.4511,-3.4815,-3.5654,-3.5627,-3.5238,-3.4306,-3.4056,-3.3649,-3.2698,-3.2612,-3.2612,-3.2612,-3.2797,-3.2884,-3.2884,-3.3508,-3.3846,-3.3731,-3.363,-3.3813,-3.408,-3.2844,-3.2331,-3.2331,-3.2331,-3.2944,0.0,0.0,0.0,0.0,0.0,0.0,0.0,0.0,0.0,0.0,0.0,0.0,0.0,0.0,0.0,0.0,0.0,0.0,0.0,0.0,0.0,0.0,0.0,0.0,0.0,0.0,0.0,0.0,0.0,0.0,-1.9488,-1.9047,-1.8411,-1.7692,-1.7131,-1.685,-1.685,-1.685,-1.7855,-1.9761,-2.0953,-2.1765,-2.2306,-2.2306,-2.2306,-2.2306,-2.2306,-2.2589,-2.3222,-2.4296,-2.5462,-2.6637,-2.7683,-2.8767,-2.9792,-2.9792,-3.0139,-3.0558,-3.0558,-3.0908,-3.1402,-3.1815,-3.1683,-3.1341,-3.1254,-3.0895,-3.0482,-2.9934,-2.9967,-3.0156,-3.0156,-3.0557,-3.1022,-3.126,-3.1775,-3.2277,-3.2541,-3.2842,-3.3081,-3.3081,-3.3081,-3.3326,-3.3869,-3.4037,-3.4345,-3.5346,-3.5507,-3.5668,-3.6119,-3.6198,-3.6053,-3.5588,-3.5507,-3.5346,-3.4884,-3.4345,-3.4037,-3.4037,-3.3398,-3.3081,-3.3081,-3.3307,-3.3906,-3.4792,-3.4653,-3.4777,-3.5034,-3.4703,-3.4642,-3.4642,-3.4642,-3.4945,0.0,0.0,0.0,0.0,0.0,0.0,0.0,0.0,0.0,0.0,0.0,0.0,0.0,0.0,0.0,0.0,0.0,0.0,0.0,0.0,0.0,0.0,0.0,0.0,0.0,0.0,0.0,0.0,0.0,0.0,-2.0404,-2.0124,-1.9588,-1.868,-1.8319,-1.8141,-1.8141,-1.8503,-1.9497,-2.1293,-2.2492,-2.3212,-2.3551,-2.3551,-2.3724,-2.3973,-2.3637,-2.3724,-2.4059,-2.521,-2.6119,-2.7046,-2.8108,-2.9028,-2.9792,-2.9792,-3.0419,-3.118,-3.118,-3.1815,-3.2664,-3.289,-3.282,-3.2536,-3.2033,-3.1609,-3.1044,-3.0343,-2.9998,-2.9792,-2.9792,-3.0093,-3.0444,-3.0583,-3.1323,-3.2089,-3.2365,-3.2767,-3.3081,-3.3081,-3.3313,-3.3797,-3.4594,-3.4897,-3.544,-3.6448,-3.6604,-3.6682,-3.7007,-3.7007,-3.693,-3.6604,-3.6604,-3.6526,-3.6198,-3.5507,-3.5047,-3.5047,-3.4332,-3.3869,-3.3869,-3.3869,-3.4457,-3.5605,-3.5934,-3.6251,-3.6406,-3.6972,-3.7163,-3.6803,-3.6803,-3.6722,0.0,0.0,0.0,0.0,0.0,0.0,0.0,0.0,0.0,0.0,0.0,0.0,0.0,0.0,0.0,0.0,0.0,0.0,0.0,0.0,0.0,0.0,0.0,0.0,0.0,0.0,0.0,0.0,0.0,0.0,-2.2862,-2.1845,-2.1203,-2.1114,-2.0034,-1.9405,-1.9405,-2.0576,-2.1203,-2.1293,-2.2492,-2.3637,-2.4702,-2.4702,-2.5294,-2.6224,-2.521,-2.5294,-2.6389,-2.7522,-2.7924,-2.8096,-2.9287,-2.9792,-2.9792,-2.9792,-3.0419,-3.118,-3.118,-3.1815,-3.2749,-3.3671,-3.331,-3.2749,-3.3602,-3.2593,-3.118,-3.1106,-3.0482,-2.9792,-2.9792,-2.9817,-2.9967,-3.0495,-3.1035,-3.1725,-3.2805,-3.3056,-3.3081,-3.3081,-3.3953,-3.4664,-3.4664,-3.5521,-3.6448,-3.7587,-3.7753,-3.8069,-3.9104,-3.925,-3.8855,-3.7829,-3.7753,-3.7343,-3.629,-3.6119,-3.6119,-3.6119,-3.6053,-3.6053,-3.6053,-3.6053,-3.6067,-3.6174,-3.7304,-3.8128,-3.869,-3.9408,-3.9094,-3.803,-3.803,-3.7415,0.0,0.0,0.0,0.0,0.0,0.0,0.0,0.0,0.0,0.0,0.0,0.0,0.0,0.0,0.0,0.0,0.0,0.0,0.0,0.0,0.0,0.0,0.0,0.0,0.0,0.0,0.0,0.0,0.0,0.0,-2.3047,-2.2677,-2.212,-2.1293,-2.0845,-2.0666,-2.0666,-2.2591,-2.3567,-2.3567,-2.4702,-2.5473,-2.588,-2.588,-2.6461,-2.7522,-2.7105,-2.6789,-2.6554,-2.7683,-2.8096,-2.8176,-2.9365,-2.9792,-2.9792,-2.9792,-3.0771,-3.2105,-3.2105,-3.3115,-3.4491,-3.4839,-3.4773,-3.4409,-3.4095,-3.3518,-3.2749,-3.1536,-3.097,-3.0558,-2.9934,-2.9792,-2.993,-3.0482,-3.1009,-3.1599,-3.2353,-3.2817,-3.3313,-3.3953,-3.4428,-3.5142,-3.6489,-3.6958,-3.7771,-3.9388,-3.9688,-3.9773,-4.017,-4.0239,-3.9889,-3.8929,-3.8855,-3.8694,-3.8294,-3.7648,-3.7266,-3.7266,-3.6604,-3.6198,-3.6198,-3.6198,-3.6526,-3.7175,-3.8487,-3.8915,-3.8407,-3.9416,-3.9724,-3.9271,-3.9271,-3.9019,-0.92,0.0,0.0,0.0,0.0,0.0,0.0,0.0,0.0,0.0,0.0,0.0,0.0,0.0,0.0,0.0,0.0,0.0,0.0,0.0,0.0,0.0,0.0,0.0,0.0,0.0,0.0,0.0,0.0,0.0,-2.3135,-2.3135,-2.2765,-2.1933,-2.1933,-2.1933,-2.1933,-2.3836,-2.4787,-2.4787,-2.5975,-2.6719,-2.7046,-2.7046,-2.7614,-2.8688,-2.8688,-2.8279,-2.7637,-2.8359,-2.8688,-2.8767,-2.9534,-2.9792,-2.9792,-2.9792,-3.0996,-3.2593,-3.2593,-3.3905,-3.5504,-3.5504,-3.5504,-3.5359,-3.4691,-3.4245,-3.3739,-3.2464,-3.1888,-3.1462,-3.0482,-3.0075,-2.993,-3.0482,-3.0884,-3.1336,-3.2051,-3.2667,-3.3398,-3.4511,-3.4979,-3.5762,-3.751,-3.8324,-3.9188,-4.0538,-4.0946,-4.1147,-4.1147,-4.0878,-4.05,-3.9935,-3.9538,-3.9424,-3.9424,-3.8782,-3.8308,-3.8308,-3.7648,-3.7238,-3.7238,-3.7238,-3.7572,-3.8308,-3.9638,-3.9967,-3.9249,-4.0404,-4.0831,-4.049,-4.049,-4.0232,0.0,0.0,0.0,0.0,0.0,0.0,0.0,0.0,0.0,0.0,0.0,0.0,0.0,0.0,0.0,0.0,0.0,0.0,0.0,0.0,0.0,0.0,0.0,0.0,0.0,0.0,0.0,0.0,0.0,-2.3105,-2.3105,-2.3105,-2.3105,-2.3125,-2.3115,-2.3125,-2.3135,-2.4296,-2.4872,-2.4872,-2.6047,-2.7128,-2.8176,-2.8176,-2.8767,-2.9792,-2.9792,-2.9792,-2.9792,-2.9792,-2.9792,-2.9792,-2.9792,-2.9792,-2.9792,-2.9869,-3.0983,-3.2593,-3.2593,-3.3905,-3.5504,-3.5504,-3.5504,-3.5504,-3.5504,-3.4839,-3.4027,-3.4027,-3.331,-3.2464,-3.1462,-3.0558,-2.9995,-3.0536,-3.0675,-3.0896,-3.1938,-3.2629,-3.3373,-3.4498,-3.5507,-3.6526,-3.7663,-3.9474,-4.069,-4.0743,-4.1478,-4.2062,-4.2062,-4.128,-4.0758,-4.069,-3.992,-3.9424,-3.9424,-3.9424,-3.9424,-3.9424,-3.9424,-3.9424,-3.9424,-3.9424,-3.9424,-3.9424,-4.0711,-4.1384,-4.1384,-4.2686,-4.2725,-4.167,-4.167,-4.1085,-0.9062,0.0,0.0,0.0,0.0,0.0,0.0,0.0,0.0,0.0,0.0,0.0,0.0,0.0,0.0,0.0,0.0,0.0,0.0,0.0,0.0,0.0,0.0,0.0,0.0,0.0,0.0,0.0,-2.2236,-2.2236,-2.2236,-2.2236,-2.2373,-2.2676,-2.3497,-2.4052,-2.4296,-2.6191,-2.7186,-2.7186,-2.8371,-2.904,-2.9365,-2.9365,-2.9534,-2.9792,-2.9792,-2.9792,-2.9792,-2.9792,-2.9792,-2.9792,-2.9792,-2.9792,-2.9856,-3.0558,-3.1536,-3.2678,-3.338,-3.4476,-3.5504,-3.5504,-3.5504,-3.5504,-3.5504,-3.5294,-3.492,-3.4177,-3.3808,-3.338,-3.2464,-3.2033,-3.1869,-3.2031,-3.1823,-3.1694,-3.1993,-3.223,-3.3117,-3.5345,-3.6053,-3.6951,-3.9444,-4.0332,-4.1147,-4.2395,-4.2785,-4.2909,-4.2909,-4.2724,-4.2125,-4.0811,-4.05,-4.013,-3.9481,-3.9424,-3.9424,-3.9424,-3.9424,-3.9424,-3.9424,-3.9424,-3.9424,-3.9424,-4.0711,-4.1384,-4.1384,-4.2686,-4.3155,-4.282,-4.282,-4.2644,0.0,0.0,0.0,0.0,0.0,0.0,0.0,0.0,0.0,0.0,0.0,0.0,0.0,0.0,0.0,0.0,0.0,0.0,0.0,0.0,0.0,0.0,0.0,0.0,0.0,0.0,0.0,0.0,-2.2113,-2.204,-2.2493,-2.2493,-2.2767,-2.3423,-2.4066,-2.4686,-2.515,-2.6864,-2.787,-2.8084,-2.9275,-2.9792,-2.9792,-2.9792,-2.9792,-2.9792,-2.9792,-2.9792,-2.9792,-2.9792,-2.9792,-2.9792,-2.9792,-2.9792,-2.9934,-3.0833,-3.1815,-3.2749,-3.3671,-3.4691,-3.5504,-3.5504,-3.5504,-3.5504,-3.5504,-3.5504,-3.5359,-3.4758,-3.4312,-3.3876,-3.331,-3.289,-3.2593,-3.2593,-3.2436,-3.232,-3.2576,-3.2345,-3.2758,-3.4807,-3.5716,-3.7013,-3.9597,-4.0696,-4.1739,-4.3108,-4.3621,-4.3814,-4.3814,-4.3229,-4.2395,-4.1346,-4.0569,-3.992,-3.9409,-3.9424,-3.9424,-3.9424,-3.9424,-3.9424,-3.9424,-3.9424,-3.9424,-3.9424,-4.0711,-4.1654,-4.2192,-4.297,-4.3329,-4.3329,-4.3329,-4.3329,-1.0882,-1.1243,0.0,0.0,0.0,0.0,0.0,-1.5905,0.0,0.0,0.0,0.0,0.0,0.0,0.0,0.0,0.0,0.0,0.0,0.0,0.0,0.0,0.0,0.0,0.0,0.0,-2.3048,-2.3292,-2.2585,-2.2433,-2.3255,-2.3324,-2.381,-2.4792,-2.4959,-2.5273,-2.5848,-2.696,-2.7711,-2.8171,-2.9188,-2.9729,-2.9792,-2.9792,-2.9792,-2.9792,-2.9792,-2.9792,-2.9792,-2.9792,-2.9792,-2.9792,-2.9792,-2.9856,-3.0075,-3.1044,-3.196,-3.289,-3.3822,-3.4758,-3.5504,-3.5504,-3.5504,-3.5504,-3.5504,-3.5504,-3.5504,-3.5504,-3.4839,-3.4177,-3.4177,-3.3533,-3.289,-3.289,-3.282,-3.2888,-3.3356,-3.28,-3.2405,-3.345,-3.4939,-3.6789,-3.872,-4.0686,-4.2332,-4.3169,-4.4064,-4.457,-4.4457,-4.3092,-4.2062,-4.1869,-4.0447,-3.9481,-3.9424,-3.9424,-3.9424,-3.9424,-3.9424,-3.9424,-3.9424,-3.9424,-3.9424,-3.9424,-4.0711,-4.1983,-4.3225,-4.3299,-4.3329,-4.3329,-4.3329,-4.3329,-1.2645,-1.2988,-1.35,0.0,0.0,0.0,0.0,-1.5507,0.0,0.0,0.0,0.0,0.0,0.0,0.0,0.0,0.0,0.0,0.0,0.0,0.0,0.0,0.0,0.0,0.0,0.0,-2.423,-2.3497,-2.3284,-2.3295,-2.3422,-2.3422,-2.4003,-2.5203,-2.6142,-2.687,-2.7323,-2.8413,-2.8915,-2.8773,-2.8937,-2.934,-2.9792,-2.9792,-2.9792,-2.9792,-2.9792,-2.9792,-2.9792,-2.9792,-2.9792,-2.9792,-2.9792,-3.0279,-3.1044,-3.196,-3.289,-3.3891,-3.4839,-3.5359,-3.5504,-3.5504,-3.5504,-3.5504,-3.5504,-3.5504,-3.5504,-3.5504,-3.5359,-3.5213,-3.5213,-3.5067,-3.492,-3.492,-3.4327,-3.3768,-3.3896,-3.3447,-3.2983,-3.2482,-3.4072,-3.631,-3.8718,-4.0686,-4.2332,-4.3169,-4.4064,-4.4327,-4.3621,-4.3246,-4.252,-4.108,-4.0622,-4.0185,-3.9481,-3.9424,-3.9424,-3.9424,-3.9424,-3.9424,-3.9424,-3.9424,-3.9424,-3.9424,-4.0711,-4.1773,-4.2551,-4.3075,-4.3329,-4.3329,-4.3329,-4.3329,-1.3834,-1.3818,-1.4086,-1.3993,0.0,0.0,0.0,0.0,0.0,0.0,0.0,0.0,0.0,0.0,0.0,0.0,0.0,0.0,0.0,0.0,0.0,0.0,0.0,0.0,0.0,0.0,-2.3898,-2.3133,-2.353,-2.4108,-2.4885,-2.5272,-2.6052,-2.7152,-2.7771,-2.8276,-2.8773,-2.9306,-2.9446,-2.9134,-2.9134,-2.9234,-2.9365,-2.9365,-2.9515,-2.9792,-2.9792,-2.9792,-2.9869,-3.0279,-3.0482,-3.0482,-3.0482,-3.0758,-3.1389,-3.282,-3.3602,-3.4163,-3.5133,-3.5504,-3.5504,-3.5504,-3.5504,-3.5504,-3.5504,-3.5504,-3.5504,-3.5504,-3.5504,-3.5504,-3.5504,-3.5504,-3.5504,-3.5504,-3.5133,-3.4758,-3.4758,-3.4218,-3.3505,-3.2861,-3.3704,-3.5264,-3.7535,-3.9364,-4.1037,-4.2442,-4.3031,-4.3169,-4.2724,-4.2252,-4.1674,-4.0811,-4.0309,-3.9864,-3.9424,-3.9424,-3.9424,-3.9424,-3.9424,-3.9424,-3.9424,-3.9424,-3.9574,-3.9903,-4.0876,-4.1698,-4.2357,-4.3015,-4.3329,-4.3329,-4.3329,-4.3329,0.0,0.0,0.0,0.0,0.0,-1.5422,0.0,0.0,0.0,-1.5684,0.0,0.0,0.0,0.0,0.0,0.0,0.0,0.0,0.0,0.0,0.0,0.0,0.0,0.0,0.0,0.0,-2.319,-2.3329,-2.3637,-2.4686,-2.6547,-2.7262,-2.812,-2.9254,-2.9254,-2.9491,-2.9914,-2.9928,-2.9761,-2.9488,-2.9488,-2.9327,-2.8986,-2.9298,-2.9604,-2.9923,-3.0241,-3.0355,-3.0432,-3.1193,-3.1462,-3.1462,-3.1462,-3.1609,-3.1888,-3.3449,-3.4095,-3.4394,-3.5213,-3.5504,-3.5504,-3.5504,-3.5504,-3.5504,-3.5504,-3.5504,-3.5504,-3.5504,-3.5504,-3.5504,-3.5504,-3.5504,-3.5504,-3.5504,-3.5619,-3.5733,-3.5733,-3.5059,-3.4332,-3.3832,-3.377,-3.4363,-3.6139,-3.7812,-3.961,-4.1496,-4.1869,-4.1933,-4.1804,-4.1147,-4.0622,-4.05,-3.9793,-3.9424,-3.9424,-3.9424,-3.9424,-3.9424,-3.9424,-3.9424,-3.9424,-3.9424,-3.9664,-4.0202,-4.0861,-4.1519,-4.2177,-4.2836,-4.321,-4.3329,-4.3329,-4.3329,0.0,0.0,0.0,0.0,-1.7295,0.0,0.0,0.0,-1.6598,-1.5152,0.0,0.0,0.0,0.0,0.0,0.0,0.0,0.0,0.0,0.0,0.0,0.0,0.0,0.0,0.0,0.0,0.0,-2.5368,-2.4255,-2.4734,-2.7631,-2.7865,-2.8608,-3.0119,-3.0133,-3.0176,-3.0248,-3.0248,-3.0114,-2.9734,-2.9734,-2.9592,-2.9371,-3.071,-3.0922,-3.0421,-3.1672,-3.2249,-3.2321,-3.2393,-3.2464,-3.2464,-3.2464,-3.2961,-3.3739,-3.3945,-3.4543,-3.5359,-3.5439,-3.5504,-3.5504,-3.5504,-3.5504,-3.5504,-3.5504,-3.5504,-3.5504,-3.5504,-3.5504,-3.5504,-3.5504,-3.5504,-3.5504,-3.5504,-3.6006,-3.6508,-3.6508,-3.6368,-3.6026,-3.5165,-3.486,-3.4953,-3.5501,-3.7143,-3.8955,-4.0566,-4.1478,-4.1739,-4.0946,-4.0758,-4.0432,-3.961,-3.9481,-3.9424,-3.9424,-3.9424,-3.9424,-3.9424,-3.9424,-3.9424,-3.9424,-3.9424,-3.9454,-3.9529,-4.0172,-4.0831,-4.1489,-4.2147,-4.2776,-4.3329,-4.3329,-4.3329,0.0,0.0,0.0,0.0,0.0,0.0,0.0,0.0,-1.5739,0.0,0.0,0.0,0.0,0.0,0.0,0.0,0.0,0.0,0.0,0.0,0.0,0.0,0.0,0.0,0.0,0.0,0.0,0.0,0.0,-2.4894,-2.6933,-2.8584,-2.9726,-3.0366,-3.0822,-3.1029,-3.1029,-3.1029,-3.0715,-3.0086,-3.0086,-2.9951,-2.9619,-3.0268,-3.0515,-3.0551,-3.1611,-3.2012,-3.211,-3.3016,-3.338,-3.3449,-3.4041,-3.4192,-3.4095,-3.4691,-3.5133,-3.5554,-3.6006,-3.6165,-3.6165,-3.6165,-3.5831,-3.5504,-3.5504,-3.5504,-3.5504,-3.5504,-3.5504,-3.5504,-3.5504,-3.5846,-3.6165,-3.6165,-3.6753,-3.7279,-3.7279,-3.7279,-3.6857,-3.5446,-3.5118,-3.5112,-3.5152,-3.6461,-3.8026,-3.9657,-4.0255,-4.0393,-3.999,-3.992,-3.9809,-3.9409,-3.9424,-3.9424,-3.9424,-3.9424,-3.9424,-3.9424,-3.9424,-3.9424,-3.9424,-3.9424,-3.9424,-3.9424,-4.0068,-4.0726,-4.1384,-4.2043,-4.2701,-4.3329,-4.3329,-4.3329,-1.6068,0.0,0.0,0.0,0.0,0.0,0.0,0.0,0.0,0.0,0.0,0.0,0.0,0.0,0.0,0.0,0.0,0.0,0.0,0.0,0.0,0.0,0.0,0.0,0.0,0.0,0.0,0.0,0.0,0.0,-2.6026,-2.8414,-2.9953,-3.0492,-3.118,-3.1482,-3.1482,-3.1482,-3.1219,-3.0644,-3.0852,-3.0698,-3.0249,-3.0608,-3.0935,-3.1129,-3.1791,-3.2238,-3.2503,-3.3648,-3.4234,-3.4461,-3.5213,-3.5052,-3.4476,-3.5213,-3.5504,-3.5554,-3.6102,-3.6275,-3.6275,-3.6275,-3.5958,-3.5504,-3.5504,-3.5504,-3.5504,-3.5504,-3.5683,-3.5782,-3.5782,-3.6337,-3.6904,-3.6904,-3.7557,-3.8092,-3.8092,-3.8092,-3.7758,-3.6445,-3.6075,-3.5879,-3.5777,-3.6212,-3.7186,-3.8877,-3.929,-3.9424,-3.9424,-3.9424,-3.9424,-3.9424,-3.9424,-3.9424,-3.9424,-3.9424,-3.9424,-3.9424,-3.9424,-3.9424,-3.9424,-3.9424,-3.9424,-3.9424,-3.9888,-4.0546,-4.1384,-4.1863,-4.2521,-4.3329,-4.3329,-4.3329,0.0,0.0,0.0,-1.5332,0.0,0.0,0.0,0.0,-1.683,0.0,0.0,0.0,0.0,0.0,0.0,-1.59,0.0,0.0,0.0,0.0,0.0,0.0,0.0,0.0,0.0,0.0,0.0,0.0,0.0,0.0,-2.5581,-2.7009,-2.8532,-3.0447,-3.118,-3.1482,-3.1482,-3.1482,-3.1482,-3.1467,-3.216,-3.2099,-3.1317,-3.2756,-3.2947,-3.2318,-3.3109,-3.3811,-3.4409,-3.4424,-3.4906,-3.5439,-3.5504,-3.5504,-3.5439,-3.5504,-3.5504,-3.5504,-3.5504,-3.5569,-3.5569,-3.5569,-3.5504,-3.5504,-3.5504,-3.5504,-3.5504,-3.5504,-3.6006,-3.6538,-3.6538,-3.716,-3.7748,-3.7748,-3.8302,-3.8854,-3.8854,-3.8854,-3.8854,-3.8783,-3.8173,-3.7662,-3.7561,-3.6663,-3.6589,-3.8176,-3.899,-3.9424,-3.9424,-3.9424,-3.9424,-3.9424,-3.9424,-3.9424,-3.9424,-3.9424,-3.9424,-3.9424,-3.9424,-3.9424,-3.9424,-3.9424,-3.9424,-3.9424,-3.9439,-4.0083,-4.1384,-4.1399,-4.2073,-4.3329,-4.3329,-4.3329,0.0,0.0,-1.8324,-1.6207,0.0,0.0,0.0,0.0,0.0,0.0,0.0,0.0,0.0,0.0,-1.6873,-1.63,-1.6243,0.0,0.0,0.0,0.0,0.0,0.0,0.0,0.0,0.0,0.0,0.0,0.0,0.0,0.0,-2.6001,-2.8083,-2.9205,-3.0298,-3.1076,-3.1482,-3.1482,-3.1739,-3.2216,-3.2492,-3.2664,-3.2855,-3.3335,-3.3192,-3.2522,-3.3227,-3.3393,-3.3245,-3.4113,-3.4607,-3.4861,-3.5325,-3.5504,-3.5504,-3.5504,-3.5846,-3.6275,-3.6829,-3.6646,-3.6228,-3.6228,-3.5894,-3.5504,-3.5504,-3.5504,-3.5504,-3.5504,-3.6054,-3.6615,-3.6615,-3.7541,-3.8619,-3.9023,-3.9716,-4.0346,-4.074,-4.0834,-4.0659,-4.0109,-3.9564,-3.895,-3.8343,-3.8415,-3.8569,-3.8412,-3.8975,-3.9424,-3.9424,-3.9424,-3.9424,-3.9424,-3.9424,-3.9424,-3.9424,-3.9424,-3.9424,-3.9424,-3.9424,-3.9424,-3.9424,-3.9424,-3.9424,-3.9424,-3.9424,-3.9843,-4.0726,-4.1175,-4.1833,-4.2701,-4.3135,-4.3329,-1.8218,-1.8539,0.0,-1.7033,-1.6535,0.0,-1.5036,0.0,0.0,0.0,0.0,0.0,0.0,0.0,0.0,-1.6353,-1.5953,0.0,0.0,0.0,0.0,0.0,0.0,0.0,0.0,0.0,-1.5417,-1.6608,0.0,0.0,0.0,0.0,-2.729,-2.8203,-2.9714,-3.0717,-3.1165,-3.1347,-3.1853,-3.2586,-3.2841,-3.3287,-3.3937,-3.3937,-3.3735,-3.3319,-3.3224,-3.308,-3.294,-3.3804,-3.444,-3.4971,-3.5661,-3.6106,-3.6258,-3.6006,-3.6337,-3.7084,-3.7632,-3.7456,-3.6964,-3.6661,-3.6275,-3.5831,-3.5554,-3.5504,-3.5554,-3.5846,-3.6461,-3.7084,-3.7365,-3.8398,-3.9492,-4.0067,-4.0569,-4.1087,-4.1664,-4.181,-4.1629,-4.1138,-4.0747,-4.0257,-3.9463,-4.023,-4.0469,-3.9152,-3.9726,-4.0324,-4.0324,-4.0324,-4.0324,-4.0324,-4.006,-3.9737,-3.9424,-3.9424,-3.9424,-3.9424,-3.9424,-3.9424,-3.9424,-3.9424,-3.9424,-3.9424,-3.9424,-3.9738,-4.0397,-4.1055,-4.1713,-4.2372,-4.303,-4.3329]}]]